<?xml version="1.0" encoding="UTF-8" standalone="no" ?>
<gpx xmlns="http://www.topografix.com/GPX/1/1" xmlns:xsi="http://www.w3.org/2001/XMLSchema-instance" xsi:schemaLocation="http://www.topografix.com/GPX/1/1 http://www.topografix.com/GPX/1/1/gpx.xsd" version="1.1" creator="VisuGPX - https://www.visugpx.com">
  <metadata>
    <name>VTT le mont colombis </name>
    <desc><![CDATA[Départ d\'Espinasse , monter au belvédère du lac puis prendre à gauche : Rousset continuer sur piste après le village , prendre à droite : Vière puis Croix des prés et Colombis . Retour par même tracé jusqu\'à Vière un peu avant prendre à droite direction Espinasse . Superbe tour physiquement exigeant  majoritairement sur pistes forestières roulantes et petites routes :amateurs de casse bécane et monotrace trial  s\'abstenir ]]></desc>
  </metadata>
  <trk>
    <name><![CDATA[ACTIVE LOG 006]]></name>
    <trkseg>
      <trkpt lat="44.46488" lon="6.23079">
        <ele>634.126709</ele>
        <time>2014-08-12T06:22:34Z</time>
      </trkpt>
      <trkpt lat="44.46489" lon="6.2308">
        <ele>637.4914551</ele>
        <time>2014-08-12T06:22:47Z</time>
      </trkpt>
      <trkpt lat="44.46492" lon="6.23081">
        <ele>640.855957</ele>
        <time>2014-08-12T06:22:51Z</time>
      </trkpt>
      <trkpt lat="44.46493" lon="6.23082">
        <ele>644.2207031</ele>
        <time>2014-08-12T06:22:54Z</time>
      </trkpt>
      <trkpt lat="44.46493" lon="6.23083">
        <ele>647.1044922</ele>
        <time>2014-08-12T06:22:58Z</time>
      </trkpt>
      <trkpt lat="44.46492" lon="6.23084">
        <ele>650.4692383</ele>
        <time>2014-08-12T06:23:03Z</time>
      </trkpt>
      <trkpt lat="44.46492" lon="6.23084">
        <ele>653.8339844</ele>
        <time>2014-08-12T06:23:07Z</time>
      </trkpt>
      <trkpt lat="44.46492" lon="6.23084">
        <ele>656.7177734</ele>
        <time>2014-08-12T06:23:12Z</time>
      </trkpt>
      <trkpt lat="44.46492" lon="6.23084">
        <ele>660.0822754</ele>
        <time>2014-08-12T06:23:18Z</time>
      </trkpt>
      <trkpt lat="44.46492" lon="6.23084">
        <ele>662.9663086</ele>
        <time>2014-08-12T06:23:26Z</time>
      </trkpt>
      <trkpt lat="44.46492" lon="6.23084">
        <ele>666.3308105</ele>
        <time>2014-08-12T06:23:36Z</time>
      </trkpt>
      <trkpt lat="44.46492" lon="6.23084">
        <ele>669.2150879</ele>
        <time>2014-08-12T06:23:49Z</time>
      </trkpt>
      <trkpt lat="44.46495" lon="6.23081">
        <ele>671.1376953</ele>
        <time>2014-08-12T06:24:01Z</time>
      </trkpt>
      <trkpt lat="44.46495" lon="6.23085">
        <ele>672.098877</ele>
        <time>2014-08-12T06:24:13Z</time>
      </trkpt>
      <trkpt lat="44.46501" lon="6.23112">
        <ele>672.5795898</ele>
        <time>2014-08-12T06:24:25Z</time>
      </trkpt>
      <trkpt lat="44.46511" lon="6.23191">
        <ele>674.0214844</ele>
        <time>2014-08-12T06:24:45Z</time>
      </trkpt>
      <trkpt lat="44.46523" lon="6.23298">
        <ele>674.0214844</ele>
        <time>2014-08-12T06:25:06Z</time>
      </trkpt>
      <trkpt lat="44.46527" lon="6.23356">
        <ele>672.098877</ele>
        <time>2014-08-12T06:25:12Z</time>
      </trkpt>
      <trkpt lat="44.46522" lon="6.23448">
        <ele>670.6569824</ele>
        <time>2014-08-12T06:25:21Z</time>
      </trkpt>
      <trkpt lat="44.46512" lon="6.23473">
        <ele>669.6958008</ele>
        <time>2014-08-12T06:25:25Z</time>
      </trkpt>
      <trkpt lat="44.46505" lon="6.23482">
        <ele>669.6958008</ele>
        <time>2014-08-12T06:25:27Z</time>
      </trkpt>
      <trkpt lat="44.46512" lon="6.23509">
        <ele>668.734375</ele>
        <time>2014-08-12T06:25:32Z</time>
      </trkpt>
      <trkpt lat="44.4652" lon="6.23517">
        <ele>668.734375</ele>
        <time>2014-08-12T06:25:34Z</time>
      </trkpt>
      <trkpt lat="44.46532" lon="6.2354">
        <ele>669.2150879</ele>
        <time>2014-08-12T06:25:38Z</time>
      </trkpt>
      <trkpt lat="44.46556" lon="6.23669">
        <ele>667.7727051</ele>
        <time>2014-08-12T06:25:55Z</time>
      </trkpt>
      <trkpt lat="44.4659" lon="6.23843">
        <ele>667.7727051</ele>
        <time>2014-08-12T06:26:19Z</time>
      </trkpt>
      <trkpt lat="44.46629" lon="6.23981">
        <ele>667.7727051</ele>
        <time>2014-08-12T06:26:40Z</time>
      </trkpt>
      <trkpt lat="44.46647" lon="6.24115">
        <ele>667.7727051</ele>
        <time>2014-08-12T06:27:01Z</time>
      </trkpt>
      <trkpt lat="44.46647" lon="6.24121">
        <ele>667.7727051</ele>
        <time>2014-08-12T06:27:02Z</time>
      </trkpt>
      <trkpt lat="44.46638" lon="6.24258">
        <ele>669.2150879</ele>
        <time>2014-08-12T06:27:27Z</time>
      </trkpt>
      <trkpt lat="44.46626" lon="6.24423">
        <ele>670.6569824</ele>
        <time>2014-08-12T06:27:59Z</time>
      </trkpt>
      <trkpt lat="44.46615" lon="6.24547">
        <ele>669.6958008</ele>
        <time>2014-08-12T06:28:16Z</time>
      </trkpt>
      <trkpt lat="44.46613" lon="6.24693">
        <ele>667.7727051</ele>
        <time>2014-08-12T06:28:35Z</time>
      </trkpt>
      <trkpt lat="44.46639" lon="6.2483">
        <ele>667.7727051</ele>
        <time>2014-08-12T06:28:56Z</time>
      </trkpt>
      <trkpt lat="44.46666" lon="6.24979">
        <ele>668.734375</ele>
        <time>2014-08-12T06:29:24Z</time>
      </trkpt>
      <trkpt lat="44.46706" lon="6.25098">
        <ele>669.2150879</ele>
        <time>2014-08-12T06:29:48Z</time>
      </trkpt>
      <trkpt lat="44.46738" lon="6.25245">
        <ele>668.734375</ele>
        <time>2014-08-12T06:30:15Z</time>
      </trkpt>
      <trkpt lat="44.46755" lon="6.25395">
        <ele>669.2150879</ele>
        <time>2014-08-12T06:30:44Z</time>
      </trkpt>
      <trkpt lat="44.46769" lon="6.25532">
        <ele>670.6569824</ele>
        <time>2014-08-12T06:31:11Z</time>
      </trkpt>
      <trkpt lat="44.46789" lon="6.25671">
        <ele>670.6569824</ele>
        <time>2014-08-12T06:31:36Z</time>
      </trkpt>
      <trkpt lat="44.46821" lon="6.25786">
        <ele>670.6569824</ele>
        <time>2014-08-12T06:32:00Z</time>
      </trkpt>
      <trkpt lat="44.46849" lon="6.25909">
        <ele>671.1376953</ele>
        <time>2014-08-12T06:32:26Z</time>
      </trkpt>
      <trkpt lat="44.46857" lon="6.26025">
        <ele>671.1376953</ele>
        <time>2014-08-12T06:32:48Z</time>
      </trkpt>
      <trkpt lat="44.46863" lon="6.26112">
        <ele>671.6181641</ele>
        <time>2014-08-12T06:33:09Z</time>
      </trkpt>
      <trkpt lat="44.46863" lon="6.2616">
        <ele>674.9829102</ele>
        <time>2014-08-12T06:33:28Z</time>
      </trkpt>
      <trkpt lat="44.46871" lon="6.26206">
        <ele>678.3474121</ele>
        <time>2014-08-12T06:33:48Z</time>
      </trkpt>
      <trkpt lat="44.46892" lon="6.26259">
        <ele>681.2314453</ele>
        <time>2014-08-12T06:34:13Z</time>
      </trkpt>
      <trkpt lat="44.46906" lon="6.2631">
        <ele>684.5961914</ele>
        <time>2014-08-12T06:34:36Z</time>
      </trkpt>
      <trkpt lat="44.46906" lon="6.26357">
        <ele>687.9606934</ele>
        <time>2014-08-12T06:34:57Z</time>
      </trkpt>
      <trkpt lat="44.46899" lon="6.26396">
        <ele>690.3640137</ele>
        <time>2014-08-12T06:35:18Z</time>
      </trkpt>
      <trkpt lat="44.4689" lon="6.26444">
        <ele>693.2478027</ele>
        <time>2014-08-12T06:35:44Z</time>
      </trkpt>
      <trkpt lat="44.46882" lon="6.26496">
        <ele>696.6125488</ele>
        <time>2014-08-12T06:36:11Z</time>
      </trkpt>
      <trkpt lat="44.4688" lon="6.26551">
        <ele>699.9770508</ele>
        <time>2014-08-12T06:36:36Z</time>
      </trkpt>
      <trkpt lat="44.46887" lon="6.26603">
        <ele>703.3417969</ele>
        <time>2014-08-12T06:37:02Z</time>
      </trkpt>
      <trkpt lat="44.46895" lon="6.26656">
        <ele>706.2255859</ele>
        <time>2014-08-12T06:37:29Z</time>
      </trkpt>
      <trkpt lat="44.46905" lon="6.26695">
        <ele>709.590332</ele>
        <time>2014-08-12T06:37:50Z</time>
      </trkpt>
      <trkpt lat="44.46926" lon="6.26698">
        <ele>710.5515137</ele>
        <time>2014-08-12T06:38:06Z</time>
      </trkpt>
      <trkpt lat="44.46949" lon="6.26658">
        <ele>711.0322266</ele>
        <time>2014-08-12T06:38:26Z</time>
      </trkpt>
      <trkpt lat="44.46978" lon="6.26635">
        <ele>712.954834</ele>
        <time>2014-08-12T06:38:48Z</time>
      </trkpt>
      <trkpt lat="44.47003" lon="6.26624">
        <ele>715.8388672</ele>
        <time>2014-08-12T06:39:07Z</time>
      </trkpt>
      <trkpt lat="44.47035" lon="6.26607">
        <ele>719.2036133</ele>
        <time>2014-08-12T06:39:31Z</time>
      </trkpt>
      <trkpt lat="44.4707" lon="6.26605">
        <ele>722.0874023</ele>
        <time>2014-08-12T06:39:55Z</time>
      </trkpt>
      <trkpt lat="44.47099" lon="6.26587">
        <ele>724.9714355</ele>
        <time>2014-08-12T06:40:16Z</time>
      </trkpt>
      <trkpt lat="44.47127" lon="6.26547">
        <ele>728.3359375</ele>
        <time>2014-08-12T06:40:43Z</time>
      </trkpt>
      <trkpt lat="44.47144" lon="6.26504">
        <ele>730.7392578</ele>
        <time>2014-08-12T06:41:09Z</time>
      </trkpt>
      <trkpt lat="44.4712" lon="6.26487">
        <ele>732.6621094</ele>
        <time>2014-08-12T06:41:28Z</time>
      </trkpt>
      <trkpt lat="44.47099" lon="6.26516">
        <ele>734.1040039</ele>
        <time>2014-08-12T06:41:48Z</time>
      </trkpt>
      <trkpt lat="44.47091" lon="6.26547">
        <ele>736.5073242</ele>
        <time>2014-08-12T06:42:07Z</time>
      </trkpt>
      <trkpt lat="44.47067" lon="6.26569">
        <ele>739.3911133</ele>
        <time>2014-08-12T06:42:26Z</time>
      </trkpt>
      <trkpt lat="44.47034" lon="6.2658">
        <ele>742.2751465</ele>
        <time>2014-08-12T06:42:49Z</time>
      </trkpt>
      <trkpt lat="44.47002" lon="6.26589">
        <ele>744.6782227</ele>
        <time>2014-08-12T06:43:13Z</time>
      </trkpt>
      <trkpt lat="44.46971" lon="6.26573">
        <ele>747.5622559</ele>
        <time>2014-08-12T06:43:36Z</time>
      </trkpt>
      <trkpt lat="44.46967" lon="6.26523">
        <ele>750.4465332</ele>
        <time>2014-08-12T06:44:01Z</time>
      </trkpt>
      <trkpt lat="44.46991" lon="6.26483">
        <ele>753.3303223</ele>
        <time>2014-08-12T06:44:27Z</time>
      </trkpt>
      <trkpt lat="44.47018" lon="6.2645">
        <ele>756.2141113</ele>
        <time>2014-08-12T06:44:53Z</time>
      </trkpt>
      <trkpt lat="44.47046" lon="6.26419">
        <ele>759.5788574</ele>
        <time>2014-08-12T06:45:19Z</time>
      </trkpt>
      <trkpt lat="44.47075" lon="6.26388">
        <ele>761.9821777</ele>
        <time>2014-08-12T06:45:44Z</time>
      </trkpt>
      <trkpt lat="44.47103" lon="6.26356">
        <ele>765.3469238</ele>
        <time>2014-08-12T06:46:09Z</time>
      </trkpt>
      <trkpt lat="44.47121" lon="6.26319">
        <ele>767.75</ele>
        <time>2014-08-12T06:46:32Z</time>
      </trkpt>
      <trkpt lat="44.47117" lon="6.2627">
        <ele>770.6340332</ele>
        <time>2014-08-12T06:46:58Z</time>
      </trkpt>
      <trkpt lat="44.47105" lon="6.26224">
        <ele>773.5180664</ele>
        <time>2014-08-12T06:47:23Z</time>
      </trkpt>
      <trkpt lat="44.47103" lon="6.26207">
        <ele>773.9985352</ele>
        <time>2014-08-12T06:47:32Z</time>
      </trkpt>
      <trkpt lat="44.47111" lon="6.26207">
        <ele>774.9599609</ele>
        <time>2014-08-12T06:47:39Z</time>
      </trkpt>
      <trkpt lat="44.47124" lon="6.26251">
        <ele>777.84375</ele>
        <time>2014-08-12T06:48:02Z</time>
      </trkpt>
      <trkpt lat="44.47139" lon="6.26296">
        <ele>780.7280273</ele>
        <time>2014-08-12T06:48:27Z</time>
      </trkpt>
      <trkpt lat="44.4716" lon="6.26327">
        <ele>783.6118164</ele>
        <time>2014-08-12T06:48:49Z</time>
      </trkpt>
      <trkpt lat="44.4719" lon="6.26352">
        <ele>786.9763184</ele>
        <time>2014-08-12T06:49:14Z</time>
      </trkpt>
      <trkpt lat="44.47208" lon="6.26392">
        <ele>789.8603516</ele>
        <time>2014-08-12T06:49:38Z</time>
      </trkpt>
      <trkpt lat="44.47231" lon="6.26428">
        <ele>793.2248535</ele>
        <time>2014-08-12T06:50:03Z</time>
      </trkpt>
      <trkpt lat="44.47262" lon="6.26451">
        <ele>796.5898438</ele>
        <time>2014-08-12T06:50:30Z</time>
      </trkpt>
      <trkpt lat="44.47273" lon="6.26457">
        <ele>797.5510254</ele>
        <time>2014-08-12T06:50:39Z</time>
      </trkpt>
      <trkpt lat="44.47284" lon="6.26451">
        <ele>798.512207</ele>
        <time>2014-08-12T06:50:47Z</time>
      </trkpt>
      <trkpt lat="44.47281" lon="6.26418">
        <ele>800.9155273</ele>
        <time>2014-08-12T06:51:06Z</time>
      </trkpt>
      <trkpt lat="44.47252" lon="6.26382">
        <ele>803.7995605</ele>
        <time>2014-08-12T06:51:34Z</time>
      </trkpt>
      <trkpt lat="44.47229" lon="6.26347">
        <ele>806.6833496</ele>
        <time>2014-08-12T06:51:59Z</time>
      </trkpt>
      <trkpt lat="44.4721" lon="6.26305">
        <ele>809.5673828</ele>
        <time>2014-08-12T06:52:25Z</time>
      </trkpt>
      <trkpt lat="44.47226" lon="6.26287">
        <ele>811.9707031</ele>
        <time>2014-08-12T06:52:41Z</time>
      </trkpt>
      <trkpt lat="44.47252" lon="6.26304">
        <ele>814.3740234</ele>
        <time>2014-08-12T06:53:01Z</time>
      </trkpt>
      <trkpt lat="44.4728" lon="6.26331">
        <ele>817.7385254</ele>
        <time>2014-08-12T06:53:25Z</time>
      </trkpt>
      <trkpt lat="44.47299" lon="6.26373">
        <ele>820.6225586</ele>
        <time>2014-08-12T06:53:49Z</time>
      </trkpt>
      <trkpt lat="44.47316" lon="6.26407">
        <ele>823.5065918</ele>
        <time>2014-08-12T06:54:11Z</time>
      </trkpt>
      <trkpt lat="44.47338" lon="6.26451">
        <ele>826.3903809</ele>
        <time>2014-08-12T06:54:39Z</time>
      </trkpt>
      <trkpt lat="44.47367" lon="6.2648">
        <ele>829.2744141</ele>
        <time>2014-08-12T06:55:06Z</time>
      </trkpt>
      <trkpt lat="44.47391" lon="6.26507">
        <ele>832.6391602</ele>
        <time>2014-08-12T06:55:29Z</time>
      </trkpt>
      <trkpt lat="44.4739" lon="6.26553">
        <ele>835.5229492</ele>
        <time>2014-08-12T06:55:54Z</time>
      </trkpt>
      <trkpt lat="44.47401" lon="6.26601">
        <ele>838.4069824</ele>
        <time>2014-08-12T06:56:20Z</time>
      </trkpt>
      <trkpt lat="44.47422" lon="6.26638">
        <ele>841.7714844</ele>
        <time>2014-08-12T06:56:45Z</time>
      </trkpt>
      <trkpt lat="44.47441" lon="6.26688">
        <ele>845.1362305</ele>
        <time>2014-08-12T06:57:14Z</time>
      </trkpt>
      <trkpt lat="44.47454" lon="6.26736">
        <ele>848.5007324</ele>
        <time>2014-08-12T06:57:40Z</time>
      </trkpt>
      <trkpt lat="44.47458" lon="6.26779">
        <ele>850.9040527</ele>
        <time>2014-08-12T06:58:03Z</time>
      </trkpt>
      <trkpt lat="44.47459" lon="6.26821">
        <ele>854.2687988</ele>
        <time>2014-08-12T06:58:26Z</time>
      </trkpt>
      <trkpt lat="44.47471" lon="6.26865">
        <ele>857.6333008</ele>
        <time>2014-08-12T06:58:51Z</time>
      </trkpt>
      <trkpt lat="44.47494" lon="6.26909">
        <ele>860.517334</ele>
        <time>2014-08-12T06:59:19Z</time>
      </trkpt>
      <trkpt lat="44.47511" lon="6.26944">
        <ele>862.9206543</ele>
        <time>2014-08-12T06:59:41Z</time>
      </trkpt>
      <trkpt lat="44.47501" lon="6.26951">
        <ele>863.4013672</ele>
        <time>2014-08-12T06:59:52Z</time>
      </trkpt>
      <trkpt lat="44.47492" lon="6.26946">
        <ele>863.4013672</ele>
        <time>2014-08-12T06:59:59Z</time>
      </trkpt>
      <trkpt lat="44.47488" lon="6.26951">
        <ele>863.4013672</ele>
        <time>2014-08-12T07:00:03Z</time>
      </trkpt>
      <trkpt lat="44.47488" lon="6.26958">
        <ele>863.4013672</ele>
        <time>2014-08-12T07:00:20Z</time>
      </trkpt>
      <trkpt lat="44.47491" lon="6.26959">
        <ele>863.4013672</ele>
        <time>2014-08-12T07:00:37Z</time>
      </trkpt>
      <trkpt lat="44.47489" lon="6.26947">
        <ele>863.4013672</ele>
        <time>2014-08-12T07:00:54Z</time>
      </trkpt>
      <trkpt lat="44.47497" lon="6.26946">
        <ele>863.4013672</ele>
        <time>2014-08-12T07:01:07Z</time>
      </trkpt>
      <trkpt lat="44.47526" lon="6.26979">
        <ele>864.3625488</ele>
        <time>2014-08-12T07:01:24Z</time>
      </trkpt>
      <trkpt lat="44.47545" lon="6.27033">
        <ele>866.2851563</ele>
        <time>2014-08-12T07:01:45Z</time>
      </trkpt>
      <trkpt lat="44.47576" lon="6.27088">
        <ele>866.2851563</ele>
        <time>2014-08-12T07:02:08Z</time>
      </trkpt>
      <trkpt lat="44.476" lon="6.27076">
        <ele>868.2077637</ele>
        <time>2014-08-12T07:02:24Z</time>
      </trkpt>
      <trkpt lat="44.47621" lon="6.27056">
        <ele>871.0917969</ele>
        <time>2014-08-12T07:02:41Z</time>
      </trkpt>
      <trkpt lat="44.47643" lon="6.27017">
        <ele>873.9755859</ele>
        <time>2014-08-12T07:03:06Z</time>
      </trkpt>
      <trkpt lat="44.47646" lon="6.27007">
        <ele>874.4562988</ele>
        <time>2014-08-12T07:03:11Z</time>
      </trkpt>
      <trkpt lat="44.47625" lon="6.26974">
        <ele>877.8210449</ele>
        <time>2014-08-12T07:03:33Z</time>
      </trkpt>
      <trkpt lat="44.4761" lon="6.26947">
        <ele>880.7050781</ele>
        <time>2014-08-12T07:03:52Z</time>
      </trkpt>
      <trkpt lat="44.47633" lon="6.26924">
        <ele>883.1081543</ele>
        <time>2014-08-12T07:04:11Z</time>
      </trkpt>
      <trkpt lat="44.47662" lon="6.26884">
        <ele>884.550293</ele>
        <time>2014-08-12T07:04:34Z</time>
      </trkpt>
      <trkpt lat="44.47664" lon="6.26836">
        <ele>884.550293</ele>
        <time>2014-08-12T07:04:50Z</time>
      </trkpt>
      <trkpt lat="44.47673" lon="6.26784">
        <ele>886.4729004</ele>
        <time>2014-08-12T07:05:12Z</time>
      </trkpt>
      <trkpt lat="44.47679" lon="6.26724">
        <ele>887.9147949</ele>
        <time>2014-08-12T07:05:36Z</time>
      </trkpt>
      <trkpt lat="44.47677" lon="6.26665">
        <ele>888.8762207</ele>
        <time>2014-08-12T07:05:58Z</time>
      </trkpt>
      <trkpt lat="44.47665" lon="6.26613">
        <ele>891.2792969</ele>
        <time>2014-08-12T07:06:21Z</time>
      </trkpt>
      <trkpt lat="44.47671" lon="6.26578">
        <ele>894.644043</ele>
        <time>2014-08-12T07:06:39Z</time>
      </trkpt>
      <trkpt lat="44.47699" lon="6.2655">
        <ele>898.0087891</ele>
        <time>2014-08-12T07:07:02Z</time>
      </trkpt>
      <trkpt lat="44.47704" lon="6.26538">
        <ele>898.9699707</ele>
        <time>2014-08-12T07:07:09Z</time>
      </trkpt>
      <trkpt lat="44.4771" lon="6.26495">
        <ele>901.8540039</ele>
        <time>2014-08-12T07:07:32Z</time>
      </trkpt>
      <trkpt lat="44.47701" lon="6.26465">
        <ele>905.2185059</ele>
        <time>2014-08-12T07:07:49Z</time>
      </trkpt>
      <trkpt lat="44.47684" lon="6.26443">
        <ele>908.1027832</ele>
        <time>2014-08-12T07:08:06Z</time>
      </trkpt>
      <trkpt lat="44.47675" lon="6.26402">
        <ele>910.9865723</ele>
        <time>2014-08-12T07:08:27Z</time>
      </trkpt>
      <trkpt lat="44.4769" lon="6.26369">
        <ele>914.8317871</ele>
        <time>2014-08-12T07:08:48Z</time>
      </trkpt>
      <trkpt lat="44.47695" lon="6.2633">
        <ele>917.7155762</ele>
        <time>2014-08-12T07:09:09Z</time>
      </trkpt>
      <trkpt lat="44.47686" lon="6.26296">
        <ele>920.5996094</ele>
        <time>2014-08-12T07:09:29Z</time>
      </trkpt>
      <trkpt lat="44.47662" lon="6.26271">
        <ele>923.4836426</ele>
        <time>2014-08-12T07:09:50Z</time>
      </trkpt>
      <trkpt lat="44.47642" lon="6.26241">
        <ele>925.8869629</ele>
        <time>2014-08-12T07:10:11Z</time>
      </trkpt>
      <trkpt lat="44.47632" lon="6.26183">
        <ele>927.8095703</ele>
        <time>2014-08-12T07:10:39Z</time>
      </trkpt>
      <trkpt lat="44.47603" lon="6.26135">
        <ele>929.2514648</ele>
        <time>2014-08-12T07:11:03Z</time>
      </trkpt>
      <trkpt lat="44.47585" lon="6.26089">
        <ele>930.6936035</ele>
        <time>2014-08-12T07:11:25Z</time>
      </trkpt>
      <trkpt lat="44.47573" lon="6.26054">
        <ele>934.0581055</ele>
        <time>2014-08-12T07:11:45Z</time>
      </trkpt>
      <trkpt lat="44.47588" lon="6.26031">
        <ele>937.4226074</ele>
        <time>2014-08-12T07:12:02Z</time>
      </trkpt>
      <trkpt lat="44.4761" lon="6.26002">
        <ele>940.3068848</ele>
        <time>2014-08-12T07:12:26Z</time>
      </trkpt>
      <trkpt lat="44.47632" lon="6.2596">
        <ele>943.1906738</ele>
        <time>2014-08-12T07:12:50Z</time>
      </trkpt>
      <trkpt lat="44.4765" lon="6.25922">
        <ele>945.5939941</ele>
        <time>2014-08-12T07:13:14Z</time>
      </trkpt>
      <trkpt lat="44.47666" lon="6.25889">
        <ele>948.9584961</ele>
        <time>2014-08-12T07:13:34Z</time>
      </trkpt>
      <trkpt lat="44.4767" lon="6.25851">
        <ele>951.3618164</ele>
        <time>2014-08-12T07:13:58Z</time>
      </trkpt>
      <trkpt lat="44.47678" lon="6.25828">
        <ele>954.7263184</ele>
        <time>2014-08-12T07:14:12Z</time>
      </trkpt>
      <trkpt lat="44.47705" lon="6.25812">
        <ele>957.6105957</ele>
        <time>2014-08-12T07:14:36Z</time>
      </trkpt>
      <trkpt lat="44.47734" lon="6.25783">
        <ele>960.4943848</ele>
        <time>2014-08-12T07:15:00Z</time>
      </trkpt>
      <trkpt lat="44.47749" lon="6.2575">
        <ele>963.378418</ele>
        <time>2014-08-12T07:15:21Z</time>
      </trkpt>
      <trkpt lat="44.47747" lon="6.25713">
        <ele>966.7429199</ele>
        <time>2014-08-12T07:15:41Z</time>
      </trkpt>
      <trkpt lat="44.47742" lon="6.25655">
        <ele>969.1462402</ele>
        <time>2014-08-12T07:16:08Z</time>
      </trkpt>
      <trkpt lat="44.47738" lon="6.25595">
        <ele>972.0302734</ele>
        <time>2014-08-12T07:16:35Z</time>
      </trkpt>
      <trkpt lat="44.47743" lon="6.25558">
        <ele>974.9143066</ele>
        <time>2014-08-12T07:16:54Z</time>
      </trkpt>
      <trkpt lat="44.47751" lon="6.2552">
        <ele>978.2788086</ele>
        <time>2014-08-12T07:17:15Z</time>
      </trkpt>
      <trkpt lat="44.47767" lon="6.25486">
        <ele>981.1628418</ele>
        <time>2014-08-12T07:17:36Z</time>
      </trkpt>
      <trkpt lat="44.4779" lon="6.25456">
        <ele>985.0080566</ele>
        <time>2014-08-12T07:17:59Z</time>
      </trkpt>
      <trkpt lat="44.47806" lon="6.25431">
        <ele>987.8918457</ele>
        <time>2014-08-12T07:18:18Z</time>
      </trkpt>
      <trkpt lat="44.47822" lon="6.25406">
        <ele>990.2954102</ele>
        <time>2014-08-12T07:18:36Z</time>
      </trkpt>
      <trkpt lat="44.47825" lon="6.25405">
        <ele>990.7758789</ele>
        <time>2014-08-12T07:18:38Z</time>
      </trkpt>
      <trkpt lat="44.47848" lon="6.25378">
        <ele>993.6599121</ele>
        <time>2014-08-12T07:19:00Z</time>
      </trkpt>
      <trkpt lat="44.47876" lon="6.25355">
        <ele>997.0244141</ele>
        <time>2014-08-12T07:19:24Z</time>
      </trkpt>
      <trkpt lat="44.47885" lon="6.25334">
        <ele>998.9470215</ele>
        <time>2014-08-12T07:19:38Z</time>
      </trkpt>
      <trkpt lat="44.47857" lon="6.25326">
        <ele>1002.3115234</ele>
        <time>2014-08-12T07:19:59Z</time>
      </trkpt>
      <trkpt lat="44.47847" lon="6.253">
        <ele>1005.1958008</ele>
        <time>2014-08-12T07:20:18Z</time>
      </trkpt>
      <trkpt lat="44.47848" lon="6.25287">
        <ele>1007.1184082</ele>
        <time>2014-08-12T07:20:25Z</time>
      </trkpt>
      <trkpt lat="44.47849" lon="6.25282">
        <ele>1007.5991211</ele>
        <time>2014-08-12T07:20:28Z</time>
      </trkpt>
      <trkpt lat="44.47857" lon="6.25249">
        <ele>1010.963623</ele>
        <time>2014-08-12T07:20:48Z</time>
      </trkpt>
      <trkpt lat="44.47858" lon="6.25209">
        <ele>1014.328125</ele>
        <time>2014-08-12T07:21:11Z</time>
      </trkpt>
      <trkpt lat="44.47838" lon="6.2517">
        <ele>1016.7314453</ele>
        <time>2014-08-12T07:21:37Z</time>
      </trkpt>
      <trkpt lat="44.47821" lon="6.25119">
        <ele>1017.2121582</ele>
        <time>2014-08-12T07:22:01Z</time>
      </trkpt>
      <trkpt lat="44.47816" lon="6.25104">
        <ele>1017.692627</ele>
        <time>2014-08-12T07:22:09Z</time>
      </trkpt>
      <trkpt lat="44.47793" lon="6.25047">
        <ele>1018.6540527</ele>
        <time>2014-08-12T07:22:32Z</time>
      </trkpt>
      <trkpt lat="44.47774" lon="6.25002">
        <ele>1020.5769043</ele>
        <time>2014-08-12T07:22:52Z</time>
      </trkpt>
      <trkpt lat="44.47762" lon="6.2496">
        <ele>1023.4609375</ele>
        <time>2014-08-12T07:23:13Z</time>
      </trkpt>
      <trkpt lat="44.47759" lon="6.24917">
        <ele>1026.3447266</ele>
        <time>2014-08-12T07:23:34Z</time>
      </trkpt>
      <trkpt lat="44.47765" lon="6.2488">
        <ele>1026.8254395</ele>
        <time>2014-08-12T07:23:51Z</time>
      </trkpt>
      <trkpt lat="44.47778" lon="6.24845">
        <ele>1026.3447266</ele>
        <time>2014-08-12T07:24:02Z</time>
      </trkpt>
      <trkpt lat="44.47778" lon="6.24836">
        <ele>1026.8254395</ele>
        <time>2014-08-12T07:24:06Z</time>
      </trkpt>
      <trkpt lat="44.47793" lon="6.24803">
        <ele>1027.7866211</ele>
        <time>2014-08-12T07:24:20Z</time>
      </trkpt>
      <trkpt lat="44.47799" lon="6.24792">
        <ele>1027.7866211</ele>
        <time>2014-08-12T07:24:26Z</time>
      </trkpt>
      <trkpt lat="44.47798" lon="6.24786">
        <ele>1028.267334</ele>
        <time>2014-08-12T07:24:47Z</time>
      </trkpt>
      <trkpt lat="44.47794" lon="6.24765">
        <ele>1029.2285156</ele>
        <time>2014-08-12T07:25:00Z</time>
      </trkpt>
      <trkpt lat="44.47789" lon="6.24764">
        <ele>1028.7480469</ele>
        <time>2014-08-12T07:25:05Z</time>
      </trkpt>
      <trkpt lat="44.47792" lon="6.24773">
        <ele>1028.7480469</ele>
        <time>2014-08-12T07:25:16Z</time>
      </trkpt>
      <trkpt lat="44.47791" lon="6.24773">
        <ele>1028.7480469</ele>
        <time>2014-08-12T07:25:48Z</time>
      </trkpt>
      <trkpt lat="44.47791" lon="6.24773">
        <ele>1028.7480469</ele>
        <time>2014-08-12T07:28:27Z</time>
      </trkpt>
      <trkpt lat="44.47791" lon="6.24772">
        <ele>1029.2285156</ele>
        <time>2014-08-12T07:29:41Z</time>
      </trkpt>
      <trkpt lat="44.47792" lon="6.24763">
        <ele>1028.7480469</ele>
        <time>2014-08-12T07:29:46Z</time>
      </trkpt>
      <trkpt lat="44.4779" lon="6.2475">
        <ele>1029.7092285</ele>
        <time>2014-08-12T07:29:52Z</time>
      </trkpt>
      <trkpt lat="44.47788" lon="6.24713">
        <ele>1032.5932617</ele>
        <time>2014-08-12T07:30:09Z</time>
      </trkpt>
      <trkpt lat="44.47788" lon="6.24687">
        <ele>1035.9577637</ele>
        <time>2014-08-12T07:30:24Z</time>
      </trkpt>
      <trkpt lat="44.47788" lon="6.24682">
        <ele>1035.4770508</ele>
        <time>2014-08-12T07:30:27Z</time>
      </trkpt>
      <trkpt lat="44.47791" lon="6.24663">
        <ele>1038.3613281</ele>
        <time>2014-08-12T07:30:38Z</time>
      </trkpt>
      <trkpt lat="44.47797" lon="6.2464">
        <ele>1040.2839355</ele>
        <time>2014-08-12T07:30:55Z</time>
      </trkpt>
      <trkpt lat="44.4781" lon="6.24613">
        <ele>1043.6484375</ele>
        <time>2014-08-12T07:31:14Z</time>
      </trkpt>
      <trkpt lat="44.47812" lon="6.24605">
        <ele>1044.6096191</ele>
        <time>2014-08-12T07:31:19Z</time>
      </trkpt>
      <trkpt lat="44.47822" lon="6.24572">
        <ele>1045.090332</ele>
        <time>2014-08-12T07:31:38Z</time>
      </trkpt>
      <trkpt lat="44.47823" lon="6.2457">
        <ele>1045.090332</ele>
        <time>2014-08-12T07:31:39Z</time>
      </trkpt>
      <trkpt lat="44.47849" lon="6.2454">
        <ele>1047.0129395</ele>
        <time>2014-08-12T07:31:56Z</time>
      </trkpt>
      <trkpt lat="44.47868" lon="6.24518">
        <ele>1050.3776855</ele>
        <time>2014-08-12T07:32:15Z</time>
      </trkpt>
      <trkpt lat="44.4788" lon="6.24504">
        <ele>1051.8195801</ele>
        <time>2014-08-12T07:32:27Z</time>
      </trkpt>
      <trkpt lat="44.47898" lon="6.24485">
        <ele>1052.300293</ele>
        <time>2014-08-12T07:32:43Z</time>
      </trkpt>
      <trkpt lat="44.47892" lon="6.24474">
        <ele>1054.7036133</ele>
        <time>2014-08-12T07:32:51Z</time>
      </trkpt>
      <trkpt lat="44.47891" lon="6.24475">
        <ele>1055.1843262</ele>
        <time>2014-08-12T07:32:52Z</time>
      </trkpt>
      <trkpt lat="44.4786" lon="6.24475">
        <ele>1055.1843262</ele>
        <time>2014-08-12T07:33:11Z</time>
      </trkpt>
      <trkpt lat="44.47852" lon="6.24467">
        <ele>1057.5876465</ele>
        <time>2014-08-12T07:33:18Z</time>
      </trkpt>
      <trkpt lat="44.47833" lon="6.24436">
        <ele>1058.5488281</ele>
        <time>2014-08-12T07:33:37Z</time>
      </trkpt>
      <trkpt lat="44.47832" lon="6.24433">
        <ele>1059.9907227</ele>
        <time>2014-08-12T07:33:39Z</time>
      </trkpt>
      <trkpt lat="44.47823" lon="6.24394">
        <ele>1063.3554688</ele>
        <time>2014-08-12T07:34:00Z</time>
      </trkpt>
      <trkpt lat="44.47823" lon="6.24388">
        <ele>1064.7973633</ele>
        <time>2014-08-12T07:34:03Z</time>
      </trkpt>
      <trkpt lat="44.4782" lon="6.24375">
        <ele>1064.3166504</ele>
        <time>2014-08-12T07:34:10Z</time>
      </trkpt>
      <trkpt lat="44.4782" lon="6.24371">
        <ele>1066.2392578</ele>
        <time>2014-08-12T07:34:12Z</time>
      </trkpt>
      <trkpt lat="44.47814" lon="6.24352">
        <ele>1064.7973633</ele>
        <time>2014-08-12T07:34:21Z</time>
      </trkpt>
      <trkpt lat="44.47812" lon="6.24349">
        <ele>1066.2392578</ele>
        <time>2014-08-12T07:34:23Z</time>
      </trkpt>
      <trkpt lat="44.47772" lon="6.24317">
        <ele>1066.7199707</ele>
        <time>2014-08-12T07:34:44Z</time>
      </trkpt>
      <trkpt lat="44.4777" lon="6.24316">
        <ele>1066.7199707</ele>
        <time>2014-08-12T07:34:45Z</time>
      </trkpt>
      <trkpt lat="44.47759" lon="6.24303">
        <ele>1067.6811523</ele>
        <time>2014-08-12T07:34:52Z</time>
      </trkpt>
      <trkpt lat="44.47748" lon="6.24275">
        <ele>1068.1621094</ele>
        <time>2014-08-12T07:35:03Z</time>
      </trkpt>
      <trkpt lat="44.47747" lon="6.2427">
        <ele>1066.7199707</ele>
        <time>2014-08-12T07:35:05Z</time>
      </trkpt>
      <trkpt lat="44.47755" lon="6.24207">
        <ele>1069.604248</ele>
        <time>2014-08-12T07:35:26Z</time>
      </trkpt>
      <trkpt lat="44.47757" lon="6.24205">
        <ele>1069.604248</ele>
        <time>2014-08-12T07:35:27Z</time>
      </trkpt>
      <trkpt lat="44.47782" lon="6.24182">
        <ele>1067.6811523</ele>
        <time>2014-08-12T07:35:40Z</time>
      </trkpt>
      <trkpt lat="44.47797" lon="6.24177">
        <ele>1070.0847168</ele>
        <time>2014-08-12T07:35:47Z</time>
      </trkpt>
      <trkpt lat="44.47818" lon="6.24167">
        <ele>1071.0461426</ele>
        <time>2014-08-12T07:35:58Z</time>
      </trkpt>
      <trkpt lat="44.47822" lon="6.24164">
        <ele>1069.604248</ele>
        <time>2014-08-12T07:36:00Z</time>
      </trkpt>
      <trkpt lat="44.47841" lon="6.24125">
        <ele>1069.604248</ele>
        <time>2014-08-12T07:36:17Z</time>
      </trkpt>
      <trkpt lat="44.47848" lon="6.24103">
        <ele>1069.604248</ele>
        <time>2014-08-12T07:36:24Z</time>
      </trkpt>
      <trkpt lat="44.47848" lon="6.24056">
        <ele>1069.604248</ele>
        <time>2014-08-12T07:36:32Z</time>
      </trkpt>
      <trkpt lat="44.47845" lon="6.23978">
        <ele>1070.5654297</ele>
        <time>2014-08-12T07:36:50Z</time>
      </trkpt>
      <trkpt lat="44.47851" lon="6.23936">
        <ele>1073.9299316</ele>
        <time>2014-08-12T07:37:09Z</time>
      </trkpt>
      <trkpt lat="44.47854" lon="6.23902">
        <ele>1074.8913574</ele>
        <time>2014-08-12T07:37:26Z</time>
      </trkpt>
      <trkpt lat="44.47861" lon="6.23889">
        <ele>1073.4494629</ele>
        <time>2014-08-12T07:37:33Z</time>
      </trkpt>
      <trkpt lat="44.47863" lon="6.23885">
        <ele>1075.3718262</ele>
        <time>2014-08-12T07:37:35Z</time>
      </trkpt>
      <trkpt lat="44.47889" lon="6.2384">
        <ele>1077.2946777</ele>
        <time>2014-08-12T07:37:57Z</time>
      </trkpt>
      <trkpt lat="44.47913" lon="6.23815">
        <ele>1078.2558594</ele>
        <time>2014-08-12T07:38:16Z</time>
      </trkpt>
      <trkpt lat="44.47941" lon="6.23829">
        <ele>1079.6977539</ele>
        <time>2014-08-12T07:38:36Z</time>
      </trkpt>
      <trkpt lat="44.47965" lon="6.23836">
        <ele>1083.0622559</ele>
        <time>2014-08-12T07:38:53Z</time>
      </trkpt>
      <trkpt lat="44.47975" lon="6.23831">
        <ele>1082.5817871</ele>
        <time>2014-08-12T07:39:06Z</time>
      </trkpt>
      <trkpt lat="44.47975" lon="6.23831">
        <ele>1082.5817871</ele>
        <time>2014-08-12T07:39:07Z</time>
      </trkpt>
      <trkpt lat="44.47981" lon="6.23818">
        <ele>1085.4658203</ele>
        <time>2014-08-12T07:39:23Z</time>
      </trkpt>
      <trkpt lat="44.4799" lon="6.2381">
        <ele>1086.9077148</ele>
        <time>2014-08-12T07:39:35Z</time>
      </trkpt>
      <trkpt lat="44.47991" lon="6.23811">
        <ele>1086.4272461</ele>
        <time>2014-08-12T07:39:37Z</time>
      </trkpt>
      <trkpt lat="44.47994" lon="6.23818">
        <ele>1088.8305664</ele>
        <time>2014-08-12T07:39:44Z</time>
      </trkpt>
      <trkpt lat="44.47991" lon="6.23835">
        <ele>1089.3110352</ele>
        <time>2014-08-12T07:39:58Z</time>
      </trkpt>
      <trkpt lat="44.4799" lon="6.23846">
        <ele>1090.7529297</ele>
        <time>2014-08-12T07:40:08Z</time>
      </trkpt>
      <trkpt lat="44.47989" lon="6.23861">
        <ele>1092.1950684</ele>
        <time>2014-08-12T07:40:19Z</time>
      </trkpt>
      <trkpt lat="44.47988" lon="6.23875">
        <ele>1093.15625</ele>
        <time>2014-08-12T07:40:30Z</time>
      </trkpt>
      <trkpt lat="44.47989" lon="6.23881">
        <ele>1094.5981445</ele>
        <time>2014-08-12T07:40:35Z</time>
      </trkpt>
      <trkpt lat="44.47988" lon="6.23884">
        <ele>1093.15625</ele>
        <time>2014-08-12T07:40:37Z</time>
      </trkpt>
      <trkpt lat="44.47988" lon="6.23887">
        <ele>1095.0788574</ele>
        <time>2014-08-12T07:40:39Z</time>
      </trkpt>
      <trkpt lat="44.47992" lon="6.23894">
        <ele>1096.0402832</ele>
        <time>2014-08-12T07:40:44Z</time>
      </trkpt>
      <trkpt lat="44.47999" lon="6.23902">
        <ele>1096.5209961</ele>
        <time>2014-08-12T07:40:54Z</time>
      </trkpt>
      <trkpt lat="44.48011" lon="6.23915">
        <ele>1097.4821777</ele>
        <time>2014-08-12T07:41:12Z</time>
      </trkpt>
      <trkpt lat="44.48025" lon="6.23929">
        <ele>1098.4433594</ele>
        <time>2014-08-12T07:41:31Z</time>
      </trkpt>
      <trkpt lat="44.48033" lon="6.23939">
        <ele>1099.4047852</ele>
        <time>2014-08-12T07:41:41Z</time>
      </trkpt>
      <trkpt lat="44.4805" lon="6.23952">
        <ele>1101.8083496</ele>
        <time>2014-08-12T07:42:03Z</time>
      </trkpt>
      <trkpt lat="44.48061" lon="6.23961">
        <ele>1104.6921387</ele>
        <time>2014-08-12T07:42:18Z</time>
      </trkpt>
      <trkpt lat="44.48075" lon="6.2397">
        <ele>1105.6535645</ele>
        <time>2014-08-12T07:42:38Z</time>
      </trkpt>
      <trkpt lat="44.4809" lon="6.23983">
        <ele>1107.5761719</ele>
        <time>2014-08-12T07:42:57Z</time>
      </trkpt>
      <trkpt lat="44.48094" lon="6.23985">
        <ele>1107.095459</ele>
        <time>2014-08-12T07:43:15Z</time>
      </trkpt>
      <trkpt lat="44.48094" lon="6.23984">
        <ele>1108.5373535</ele>
        <time>2014-08-12T07:43:17Z</time>
      </trkpt>
      <trkpt lat="44.48095" lon="6.23984">
        <ele>1109.979248</ele>
        <time>2014-08-12T07:44:11Z</time>
      </trkpt>
      <trkpt lat="44.48094" lon="6.2396">
        <ele>1112.3825684</ele>
        <time>2014-08-12T07:44:28Z</time>
      </trkpt>
      <trkpt lat="44.48087" lon="6.23956">
        <ele>1112.8632813</ele>
        <time>2014-08-12T07:44:33Z</time>
      </trkpt>
      <trkpt lat="44.48086" lon="6.23954">
        <ele>1113.3439941</ele>
        <time>2014-08-12T07:44:35Z</time>
      </trkpt>
      <trkpt lat="44.48083" lon="6.23947">
        <ele>1114.7858887</ele>
        <time>2014-08-12T07:44:41Z</time>
      </trkpt>
      <trkpt lat="44.48081" lon="6.23946">
        <ele>1115.2666016</ele>
        <time>2014-08-12T07:44:43Z</time>
      </trkpt>
      <trkpt lat="44.48069" lon="6.23928">
        <ele>1117.6699219</ele>
        <time>2014-08-12T07:44:58Z</time>
      </trkpt>
      <trkpt lat="44.48063" lon="6.23903">
        <ele>1121.034668</ele>
        <time>2014-08-12T07:45:13Z</time>
      </trkpt>
      <trkpt lat="44.48061" lon="6.239">
        <ele>1121.034668</ele>
        <time>2014-08-12T07:45:15Z</time>
      </trkpt>
      <trkpt lat="44.4807" lon="6.23894">
        <ele>1123.4379883</ele>
        <time>2014-08-12T07:45:31Z</time>
      </trkpt>
      <trkpt lat="44.48076" lon="6.239">
        <ele>1123.918457</ele>
        <time>2014-08-12T07:45:37Z</time>
      </trkpt>
      <trkpt lat="44.48093" lon="6.23909">
        <ele>1126.8024902</ele>
        <time>2014-08-12T07:45:54Z</time>
      </trkpt>
      <trkpt lat="44.48097" lon="6.23912">
        <ele>1127.2832031</ele>
        <time>2014-08-12T07:45:57Z</time>
      </trkpt>
      <trkpt lat="44.48114" lon="6.23929">
        <ele>1130.1669922</ele>
        <time>2014-08-12T07:46:16Z</time>
      </trkpt>
      <trkpt lat="44.48131" lon="6.23951">
        <ele>1133.5317383</ele>
        <time>2014-08-12T07:46:38Z</time>
      </trkpt>
      <trkpt lat="44.48134" lon="6.23957">
        <ele>1134.0124512</ele>
        <time>2014-08-12T07:46:43Z</time>
      </trkpt>
      <trkpt lat="44.48139" lon="6.23965">
        <ele>1134.973877</ele>
        <time>2014-08-12T07:46:48Z</time>
      </trkpt>
      <trkpt lat="44.48145" lon="6.23977">
        <ele>1134.973877</ele>
        <time>2014-08-12T07:46:57Z</time>
      </trkpt>
      <trkpt lat="44.48153" lon="6.23999">
        <ele>1137.3769531</ele>
        <time>2014-08-12T07:47:15Z</time>
      </trkpt>
      <trkpt lat="44.48165" lon="6.24032">
        <ele>1139.7802734</ele>
        <time>2014-08-12T07:47:35Z</time>
      </trkpt>
      <trkpt lat="44.4817" lon="6.24061">
        <ele>1142.6643066</ele>
        <time>2014-08-12T07:47:51Z</time>
      </trkpt>
      <trkpt lat="44.48182" lon="6.24095">
        <ele>1146.5095215</ele>
        <time>2014-08-12T07:48:12Z</time>
      </trkpt>
      <trkpt lat="44.48185" lon="6.24108">
        <ele>1147.4707031</ele>
        <time>2014-08-12T07:48:21Z</time>
      </trkpt>
      <trkpt lat="44.48197" lon="6.24135">
        <ele>1150.8354492</ele>
        <time>2014-08-12T07:48:40Z</time>
      </trkpt>
      <trkpt lat="44.48222" lon="6.24153">
        <ele>1152.7580566</ele>
        <time>2014-08-12T07:49:04Z</time>
      </trkpt>
      <trkpt lat="44.48244" lon="6.24184">
        <ele>1155.6420898</ele>
        <time>2014-08-12T07:49:28Z</time>
      </trkpt>
      <trkpt lat="44.48262" lon="6.24232">
        <ele>1158.5258789</ele>
        <time>2014-08-12T07:49:55Z</time>
      </trkpt>
      <trkpt lat="44.48282" lon="6.24254">
        <ele>1160.9291992</ele>
        <time>2014-08-12T07:50:16Z</time>
      </trkpt>
      <trkpt lat="44.48317" lon="6.2427">
        <ele>1163.8129883</ele>
        <time>2014-08-12T07:50:42Z</time>
      </trkpt>
      <trkpt lat="44.48328" lon="6.24291">
        <ele>1165.2553711</ele>
        <time>2014-08-12T07:50:58Z</time>
      </trkpt>
      <trkpt lat="44.48335" lon="6.24316">
        <ele>1166.6972656</ele>
        <time>2014-08-12T07:51:13Z</time>
      </trkpt>
      <trkpt lat="44.4834" lon="6.24319">
        <ele>1167.6584473</ele>
        <time>2014-08-12T07:51:16Z</time>
      </trkpt>
      <trkpt lat="44.48346" lon="6.24308">
        <ele>1169.1005859</ele>
        <time>2014-08-12T07:51:28Z</time>
      </trkpt>
      <trkpt lat="44.48348" lon="6.243">
        <ele>1170.0617676</ele>
        <time>2014-08-12T07:51:37Z</time>
      </trkpt>
      <trkpt lat="44.48346" lon="6.24249">
        <ele>1171.5036621</ele>
        <time>2014-08-12T07:51:57Z</time>
      </trkpt>
      <trkpt lat="44.48344" lon="6.24244">
        <ele>1171.5036621</ele>
        <time>2014-08-12T07:51:59Z</time>
      </trkpt>
      <trkpt lat="44.48367" lon="6.2423">
        <ele>1173.4265137</ele>
        <time>2014-08-12T07:52:16Z</time>
      </trkpt>
      <trkpt lat="44.48379" lon="6.24235">
        <ele>1174.3876953</ele>
        <time>2014-08-12T07:52:24Z</time>
      </trkpt>
      <trkpt lat="44.48379" lon="6.24237">
        <ele>1174.3876953</ele>
        <time>2014-08-12T07:52:26Z</time>
      </trkpt>
      <trkpt lat="44.48398" lon="6.24244">
        <ele>1176.7910156</ele>
        <time>2014-08-12T07:52:39Z</time>
      </trkpt>
      <trkpt lat="44.48415" lon="6.24263">
        <ele>1177.7521973</ele>
        <time>2014-08-12T07:52:52Z</time>
      </trkpt>
      <trkpt lat="44.48444" lon="6.24287">
        <ele>1177.7521973</ele>
        <time>2014-08-12T07:53:05Z</time>
      </trkpt>
      <trkpt lat="44.4845" lon="6.24325">
        <ele>1179.1940918</ele>
        <time>2014-08-12T07:53:18Z</time>
      </trkpt>
      <trkpt lat="44.48464" lon="6.24351">
        <ele>1178.713623</ele>
        <time>2014-08-12T07:53:25Z</time>
      </trkpt>
      <trkpt lat="44.48488" lon="6.24362">
        <ele>1177.7521973</ele>
        <time>2014-08-12T07:53:32Z</time>
      </trkpt>
      <trkpt lat="44.48505" lon="6.24365">
        <ele>1176.7910156</ele>
        <time>2014-08-12T07:53:36Z</time>
      </trkpt>
      <trkpt lat="44.48525" lon="6.24355">
        <ele>1176.7910156</ele>
        <time>2014-08-12T07:53:42Z</time>
      </trkpt>
      <trkpt lat="44.4855" lon="6.24337">
        <ele>1177.7521973</ele>
        <time>2014-08-12T07:53:54Z</time>
      </trkpt>
      <trkpt lat="44.48569" lon="6.24349">
        <ele>1179.6748047</ele>
        <time>2014-08-12T07:54:05Z</time>
      </trkpt>
      <trkpt lat="44.48596" lon="6.24318">
        <ele>1181.1171875</ele>
        <time>2014-08-12T07:54:20Z</time>
      </trkpt>
      <trkpt lat="44.48604" lon="6.24312">
        <ele>1182.559082</ele>
        <time>2014-08-12T07:54:26Z</time>
      </trkpt>
      <trkpt lat="44.48618" lon="6.24312">
        <ele>1183.5202637</ele>
        <time>2014-08-12T07:54:32Z</time>
      </trkpt>
      <trkpt lat="44.48644" lon="6.24331">
        <ele>1184.4816895</ele>
        <time>2014-08-12T07:54:48Z</time>
      </trkpt>
      <trkpt lat="44.48648" lon="6.24337">
        <ele>1185.4428711</ele>
        <time>2014-08-12T07:54:52Z</time>
      </trkpt>
      <trkpt lat="44.48668" lon="6.24356">
        <ele>1187.3654785</ele>
        <time>2014-08-12T07:55:11Z</time>
      </trkpt>
      <trkpt lat="44.48689" lon="6.24367">
        <ele>1189.2880859</ele>
        <time>2014-08-12T07:55:24Z</time>
      </trkpt>
      <trkpt lat="44.4871" lon="6.24385">
        <ele>1192.1721191</ele>
        <time>2014-08-12T07:55:39Z</time>
      </trkpt>
      <trkpt lat="44.4871" lon="6.24387">
        <ele>1192.1721191</ele>
        <time>2014-08-12T07:55:40Z</time>
      </trkpt>
      <trkpt lat="44.48718" lon="6.24397">
        <ele>1193.6140137</ele>
        <time>2014-08-12T07:55:48Z</time>
      </trkpt>
      <trkpt lat="44.48732" lon="6.24409">
        <ele>1196.0175781</ele>
        <time>2014-08-12T07:56:01Z</time>
      </trkpt>
      <trkpt lat="44.48743" lon="6.24426">
        <ele>1197.4594727</ele>
        <time>2014-08-12T07:56:14Z</time>
      </trkpt>
      <trkpt lat="44.48755" lon="6.24441">
        <ele>1200.3435059</ele>
        <time>2014-08-12T07:56:31Z</time>
      </trkpt>
      <trkpt lat="44.48758" lon="6.24448">
        <ele>1201.7854004</ele>
        <time>2014-08-12T07:56:41Z</time>
      </trkpt>
      <trkpt lat="44.48767" lon="6.24461">
        <ele>1202.2658691</ele>
        <time>2014-08-12T07:56:45Z</time>
      </trkpt>
      <trkpt lat="44.48781" lon="6.24482">
        <ele>1204.1887207</ele>
        <time>2014-08-12T07:56:57Z</time>
      </trkpt>
      <trkpt lat="44.48791" lon="6.24488">
        <ele>1205.6306152</ele>
        <time>2014-08-12T07:57:03Z</time>
      </trkpt>
      <trkpt lat="44.48795" lon="6.24494">
        <ele>1206.5917969</ele>
        <time>2014-08-12T07:57:10Z</time>
      </trkpt>
      <trkpt lat="44.48805" lon="6.24515">
        <ele>1208.0339355</ele>
        <time>2014-08-12T07:57:25Z</time>
      </trkpt>
      <trkpt lat="44.48827" lon="6.24537">
        <ele>1208.5144043</ele>
        <time>2014-08-12T07:57:38Z</time>
      </trkpt>
      <trkpt lat="44.48857" lon="6.24573">
        <ele>1207.5532227</ele>
        <time>2014-08-12T07:57:50Z</time>
      </trkpt>
      <trkpt lat="44.48858" lon="6.24577">
        <ele>1208.0339355</ele>
        <time>2014-08-12T07:57:52Z</time>
      </trkpt>
      <trkpt lat="44.48861" lon="6.24584">
        <ele>1208.5144043</ele>
        <time>2014-08-12T07:57:56Z</time>
      </trkpt>
      <trkpt lat="44.48866" lon="6.24593">
        <ele>1208.9951172</ele>
        <time>2014-08-12T07:58:01Z</time>
      </trkpt>
      <trkpt lat="44.48894" lon="6.24619">
        <ele>1211.8791504</ele>
        <time>2014-08-12T07:58:17Z</time>
      </trkpt>
      <trkpt lat="44.48902" lon="6.24625">
        <ele>1212.8405762</ele>
        <time>2014-08-12T07:58:24Z</time>
      </trkpt>
      <trkpt lat="44.48919" lon="6.24642">
        <ele>1215.7246094</ele>
        <time>2014-08-12T07:58:40Z</time>
      </trkpt>
      <trkpt lat="44.48925" lon="6.24654">
        <ele>1217.6469727</ele>
        <time>2014-08-12T07:58:48Z</time>
      </trkpt>
      <trkpt lat="44.48953" lon="6.24672">
        <ele>1218.6083984</ele>
        <time>2014-08-12T07:59:04Z</time>
      </trkpt>
      <trkpt lat="44.48976" lon="6.24685">
        <ele>1220.050293</ele>
        <time>2014-08-12T07:59:18Z</time>
      </trkpt>
      <trkpt lat="44.48995" lon="6.24703">
        <ele>1222.9343262</ele>
        <time>2014-08-12T07:59:34Z</time>
      </trkpt>
      <trkpt lat="44.49011" lon="6.24717">
        <ele>1225.3374023</ele>
        <time>2014-08-12T07:59:47Z</time>
      </trkpt>
      <trkpt lat="44.4902" lon="6.24726">
        <ele>1225.3374023</ele>
        <time>2014-08-12T07:59:53Z</time>
      </trkpt>
      <trkpt lat="44.49052" lon="6.2474">
        <ele>1226.2988281</ele>
        <time>2014-08-12T08:00:09Z</time>
      </trkpt>
      <trkpt lat="44.49089" lon="6.24781">
        <ele>1223.8955078</ele>
        <time>2014-08-12T08:00:20Z</time>
      </trkpt>
      <trkpt lat="44.49095" lon="6.24794">
        <ele>1223.8955078</ele>
        <time>2014-08-12T08:00:24Z</time>
      </trkpt>
      <trkpt lat="44.49097" lon="6.248">
        <ele>1223.8955078</ele>
        <time>2014-08-12T08:00:27Z</time>
      </trkpt>
      <trkpt lat="44.49096" lon="6.24813">
        <ele>1224.3762207</ele>
        <time>2014-08-12T08:00:32Z</time>
      </trkpt>
      <trkpt lat="44.49109" lon="6.24869">
        <ele>1223.8955078</ele>
        <time>2014-08-12T08:00:47Z</time>
      </trkpt>
      <trkpt lat="44.49122" lon="6.2493">
        <ele>1222.4536133</ele>
        <time>2014-08-12T08:00:57Z</time>
      </trkpt>
      <trkpt lat="44.49134" lon="6.2497">
        <ele>1222.4536133</ele>
        <time>2014-08-12T08:01:05Z</time>
      </trkpt>
      <trkpt lat="44.4914" lon="6.24983">
        <ele>1222.9343262</ele>
        <time>2014-08-12T08:01:09Z</time>
      </trkpt>
      <trkpt lat="44.49141" lon="6.25062">
        <ele>1222.4536133</ele>
        <time>2014-08-12T08:01:24Z</time>
      </trkpt>
      <trkpt lat="44.49118" lon="6.25118">
        <ele>1222.9343262</ele>
        <time>2014-08-12T08:01:39Z</time>
      </trkpt>
      <trkpt lat="44.49114" lon="6.25128">
        <ele>1223.4150391</ele>
        <time>2014-08-12T08:01:43Z</time>
      </trkpt>
      <trkpt lat="44.49107" lon="6.25149">
        <ele>1224.3762207</ele>
        <time>2014-08-12T08:01:50Z</time>
      </trkpt>
      <trkpt lat="44.49105" lon="6.25155">
        <ele>1224.3762207</ele>
        <time>2014-08-12T08:01:52Z</time>
      </trkpt>
      <trkpt lat="44.49099" lon="6.25164">
        <ele>1224.8569336</ele>
        <time>2014-08-12T08:01:56Z</time>
      </trkpt>
      <trkpt lat="44.49097" lon="6.25169">
        <ele>1225.3374023</ele>
        <time>2014-08-12T08:01:58Z</time>
      </trkpt>
      <trkpt lat="44.4909" lon="6.25182">
        <ele>1225.8181152</ele>
        <time>2014-08-12T08:02:03Z</time>
      </trkpt>
      <trkpt lat="44.49079" lon="6.25194">
        <ele>1226.2988281</ele>
        <time>2014-08-12T08:02:09Z</time>
      </trkpt>
      <trkpt lat="44.49071" lon="6.252">
        <ele>1226.779541</ele>
        <time>2014-08-12T08:02:13Z</time>
      </trkpt>
      <trkpt lat="44.49063" lon="6.25213">
        <ele>1227.7407227</ele>
        <time>2014-08-12T08:02:20Z</time>
      </trkpt>
      <trkpt lat="44.49057" lon="6.25231">
        <ele>1229.1828613</ele>
        <time>2014-08-12T08:02:29Z</time>
      </trkpt>
      <trkpt lat="44.49057" lon="6.25243">
        <ele>1230.1442871</ele>
        <time>2014-08-12T08:02:34Z</time>
      </trkpt>
      <trkpt lat="44.49062" lon="6.25264">
        <ele>1230.1442871</ele>
        <time>2014-08-12T08:02:43Z</time>
      </trkpt>
      <trkpt lat="44.4907" lon="6.2528">
        <ele>1230.625</ele>
        <time>2014-08-12T08:02:52Z</time>
      </trkpt>
      <trkpt lat="44.49074" lon="6.25292">
        <ele>1232.0668945</ele>
        <time>2014-08-12T08:02:58Z</time>
      </trkpt>
      <trkpt lat="44.4909" lon="6.25321">
        <ele>1233.5087891</ele>
        <time>2014-08-12T08:03:07Z</time>
      </trkpt>
      <trkpt lat="44.49094" lon="6.25329">
        <ele>1233.989502</ele>
        <time>2014-08-12T08:03:10Z</time>
      </trkpt>
      <trkpt lat="44.49097" lon="6.25342">
        <ele>1234.9509277</ele>
        <time>2014-08-12T08:03:16Z</time>
      </trkpt>
      <trkpt lat="44.49103" lon="6.25362">
        <ele>1236.3928223</ele>
        <time>2014-08-12T08:03:25Z</time>
      </trkpt>
      <trkpt lat="44.49105" lon="6.25365">
        <ele>1236.3928223</ele>
        <time>2014-08-12T08:03:26Z</time>
      </trkpt>
      <trkpt lat="44.49128" lon="6.25379">
        <ele>1238.3154297</ele>
        <time>2014-08-12T08:03:40Z</time>
      </trkpt>
      <trkpt lat="44.49165" lon="6.25401">
        <ele>1237.8347168</ele>
        <time>2014-08-12T08:03:57Z</time>
      </trkpt>
      <trkpt lat="44.49201" lon="6.25383">
        <ele>1236.873291</ele>
        <time>2014-08-12T08:04:08Z</time>
      </trkpt>
      <trkpt lat="44.49221" lon="6.25364">
        <ele>1236.873291</ele>
        <time>2014-08-12T08:04:22Z</time>
      </trkpt>
      <trkpt lat="44.49249" lon="6.25339">
        <ele>1237.3540039</ele>
        <time>2014-08-12T08:04:36Z</time>
      </trkpt>
      <trkpt lat="44.49255" lon="6.25329">
        <ele>1236.873291</ele>
        <time>2014-08-12T08:04:40Z</time>
      </trkpt>
      <trkpt lat="44.49282" lon="6.25279">
        <ele>1238.3154297</ele>
        <time>2014-08-12T08:05:00Z</time>
      </trkpt>
      <trkpt lat="44.49317" lon="6.25247">
        <ele>1239.7573242</ele>
        <time>2014-08-12T08:05:19Z</time>
      </trkpt>
      <trkpt lat="44.49343" lon="6.25212">
        <ele>1241.6799316</ele>
        <time>2014-08-12T08:05:37Z</time>
      </trkpt>
      <trkpt lat="44.49356" lon="6.2518">
        <ele>1244.5639648</ele>
        <time>2014-08-12T08:05:54Z</time>
      </trkpt>
      <trkpt lat="44.49368" lon="6.25165">
        <ele>1247.447998</ele>
        <time>2014-08-12T08:06:08Z</time>
      </trkpt>
      <trkpt lat="44.49382" lon="6.25144">
        <ele>1250.8125</ele>
        <time>2014-08-12T08:06:25Z</time>
      </trkpt>
      <trkpt lat="44.49386" lon="6.25138">
        <ele>1251.2932129</ele>
        <time>2014-08-12T08:06:30Z</time>
      </trkpt>
      <trkpt lat="44.49411" lon="6.25139">
        <ele>1254.6577148</ele>
        <time>2014-08-12T08:06:51Z</time>
      </trkpt>
      <trkpt lat="44.49435" lon="6.25149">
        <ele>1258.0224609</ele>
        <time>2014-08-12T08:07:09Z</time>
      </trkpt>
      <trkpt lat="44.49457" lon="6.2515">
        <ele>1258.0224609</ele>
        <time>2014-08-12T08:07:28Z</time>
      </trkpt>
      <trkpt lat="44.49458" lon="6.2515">
        <ele>1257.541748</ele>
        <time>2014-08-12T08:07:52Z</time>
      </trkpt>
      <trkpt lat="44.49457" lon="6.2515">
        <ele>1258.0224609</ele>
        <time>2014-08-12T08:08:20Z</time>
      </trkpt>
      <trkpt lat="44.49455" lon="6.25159">
        <ele>1259.9448242</ele>
        <time>2014-08-12T08:08:40Z</time>
      </trkpt>
      <trkpt lat="44.49452" lon="6.2517">
        <ele>1261.387207</ele>
        <time>2014-08-12T08:08:54Z</time>
      </trkpt>
      <trkpt lat="44.49447" lon="6.25183">
        <ele>1263.7902832</ele>
        <time>2014-08-12T08:09:14Z</time>
      </trkpt>
      <trkpt lat="44.4944" lon="6.25195">
        <ele>1266.1936035</ele>
        <time>2014-08-12T08:09:34Z</time>
      </trkpt>
      <trkpt lat="44.49437" lon="6.25208">
        <ele>1268.5969238</ele>
        <time>2014-08-12T08:09:51Z</time>
      </trkpt>
      <trkpt lat="44.49431" lon="6.25222">
        <ele>1271.0002441</ele>
        <time>2014-08-12T08:10:11Z</time>
      </trkpt>
      <trkpt lat="44.49429" lon="6.25237">
        <ele>1273.4035645</ele>
        <time>2014-08-12T08:10:31Z</time>
      </trkpt>
      <trkpt lat="44.49431" lon="6.25254">
        <ele>1275.8066406</ele>
        <time>2014-08-12T08:10:49Z</time>
      </trkpt>
      <trkpt lat="44.49434" lon="6.25276">
        <ele>1278.690918</ele>
        <time>2014-08-12T08:11:09Z</time>
      </trkpt>
      <trkpt lat="44.49436" lon="6.25296">
        <ele>1280.1328125</ele>
        <time>2014-08-12T08:11:29Z</time>
      </trkpt>
      <trkpt lat="44.49436" lon="6.25315">
        <ele>1282.0554199</ele>
        <time>2014-08-12T08:11:50Z</time>
      </trkpt>
      <trkpt lat="44.49433" lon="6.25325">
        <ele>1285.4199219</ele>
        <time>2014-08-12T08:12:13Z</time>
      </trkpt>
      <trkpt lat="44.49431" lon="6.25344">
        <ele>1286.8618164</ele>
        <time>2014-08-12T08:12:37Z</time>
      </trkpt>
      <trkpt lat="44.49424" lon="6.25371">
        <ele>1290.2265625</ele>
        <time>2014-08-12T08:12:57Z</time>
      </trkpt>
      <trkpt lat="44.49419" lon="6.25386">
        <ele>1292.1494141</ele>
        <time>2014-08-12T08:13:14Z</time>
      </trkpt>
      <trkpt lat="44.49417" lon="6.25403">
        <ele>1294.0720215</ele>
        <time>2014-08-12T08:13:32Z</time>
      </trkpt>
      <trkpt lat="44.49413" lon="6.2542">
        <ele>1295.513916</ele>
        <time>2014-08-12T08:13:51Z</time>
      </trkpt>
      <trkpt lat="44.49409" lon="6.25434">
        <ele>1296.9558105</ele>
        <time>2014-08-12T08:14:04Z</time>
      </trkpt>
      <trkpt lat="44.49407" lon="6.25453">
        <ele>1297.9172363</ele>
        <time>2014-08-12T08:14:22Z</time>
      </trkpt>
      <trkpt lat="44.494" lon="6.25479">
        <ele>1300.3205566</ele>
        <time>2014-08-12T08:14:44Z</time>
      </trkpt>
      <trkpt lat="44.49406" lon="6.25498">
        <ele>1302.7236328</ele>
        <time>2014-08-12T08:15:04Z</time>
      </trkpt>
      <trkpt lat="44.49417" lon="6.2551">
        <ele>1305.607666</ele>
        <time>2014-08-12T08:15:24Z</time>
      </trkpt>
      <trkpt lat="44.49425" lon="6.25516">
        <ele>1307.0495605</ele>
        <time>2014-08-12T08:15:42Z</time>
      </trkpt>
      <trkpt lat="44.49435" lon="6.2553">
        <ele>1310.4143066</ele>
        <time>2014-08-12T08:16:02Z</time>
      </trkpt>
      <trkpt lat="44.49452" lon="6.25551">
        <ele>1312.817627</ele>
        <time>2014-08-12T08:16:26Z</time>
      </trkpt>
      <trkpt lat="44.49463" lon="6.25572">
        <ele>1314.7402344</ele>
        <time>2014-08-12T08:16:48Z</time>
      </trkpt>
      <trkpt lat="44.49469" lon="6.25586">
        <ele>1314.7402344</ele>
        <time>2014-08-12T08:17:22Z</time>
      </trkpt>
      <trkpt lat="44.4947" lon="6.25589">
        <ele>1314.7402344</ele>
        <time>2014-08-12T08:18:01Z</time>
      </trkpt>
      <trkpt lat="44.49473" lon="6.25597">
        <ele>1315.2209473</ele>
        <time>2014-08-12T08:18:33Z</time>
      </trkpt>
      <trkpt lat="44.49475" lon="6.25605">
        <ele>1316.1821289</ele>
        <time>2014-08-12T08:18:40Z</time>
      </trkpt>
      <trkpt lat="44.49487" lon="6.25613">
        <ele>1318.5854492</ele>
        <time>2014-08-12T08:18:49Z</time>
      </trkpt>
      <trkpt lat="44.49495" lon="6.25618">
        <ele>1318.5854492</ele>
        <time>2014-08-12T08:18:53Z</time>
      </trkpt>
      <trkpt lat="44.4952" lon="6.25644">
        <ele>1320.5080566</ele>
        <time>2014-08-12T08:19:15Z</time>
      </trkpt>
      <trkpt lat="44.49537" lon="6.25664">
        <ele>1320.9887695</ele>
        <time>2014-08-12T08:19:28Z</time>
      </trkpt>
      <trkpt lat="44.49554" lon="6.25684">
        <ele>1321.9499512</ele>
        <time>2014-08-12T08:19:43Z</time>
      </trkpt>
      <trkpt lat="44.4957" lon="6.25703">
        <ele>1325.3146973</ele>
        <time>2014-08-12T08:20:03Z</time>
      </trkpt>
      <trkpt lat="44.49595" lon="6.25736">
        <ele>1327.2375488</ele>
        <time>2014-08-12T08:20:21Z</time>
      </trkpt>
      <trkpt lat="44.49613" lon="6.25749">
        <ele>1327.2375488</ele>
        <time>2014-08-12T08:20:33Z</time>
      </trkpt>
      <trkpt lat="44.49637" lon="6.25768">
        <ele>1324.3535156</ele>
        <time>2014-08-12T08:20:42Z</time>
      </trkpt>
      <trkpt lat="44.49648" lon="6.25787">
        <ele>1322.4306641</ele>
        <time>2014-08-12T08:20:54Z</time>
      </trkpt>
      <trkpt lat="44.49656" lon="6.25803">
        <ele>1320.0273438</ele>
        <time>2014-08-12T08:21:04Z</time>
      </trkpt>
      <trkpt lat="44.4967" lon="6.25815">
        <ele>1319.546875</ele>
        <time>2014-08-12T08:21:09Z</time>
      </trkpt>
      <trkpt lat="44.49674" lon="6.25821">
        <ele>1319.0661621</ele>
        <time>2014-08-12T08:21:12Z</time>
      </trkpt>
      <trkpt lat="44.49678" lon="6.25832">
        <ele>1319.0661621</ele>
        <time>2014-08-12T08:21:19Z</time>
      </trkpt>
      <trkpt lat="44.49682" lon="6.25838">
        <ele>1318.5854492</ele>
        <time>2014-08-12T08:21:21Z</time>
      </trkpt>
      <trkpt lat="44.49705" lon="6.25875">
        <ele>1318.5854492</ele>
        <time>2014-08-12T08:21:35Z</time>
      </trkpt>
      <trkpt lat="44.49716" lon="6.25903">
        <ele>1317.1435547</ele>
        <time>2014-08-12T08:21:48Z</time>
      </trkpt>
      <trkpt lat="44.49731" lon="6.25927">
        <ele>1316.1821289</ele>
        <time>2014-08-12T08:21:55Z</time>
      </trkpt>
      <trkpt lat="44.49735" lon="6.25943">
        <ele>1316.1821289</ele>
        <time>2014-08-12T08:22:00Z</time>
      </trkpt>
      <trkpt lat="44.49834" lon="6.2605">
        <ele>1314.7402344</ele>
        <time>2014-08-12T08:22:11Z</time>
      </trkpt>
      <trkpt lat="44.49841" lon="6.26093">
        <ele>1315.2209473</ele>
        <time>2014-08-12T08:22:19Z</time>
      </trkpt>
      <trkpt lat="44.49866" lon="6.26162">
        <ele>1311.8564453</ele>
        <time>2014-08-12T08:22:31Z</time>
      </trkpt>
      <trkpt lat="44.4988" lon="6.26192">
        <ele>1309.453125</ele>
        <time>2014-08-12T08:22:37Z</time>
      </trkpt>
      <trkpt lat="44.49879" lon="6.262">
        <ele>1308.0112305</ele>
        <time>2014-08-12T08:22:41Z</time>
      </trkpt>
      <trkpt lat="44.49877" lon="6.26205">
        <ele>1306.0881348</ele>
        <time>2014-08-12T08:22:50Z</time>
      </trkpt>
      <trkpt lat="44.49884" lon="6.26211">
        <ele>1306.0881348</ele>
        <time>2014-08-12T08:23:11Z</time>
      </trkpt>
      <trkpt lat="44.49896" lon="6.26213">
        <ele>1306.0881348</ele>
        <time>2014-08-12T08:23:15Z</time>
      </trkpt>
      <trkpt lat="44.49928" lon="6.26221">
        <ele>1306.5688477</ele>
        <time>2014-08-12T08:23:26Z</time>
      </trkpt>
      <trkpt lat="44.49932" lon="6.26203">
        <ele>1309.453125</ele>
        <time>2014-08-12T08:23:40Z</time>
      </trkpt>
      <trkpt lat="44.4998" lon="6.26221">
        <ele>1310.8950195</ele>
        <time>2014-08-12T08:23:58Z</time>
      </trkpt>
      <trkpt lat="44.50008" lon="6.26231">
        <ele>1309.9335938</ele>
        <time>2014-08-12T08:24:10Z</time>
      </trkpt>
      <trkpt lat="44.50043" lon="6.26232">
        <ele>1307.0495605</ele>
        <time>2014-08-12T08:24:22Z</time>
      </trkpt>
      <trkpt lat="44.50053" lon="6.26231">
        <ele>1306.0881348</ele>
        <time>2014-08-12T08:24:25Z</time>
      </trkpt>
      <trkpt lat="44.50092" lon="6.2621">
        <ele>1304.1657715</ele>
        <time>2014-08-12T08:24:37Z</time>
      </trkpt>
      <trkpt lat="44.50099" lon="6.26203">
        <ele>1304.6462402</ele>
        <time>2014-08-12T08:24:41Z</time>
      </trkpt>
      <trkpt lat="44.5012" lon="6.26172">
        <ele>1306.5688477</ele>
        <time>2014-08-12T08:24:54Z</time>
      </trkpt>
      <trkpt lat="44.50139" lon="6.26139">
        <ele>1308.9724121</ele>
        <time>2014-08-12T08:25:09Z</time>
      </trkpt>
      <trkpt lat="44.50151" lon="6.26111">
        <ele>1312.3369141</ele>
        <time>2014-08-12T08:25:21Z</time>
      </trkpt>
      <trkpt lat="44.50163" lon="6.26065">
        <ele>1314.2595215</ele>
        <time>2014-08-12T08:25:40Z</time>
      </trkpt>
      <trkpt lat="44.50171" lon="6.26022">
        <ele>1314.2595215</ele>
        <time>2014-08-12T08:25:54Z</time>
      </trkpt>
      <trkpt lat="44.50178" lon="6.25972">
        <ele>1313.7788086</ele>
        <time>2014-08-12T08:26:09Z</time>
      </trkpt>
      <trkpt lat="44.50183" lon="6.25938">
        <ele>1312.817627</ele>
        <time>2014-08-12T08:26:18Z</time>
      </trkpt>
      <trkpt lat="44.502" lon="6.25921">
        <ele>1311.8564453</ele>
        <time>2014-08-12T08:26:26Z</time>
      </trkpt>
      <trkpt lat="44.50208" lon="6.25904">
        <ele>1311.3757324</ele>
        <time>2014-08-12T08:26:31Z</time>
      </trkpt>
      <trkpt lat="44.5023" lon="6.25873">
        <ele>1309.453125</ele>
        <time>2014-08-12T08:26:44Z</time>
      </trkpt>
      <trkpt lat="44.5024" lon="6.25866">
        <ele>1308.0112305</ele>
        <time>2014-08-12T08:26:48Z</time>
      </trkpt>
      <trkpt lat="44.50244" lon="6.25844">
        <ele>1308.0112305</ele>
        <time>2014-08-12T08:26:55Z</time>
      </trkpt>
      <trkpt lat="44.5024" lon="6.25836">
        <ele>1307.5302734</ele>
        <time>2014-08-12T08:26:58Z</time>
      </trkpt>
      <trkpt lat="44.5024" lon="6.25824">
        <ele>1307.0495605</ele>
        <time>2014-08-12T08:27:03Z</time>
      </trkpt>
      <trkpt lat="44.50238" lon="6.25784">
        <ele>1307.0495605</ele>
        <time>2014-08-12T08:27:16Z</time>
      </trkpt>
      <trkpt lat="44.50229" lon="6.25761">
        <ele>1305.607666</ele>
        <time>2014-08-12T08:27:23Z</time>
      </trkpt>
      <trkpt lat="44.50207" lon="6.2572">
        <ele>1304.1657715</ele>
        <time>2014-08-12T08:27:37Z</time>
      </trkpt>
      <trkpt lat="44.50207" lon="6.2568">
        <ele>1302.2429199</ele>
        <time>2014-08-12T08:27:52Z</time>
      </trkpt>
      <trkpt lat="44.50224" lon="6.25661">
        <ele>1301.7624512</ele>
        <time>2014-08-12T08:28:25Z</time>
      </trkpt>
      <trkpt lat="44.50252" lon="6.25631">
        <ele>1301.2817383</ele>
        <time>2014-08-12T08:28:39Z</time>
      </trkpt>
      <trkpt lat="44.50262" lon="6.25608">
        <ele>1299.8398438</ele>
        <time>2014-08-12T08:28:51Z</time>
      </trkpt>
      <trkpt lat="44.50261" lon="6.25608">
        <ele>1299.8398438</ele>
        <time>2014-08-12T08:29:21Z</time>
      </trkpt>
      <trkpt lat="44.50268" lon="6.25579">
        <ele>1298.3977051</ele>
        <time>2014-08-12T08:29:34Z</time>
      </trkpt>
      <trkpt lat="44.50275" lon="6.25572">
        <ele>1297.9172363</ele>
        <time>2014-08-12T08:29:38Z</time>
      </trkpt>
      <trkpt lat="44.50267" lon="6.25554">
        <ele>1297.9172363</ele>
        <time>2014-08-12T08:29:46Z</time>
      </trkpt>
      <trkpt lat="44.50254" lon="6.25526">
        <ele>1296.4753418</ele>
        <time>2014-08-12T08:29:56Z</time>
      </trkpt>
      <trkpt lat="44.5025" lon="6.25516">
        <ele>1295.9946289</ele>
        <time>2014-08-12T08:30:02Z</time>
      </trkpt>
      <trkpt lat="44.50247" lon="6.25514">
        <ele>1295.9946289</ele>
        <time>2014-08-12T08:30:04Z</time>
      </trkpt>
      <trkpt lat="44.50228" lon="6.25493">
        <ele>1295.0332031</ele>
        <time>2014-08-12T08:30:12Z</time>
      </trkpt>
      <trkpt lat="44.50174" lon="6.25483">
        <ele>1293.1105957</ele>
        <time>2014-08-12T08:30:27Z</time>
      </trkpt>
      <trkpt lat="44.50128" lon="6.25447">
        <ele>1291.668457</ele>
        <time>2014-08-12T08:30:39Z</time>
      </trkpt>
      <trkpt lat="44.50116" lon="6.25434">
        <ele>1290.7070313</ele>
        <time>2014-08-12T08:30:43Z</time>
      </trkpt>
      <trkpt lat="44.50104" lon="6.25423">
        <ele>1290.7070313</ele>
        <time>2014-08-12T08:30:46Z</time>
      </trkpt>
      <trkpt lat="44.50083" lon="6.25397">
        <ele>1289.2651367</ele>
        <time>2014-08-12T08:30:52Z</time>
      </trkpt>
      <trkpt lat="44.50083" lon="6.25379">
        <ele>1288.784668</ele>
        <time>2014-08-12T08:30:56Z</time>
      </trkpt>
      <trkpt lat="44.50108" lon="6.25323">
        <ele>1287.3425293</ele>
        <time>2014-08-12T08:31:09Z</time>
      </trkpt>
      <trkpt lat="44.50125" lon="6.25276">
        <ele>1285.4199219</ele>
        <time>2014-08-12T08:31:22Z</time>
      </trkpt>
      <trkpt lat="44.50144" lon="6.25276">
        <ele>1282.0554199</ele>
        <time>2014-08-12T08:31:31Z</time>
      </trkpt>
      <trkpt lat="44.50146" lon="6.25276">
        <ele>1282.0554199</ele>
        <time>2014-08-12T08:31:32Z</time>
      </trkpt>
      <trkpt lat="44.50159" lon="6.25269">
        <ele>1279.1713867</ele>
        <time>2014-08-12T08:31:38Z</time>
      </trkpt>
      <trkpt lat="44.50164" lon="6.25261">
        <ele>1278.2102051</ele>
        <time>2014-08-12T08:31:41Z</time>
      </trkpt>
      <trkpt lat="44.50164" lon="6.25255">
        <ele>1278.2102051</ele>
        <time>2014-08-12T08:31:43Z</time>
      </trkpt>
      <trkpt lat="44.50151" lon="6.25226">
        <ele>1274.845459</ele>
        <time>2014-08-12T08:31:53Z</time>
      </trkpt>
      <trkpt lat="44.50141" lon="6.25203">
        <ele>1271.4807129</ele>
        <time>2014-08-12T08:32:01Z</time>
      </trkpt>
      <trkpt lat="44.5013" lon="6.25187">
        <ele>1269.0776367</ele>
        <time>2014-08-12T08:32:08Z</time>
      </trkpt>
      <trkpt lat="44.50135" lon="6.25177">
        <ele>1268.1162109</ele>
        <time>2014-08-12T08:32:13Z</time>
      </trkpt>
      <trkpt lat="44.50157" lon="6.25154">
        <ele>1264.2709961</ele>
        <time>2014-08-12T08:32:23Z</time>
      </trkpt>
      <trkpt lat="44.50168" lon="6.25129">
        <ele>1260.4257813</ele>
        <time>2014-08-12T08:32:31Z</time>
      </trkpt>
      <trkpt lat="44.5017" lon="6.25125">
        <ele>1260.4257813</ele>
        <time>2014-08-12T08:32:32Z</time>
      </trkpt>
      <trkpt lat="44.50158" lon="6.25088">
        <ele>1258.0224609</ele>
        <time>2014-08-12T08:32:45Z</time>
      </trkpt>
      <trkpt lat="44.50158" lon="6.25049">
        <ele>1256.0996094</ele>
        <time>2014-08-12T08:32:55Z</time>
      </trkpt>
      <trkpt lat="44.50162" lon="6.25012">
        <ele>1254.1772461</ele>
        <time>2014-08-12T08:33:09Z</time>
      </trkpt>
      <trkpt lat="44.50165" lon="6.25011">
        <ele>1254.1772461</ele>
        <time>2014-08-12T08:33:11Z</time>
      </trkpt>
      <trkpt lat="44.50195" lon="6.25018">
        <ele>1250.8125</ele>
        <time>2014-08-12T08:33:25Z</time>
      </trkpt>
      <trkpt lat="44.5022" lon="6.25017">
        <ele>1248.8898926</ele>
        <time>2014-08-12T08:33:36Z</time>
      </trkpt>
      <trkpt lat="44.50226" lon="6.25007">
        <ele>1248.8898926</ele>
        <time>2014-08-12T08:33:40Z</time>
      </trkpt>
      <trkpt lat="44.50227" lon="6.25">
        <ele>1248.4091797</ele>
        <time>2014-08-12T08:33:43Z</time>
      </trkpt>
      <trkpt lat="44.50225" lon="6.24991">
        <ele>1247.447998</ele>
        <time>2014-08-12T08:33:47Z</time>
      </trkpt>
      <trkpt lat="44.50205" lon="6.24945">
        <ele>1245.0446777</ele>
        <time>2014-08-12T08:33:59Z</time>
      </trkpt>
      <trkpt lat="44.50196" lon="6.24927">
        <ele>1244.0834961</ele>
        <time>2014-08-12T08:34:04Z</time>
      </trkpt>
      <trkpt lat="44.50198" lon="6.24889">
        <ele>1240.7185059</ele>
        <time>2014-08-12T08:34:16Z</time>
      </trkpt>
      <trkpt lat="44.50216" lon="6.24863">
        <ele>1236.873291</ele>
        <time>2014-08-12T08:34:26Z</time>
      </trkpt>
      <trkpt lat="44.50218" lon="6.2486">
        <ele>1236.873291</ele>
        <time>2014-08-12T08:34:27Z</time>
      </trkpt>
      <trkpt lat="44.50234" lon="6.24848">
        <ele>1233.989502</ele>
        <time>2014-08-12T08:34:36Z</time>
      </trkpt>
      <trkpt lat="44.50246" lon="6.24825">
        <ele>1232.5476074</ele>
        <time>2014-08-12T08:34:48Z</time>
      </trkpt>
      <trkpt lat="44.5025" lon="6.24822">
        <ele>1231.5861816</ele>
        <time>2014-08-12T08:35:11Z</time>
      </trkpt>
      <trkpt lat="44.50252" lon="6.24822">
        <ele>1232.0668945</ele>
        <time>2014-08-12T08:35:14Z</time>
      </trkpt>
      <trkpt lat="44.50265" lon="6.24819">
        <ele>1231.5861816</ele>
        <time>2014-08-12T08:35:21Z</time>
      </trkpt>
      <trkpt lat="44.50263" lon="6.24808">
        <ele>1229.6635742</ele>
        <time>2014-08-12T08:35:27Z</time>
      </trkpt>
      <trkpt lat="44.50261" lon="6.24807">
        <ele>1229.6635742</ele>
        <time>2014-08-12T08:35:28Z</time>
      </trkpt>
      <trkpt lat="44.50251" lon="6.24807">
        <ele>1228.2216797</ele>
        <time>2014-08-12T08:35:31Z</time>
      </trkpt>
      <trkpt lat="44.50227" lon="6.24821">
        <ele>1225.8181152</ele>
        <time>2014-08-12T08:35:37Z</time>
      </trkpt>
      <trkpt lat="44.50219" lon="6.24823">
        <ele>1225.3374023</ele>
        <time>2014-08-12T08:35:39Z</time>
      </trkpt>
      <trkpt lat="44.50213" lon="6.24824">
        <ele>1224.8569336</ele>
        <time>2014-08-12T08:35:41Z</time>
      </trkpt>
      <trkpt lat="44.50174" lon="6.24852">
        <ele>1221.0117188</ele>
        <time>2014-08-12T08:35:53Z</time>
      </trkpt>
      <trkpt lat="44.50171" lon="6.24858">
        <ele>1220.5310059</ele>
        <time>2014-08-12T08:35:55Z</time>
      </trkpt>
      <trkpt lat="44.50161" lon="6.24847">
        <ele>1217.1665039</ele>
        <time>2014-08-12T08:36:06Z</time>
      </trkpt>
      <trkpt lat="44.50167" lon="6.24837">
        <ele>1216.2050781</ele>
        <time>2014-08-12T08:36:10Z</time>
      </trkpt>
      <trkpt lat="44.5018" lon="6.24818">
        <ele>1214.7631836</ele>
        <time>2014-08-12T08:36:16Z</time>
      </trkpt>
      <trkpt lat="44.50183" lon="6.24813">
        <ele>1214.2824707</ele>
        <time>2014-08-12T08:36:17Z</time>
      </trkpt>
      <trkpt lat="44.50213" lon="6.24767">
        <ele>1213.3212891</ele>
        <time>2014-08-12T08:36:29Z</time>
      </trkpt>
      <trkpt lat="44.50232" lon="6.24733">
        <ele>1214.2824707</ele>
        <time>2014-08-12T08:36:42Z</time>
      </trkpt>
      <trkpt lat="44.50235" lon="6.24731">
        <ele>1214.2824707</ele>
        <time>2014-08-12T08:36:58Z</time>
      </trkpt>
      <trkpt lat="44.50238" lon="6.24743">
        <ele>1215.2438965</ele>
        <time>2014-08-12T08:37:08Z</time>
      </trkpt>
      <trkpt lat="44.50235" lon="6.24748">
        <ele>1216.2050781</ele>
        <time>2014-08-12T08:37:12Z</time>
      </trkpt>
      <trkpt lat="44.50233" lon="6.24752">
        <ele>1215.7246094</ele>
        <time>2014-08-12T08:37:30Z</time>
      </trkpt>
      <trkpt lat="44.50233" lon="6.24752">
        <ele>1215.7246094</ele>
        <time>2014-08-12T08:37:32Z</time>
      </trkpt>
      <trkpt lat="44.50256" lon="6.24771">
        <ele>1217.6469727</ele>
        <time>2014-08-12T08:37:47Z</time>
      </trkpt>
      <trkpt lat="44.50285" lon="6.24776">
        <ele>1217.1665039</ele>
        <time>2014-08-12T08:37:57Z</time>
      </trkpt>
      <trkpt lat="44.50314" lon="6.24765">
        <ele>1216.2050781</ele>
        <time>2014-08-12T08:38:05Z</time>
      </trkpt>
      <trkpt lat="44.50327" lon="6.24728">
        <ele>1217.1665039</ele>
        <time>2014-08-12T08:38:17Z</time>
      </trkpt>
      <trkpt lat="44.50326" lon="6.24726">
        <ele>1217.1665039</ele>
        <time>2014-08-12T08:38:18Z</time>
      </trkpt>
      <trkpt lat="44.5032" lon="6.24695">
        <ele>1216.2050781</ele>
        <time>2014-08-12T08:38:26Z</time>
      </trkpt>
      <trkpt lat="44.50329" lon="6.24658">
        <ele>1215.7246094</ele>
        <time>2014-08-12T08:38:40Z</time>
      </trkpt>
      <trkpt lat="44.5034" lon="6.24636">
        <ele>1212.3598633</ele>
        <time>2014-08-12T08:38:50Z</time>
      </trkpt>
      <trkpt lat="44.50342" lon="6.24622">
        <ele>1210.4370117</ele>
        <time>2014-08-12T08:38:57Z</time>
      </trkpt>
      <trkpt lat="44.50343" lon="6.24599">
        <ele>1206.5917969</ele>
        <time>2014-08-12T08:39:05Z</time>
      </trkpt>
      <trkpt lat="44.50342" lon="6.24587">
        <ele>1205.1499023</ele>
        <time>2014-08-12T08:39:10Z</time>
      </trkpt>
      <trkpt lat="44.50337" lon="6.24583">
        <ele>1204.1887207</ele>
        <time>2014-08-12T08:39:13Z</time>
      </trkpt>
      <trkpt lat="44.50327" lon="6.24581">
        <ele>1201.7854004</ele>
        <time>2014-08-12T08:39:20Z</time>
      </trkpt>
      <trkpt lat="44.50313" lon="6.24581">
        <ele>1199.862793</ele>
        <time>2014-08-12T08:39:31Z</time>
      </trkpt>
      <trkpt lat="44.50294" lon="6.24562">
        <ele>1196.9787598</ele>
        <time>2014-08-12T08:39:52Z</time>
      </trkpt>
      <trkpt lat="44.50281" lon="6.2454">
        <ele>1195.5366211</ele>
        <time>2014-08-12T08:40:01Z</time>
      </trkpt>
      <trkpt lat="44.50269" lon="6.24524">
        <ele>1193.6140137</ele>
        <time>2014-08-12T08:40:09Z</time>
      </trkpt>
      <trkpt lat="44.50255" lon="6.24521">
        <ele>1192.652832</ele>
        <time>2014-08-12T08:40:22Z</time>
      </trkpt>
      <trkpt lat="44.50254" lon="6.24521">
        <ele>1192.652832</ele>
        <time>2014-08-12T08:40:31Z</time>
      </trkpt>
      <trkpt lat="44.50258" lon="6.24518">
        <ele>1193.1333008</ele>
        <time>2014-08-12T08:40:46Z</time>
      </trkpt>
      <trkpt lat="44.50261" lon="6.24522">
        <ele>1193.1333008</ele>
        <time>2014-08-12T08:40:55Z</time>
      </trkpt>
      <trkpt lat="44.50268" lon="6.24528">
        <ele>1194.0947266</ele>
        <time>2014-08-12T08:41:05Z</time>
      </trkpt>
      <trkpt lat="44.50269" lon="6.2453">
        <ele>1194.5751953</ele>
        <time>2014-08-12T08:41:07Z</time>
      </trkpt>
      <trkpt lat="44.50281" lon="6.24553">
        <ele>1195.5366211</ele>
        <time>2014-08-12T08:41:26Z</time>
      </trkpt>
      <trkpt lat="44.50286" lon="6.24566">
        <ele>1196.498291</ele>
        <time>2014-08-12T08:41:39Z</time>
      </trkpt>
      <trkpt lat="44.50296" lon="6.24573">
        <ele>1198.4206543</ele>
        <time>2014-08-12T08:41:56Z</time>
      </trkpt>
      <trkpt lat="44.50302" lon="6.24567">
        <ele>1197.9401855</ele>
        <time>2014-08-12T08:42:13Z</time>
      </trkpt>
      <trkpt lat="44.50304" lon="6.24567">
        <ele>1197.4594727</ele>
        <time>2014-08-12T08:42:21Z</time>
      </trkpt>
      <trkpt lat="44.50332" lon="6.24571">
        <ele>1195.5366211</ele>
        <time>2014-08-12T08:42:34Z</time>
      </trkpt>
      <trkpt lat="44.50333" lon="6.24573">
        <ele>1195.5366211</ele>
        <time>2014-08-12T08:42:35Z</time>
      </trkpt>
      <trkpt lat="44.50339" lon="6.2458">
        <ele>1195.0559082</ele>
        <time>2014-08-12T08:42:39Z</time>
      </trkpt>
      <trkpt lat="44.5034" lon="6.24583">
        <ele>1194.5751953</ele>
        <time>2014-08-12T08:42:41Z</time>
      </trkpt>
      <trkpt lat="44.50341" lon="6.2459">
        <ele>1193.6140137</ele>
        <time>2014-08-12T08:42:44Z</time>
      </trkpt>
      <trkpt lat="44.5035" lon="6.24599">
        <ele>1193.6140137</ele>
        <time>2014-08-12T08:42:50Z</time>
      </trkpt>
      <trkpt lat="44.50357" lon="6.24604">
        <ele>1194.0947266</ele>
        <time>2014-08-12T08:42:54Z</time>
      </trkpt>
      <trkpt lat="44.50361" lon="6.24601">
        <ele>1194.0947266</ele>
        <time>2014-08-12T08:42:58Z</time>
      </trkpt>
      <trkpt lat="44.50366" lon="6.24557">
        <ele>1193.6140137</ele>
        <time>2014-08-12T08:43:10Z</time>
      </trkpt>
      <trkpt lat="44.50354" lon="6.24522">
        <ele>1194.5751953</ele>
        <time>2014-08-12T08:43:26Z</time>
      </trkpt>
      <trkpt lat="44.50351" lon="6.24516">
        <ele>1194.5751953</ele>
        <time>2014-08-12T08:43:37Z</time>
      </trkpt>
      <trkpt lat="44.50349" lon="6.24508">
        <ele>1196.0175781</ele>
        <time>2014-08-12T08:43:50Z</time>
      </trkpt>
      <trkpt lat="44.50349" lon="6.24498">
        <ele>1197.9401855</ele>
        <time>2014-08-12T08:44:07Z</time>
      </trkpt>
      <trkpt lat="44.50349" lon="6.2449">
        <ele>1198.9013672</ele>
        <time>2014-08-12T08:44:28Z</time>
      </trkpt>
      <trkpt lat="44.5035" lon="6.24489">
        <ele>1199.3820801</ele>
        <time>2014-08-12T08:44:52Z</time>
      </trkpt>
      <trkpt lat="44.50349" lon="6.24488">
        <ele>1198.9013672</ele>
        <time>2014-08-12T08:45:01Z</time>
      </trkpt>
      <trkpt lat="44.50353" lon="6.24486">
        <ele>1199.3820801</ele>
        <time>2014-08-12T08:45:14Z</time>
      </trkpt>
      <trkpt lat="44.50356" lon="6.24488">
        <ele>1199.3820801</ele>
        <time>2014-08-12T08:45:29Z</time>
      </trkpt>
      <trkpt lat="44.50356" lon="6.24487">
        <ele>1199.862793</ele>
        <time>2014-08-12T08:45:48Z</time>
      </trkpt>
      <trkpt lat="44.50357" lon="6.24486">
        <ele>1199.862793</ele>
        <time>2014-08-12T08:46:30Z</time>
      </trkpt>
      <trkpt lat="44.5036" lon="6.24487">
        <ele>1199.862793</ele>
        <time>2014-08-12T08:52:53Z</time>
      </trkpt>
      <trkpt lat="44.5036" lon="6.24487">
        <ele>1200.3435059</ele>
        <time>2014-08-12T08:56:22Z</time>
      </trkpt>
      <trkpt lat="44.50362" lon="6.2448">
        <ele>1200.3435059</ele>
        <time>2014-08-12T08:56:41Z</time>
      </trkpt>
      <trkpt lat="44.50365" lon="6.24453">
        <ele>1202.2658691</ele>
        <time>2014-08-12T08:57:06Z</time>
      </trkpt>
      <trkpt lat="44.50366" lon="6.24449">
        <ele>1202.2658691</ele>
        <time>2014-08-12T08:57:25Z</time>
      </trkpt>
      <trkpt lat="44.50367" lon="6.24449">
        <ele>1202.2658691</ele>
        <time>2014-08-12T08:57:46Z</time>
      </trkpt>
      <trkpt lat="44.50368" lon="6.24449">
        <ele>1202.2658691</ele>
        <time>2014-08-12T08:57:47Z</time>
      </trkpt>
      <trkpt lat="44.50387" lon="6.24423">
        <ele>1205.1499023</ele>
        <time>2014-08-12T08:58:06Z</time>
      </trkpt>
      <trkpt lat="44.50404" lon="6.24405">
        <ele>1208.0339355</ele>
        <time>2014-08-12T08:58:24Z</time>
      </trkpt>
      <trkpt lat="44.50422" lon="6.24385">
        <ele>1209.4758301</ele>
        <time>2014-08-12T08:58:45Z</time>
      </trkpt>
      <trkpt lat="44.50448" lon="6.24365">
        <ele>1211.3984375</ele>
        <time>2014-08-12T08:59:09Z</time>
      </trkpt>
      <trkpt lat="44.50472" lon="6.24344">
        <ele>1213.3212891</ele>
        <time>2014-08-12T08:59:29Z</time>
      </trkpt>
      <trkpt lat="44.50491" lon="6.24326">
        <ele>1214.2824707</ele>
        <time>2014-08-12T08:59:45Z</time>
      </trkpt>
      <trkpt lat="44.50491" lon="6.2432">
        <ele>1214.7631836</ele>
        <time>2014-08-12T08:59:48Z</time>
      </trkpt>
      <trkpt lat="44.50494" lon="6.24315">
        <ele>1215.2438965</ele>
        <time>2014-08-12T08:59:51Z</time>
      </trkpt>
      <trkpt lat="44.50508" lon="6.24291">
        <ele>1216.685791</ele>
        <time>2014-08-12T09:00:06Z</time>
      </trkpt>
      <trkpt lat="44.50533" lon="6.24271">
        <ele>1216.685791</ele>
        <time>2014-08-12T09:00:23Z</time>
      </trkpt>
      <trkpt lat="44.50551" lon="6.24255">
        <ele>1217.1665039</ele>
        <time>2014-08-12T09:00:36Z</time>
      </trkpt>
      <trkpt lat="44.50577" lon="6.24234">
        <ele>1220.050293</ele>
        <time>2014-08-12T09:00:55Z</time>
      </trkpt>
      <trkpt lat="44.50607" lon="6.24224">
        <ele>1223.4150391</ele>
        <time>2014-08-12T09:01:17Z</time>
      </trkpt>
      <trkpt lat="44.50611" lon="6.24195">
        <ele>1226.2988281</ele>
        <time>2014-08-12T09:01:36Z</time>
      </trkpt>
      <trkpt lat="44.50611" lon="6.24194">
        <ele>1226.2988281</ele>
        <time>2014-08-12T09:01:37Z</time>
      </trkpt>
      <trkpt lat="44.50623" lon="6.24178">
        <ele>1228.7023926</ele>
        <time>2014-08-12T09:01:55Z</time>
      </trkpt>
      <trkpt lat="44.50633" lon="6.24168">
        <ele>1230.1442871</ele>
        <time>2014-08-12T09:02:11Z</time>
      </trkpt>
      <trkpt lat="44.50646" lon="6.24145">
        <ele>1232.0668945</ele>
        <time>2014-08-12T09:02:35Z</time>
      </trkpt>
      <trkpt lat="44.50657" lon="6.2414">
        <ele>1232.5476074</ele>
        <time>2014-08-12T09:02:56Z</time>
      </trkpt>
      <trkpt lat="44.50657" lon="6.24142">
        <ele>1232.5476074</ele>
        <time>2014-08-12T09:03:36Z</time>
      </trkpt>
      <trkpt lat="44.50677" lon="6.24135">
        <ele>1233.989502</ele>
        <time>2014-08-12T09:03:51Z</time>
      </trkpt>
      <trkpt lat="44.50697" lon="6.24099">
        <ele>1236.873291</ele>
        <time>2014-08-12T09:04:14Z</time>
      </trkpt>
      <trkpt lat="44.50716" lon="6.24064">
        <ele>1240.2380371</ele>
        <time>2014-08-12T09:04:38Z</time>
      </trkpt>
      <trkpt lat="44.50724" lon="6.24056">
        <ele>1241.1992188</ele>
        <time>2014-08-12T09:04:45Z</time>
      </trkpt>
      <trkpt lat="44.50748" lon="6.24054">
        <ele>1243.1218262</ele>
        <time>2014-08-12T09:05:04Z</time>
      </trkpt>
      <trkpt lat="44.50751" lon="6.24054">
        <ele>1243.1218262</ele>
        <time>2014-08-12T09:05:06Z</time>
      </trkpt>
      <trkpt lat="44.50778" lon="6.24069">
        <ele>1245.0446777</ele>
        <time>2014-08-12T09:05:29Z</time>
      </trkpt>
      <trkpt lat="44.50802" lon="6.24066">
        <ele>1246.9672852</ele>
        <time>2014-08-12T09:05:44Z</time>
      </trkpt>
      <trkpt lat="44.50813" lon="6.24043">
        <ele>1249.3706055</ele>
        <time>2014-08-12T09:06:01Z</time>
      </trkpt>
      <trkpt lat="44.50806" lon="6.24021">
        <ele>1250.8125</ele>
        <time>2014-08-12T09:06:14Z</time>
      </trkpt>
      <trkpt lat="44.50809" lon="6.23991">
        <ele>1252.7351074</ele>
        <time>2014-08-12T09:06:32Z</time>
      </trkpt>
      <trkpt lat="44.50834" lon="6.23989">
        <ele>1255.1384277</ele>
        <time>2014-08-12T09:06:51Z</time>
      </trkpt>
      <trkpt lat="44.50841" lon="6.23986">
        <ele>1255.6191406</ele>
        <time>2014-08-12T09:06:57Z</time>
      </trkpt>
      <trkpt lat="44.50845" lon="6.23981">
        <ele>1255.6191406</ele>
        <time>2014-08-12T09:07:01Z</time>
      </trkpt>
      <trkpt lat="44.5085" lon="6.23966">
        <ele>1257.0610352</ele>
        <time>2014-08-12T09:07:10Z</time>
      </trkpt>
      <trkpt lat="44.50847" lon="6.23935">
        <ele>1259.4643555</ele>
        <time>2014-08-12T09:07:27Z</time>
      </trkpt>
      <trkpt lat="44.50866" lon="6.23916">
        <ele>1261.8679199</ele>
        <time>2014-08-12T09:07:46Z</time>
      </trkpt>
      <trkpt lat="44.50895" lon="6.23901">
        <ele>1263.3098145</ele>
        <time>2014-08-12T09:08:09Z</time>
      </trkpt>
      <trkpt lat="44.50906" lon="6.23878">
        <ele>1264.2709961</ele>
        <time>2014-08-12T09:08:23Z</time>
      </trkpt>
      <trkpt lat="44.50897" lon="6.23844">
        <ele>1267.1550293</ele>
        <time>2014-08-12T09:08:41Z</time>
      </trkpt>
      <trkpt lat="44.50905" lon="6.23803">
        <ele>1269.5583496</ele>
        <time>2014-08-12T09:09:02Z</time>
      </trkpt>
      <trkpt lat="44.50919" lon="6.23769">
        <ele>1272.9228516</ele>
        <time>2014-08-12T09:09:23Z</time>
      </trkpt>
      <trkpt lat="44.50931" lon="6.23731">
        <ele>1275.3259277</ele>
        <time>2014-08-12T09:09:47Z</time>
      </trkpt>
      <trkpt lat="44.50951" lon="6.23708">
        <ele>1277.7294922</ele>
        <time>2014-08-12T09:10:08Z</time>
      </trkpt>
      <trkpt lat="44.50968" lon="6.23695">
        <ele>1279.1713867</ele>
        <time>2014-08-12T09:10:24Z</time>
      </trkpt>
      <trkpt lat="44.50965" lon="6.23669">
        <ele>1281.574707</ele>
        <time>2014-08-12T09:10:39Z</time>
      </trkpt>
      <trkpt lat="44.50964" lon="6.23663">
        <ele>1281.574707</ele>
        <time>2014-08-12T09:10:42Z</time>
      </trkpt>
      <trkpt lat="44.50968" lon="6.23644">
        <ele>1283.0166016</ele>
        <time>2014-08-12T09:11:01Z</time>
      </trkpt>
      <trkpt lat="44.50974" lon="6.23637">
        <ele>1283.9780273</ele>
        <time>2014-08-12T09:11:14Z</time>
      </trkpt>
      <trkpt lat="44.50995" lon="6.23637">
        <ele>1286.3813477</ele>
        <time>2014-08-12T09:11:38Z</time>
      </trkpt>
      <trkpt lat="44.50999" lon="6.23617">
        <ele>1288.784668</ele>
        <time>2014-08-12T09:11:57Z</time>
      </trkpt>
      <trkpt lat="44.51004" lon="6.23599">
        <ele>1289.7458496</ele>
        <time>2014-08-12T09:12:13Z</time>
      </trkpt>
      <trkpt lat="44.51009" lon="6.23569">
        <ele>1292.630127</ele>
        <time>2014-08-12T09:12:38Z</time>
      </trkpt>
      <trkpt lat="44.50999" lon="6.23557">
        <ele>1294.5524902</ele>
        <time>2014-08-12T09:12:56Z</time>
      </trkpt>
      <trkpt lat="44.5099" lon="6.23537">
        <ele>1296.4753418</ele>
        <time>2014-08-12T09:13:16Z</time>
      </trkpt>
      <trkpt lat="44.50993" lon="6.23514">
        <ele>1298.878418</ele>
        <time>2014-08-12T09:13:40Z</time>
      </trkpt>
      <trkpt lat="44.50996" lon="6.23522">
        <ele>1300.3205566</ele>
        <time>2014-08-12T09:13:56Z</time>
      </trkpt>
      <trkpt lat="44.51002" lon="6.23539">
        <ele>1302.7236328</ele>
        <time>2014-08-12T09:14:17Z</time>
      </trkpt>
      <trkpt lat="44.51015" lon="6.23534">
        <ele>1304.6462402</ele>
        <time>2014-08-12T09:14:37Z</time>
      </trkpt>
      <trkpt lat="44.51022" lon="6.23507">
        <ele>1307.5302734</ele>
        <time>2014-08-12T09:15:04Z</time>
      </trkpt>
      <trkpt lat="44.51031" lon="6.23482">
        <ele>1310.8950195</ele>
        <time>2014-08-12T09:15:30Z</time>
      </trkpt>
      <trkpt lat="44.51031" lon="6.2346">
        <ele>1312.817627</ele>
        <time>2014-08-12T09:15:51Z</time>
      </trkpt>
      <trkpt lat="44.51036" lon="6.23442">
        <ele>1315.2209473</ele>
        <time>2014-08-12T09:16:11Z</time>
      </trkpt>
      <trkpt lat="44.51038" lon="6.23416">
        <ele>1317.6240234</ele>
        <time>2014-08-12T09:16:34Z</time>
      </trkpt>
      <trkpt lat="44.51034" lon="6.23392">
        <ele>1320.5080566</ele>
        <time>2014-08-12T09:16:59Z</time>
      </trkpt>
      <trkpt lat="44.51025" lon="6.23369">
        <ele>1322.911377</ele>
        <time>2014-08-12T09:17:22Z</time>
      </trkpt>
      <trkpt lat="44.51019" lon="6.23339">
        <ele>1325.7954102</ele>
        <time>2014-08-12T09:17:49Z</time>
      </trkpt>
      <trkpt lat="44.51021" lon="6.23316">
        <ele>1327.7180176</ele>
        <time>2014-08-12T09:18:10Z</time>
      </trkpt>
      <trkpt lat="44.51034" lon="6.23294">
        <ele>1330.1213379</ele>
        <time>2014-08-12T09:18:35Z</time>
      </trkpt>
      <trkpt lat="44.51041" lon="6.23271">
        <ele>1333.005127</ele>
        <time>2014-08-12T09:19:01Z</time>
      </trkpt>
      <trkpt lat="44.51044" lon="6.23249">
        <ele>1335.4084473</ele>
        <time>2014-08-12T09:19:23Z</time>
      </trkpt>
      <trkpt lat="44.51044" lon="6.23245">
        <ele>1336.369873</ele>
        <time>2014-08-12T09:19:27Z</time>
      </trkpt>
      <trkpt lat="44.51051" lon="6.23224">
        <ele>1338.2924805</ele>
        <time>2014-08-12T09:19:47Z</time>
      </trkpt>
      <trkpt lat="44.51051" lon="6.23201">
        <ele>1341.1765137</ele>
        <time>2014-08-12T09:20:11Z</time>
      </trkpt>
      <trkpt lat="44.51056" lon="6.23178">
        <ele>1343.579834</ele>
        <time>2014-08-12T09:20:34Z</time>
      </trkpt>
      <trkpt lat="44.51067" lon="6.23191">
        <ele>1345.5024414</ele>
        <time>2014-08-12T09:20:56Z</time>
      </trkpt>
      <trkpt lat="44.51067" lon="6.2322">
        <ele>1348.3862305</ele>
        <time>2014-08-12T09:21:24Z</time>
      </trkpt>
      <trkpt lat="44.51076" lon="6.23246">
        <ele>1351.2702637</ele>
        <time>2014-08-12T09:21:53Z</time>
      </trkpt>
      <trkpt lat="44.51075" lon="6.23264">
        <ele>1354.1542969</ele>
        <time>2014-08-12T09:22:14Z</time>
      </trkpt>
      <trkpt lat="44.51069" lon="6.2328">
        <ele>1356.0769043</ele>
        <time>2014-08-12T09:22:34Z</time>
      </trkpt>
      <trkpt lat="44.51069" lon="6.23306">
        <ele>1358.4802246</ele>
        <time>2014-08-12T09:22:56Z</time>
      </trkpt>
      <trkpt lat="44.51075" lon="6.23332">
        <ele>1360.8835449</ele>
        <time>2014-08-12T09:23:18Z</time>
      </trkpt>
      <trkpt lat="44.51087" lon="6.23324">
        <ele>1363.2868652</ele>
        <time>2014-08-12T09:23:40Z</time>
      </trkpt>
      <trkpt lat="44.5109" lon="6.233">
        <ele>1366.1706543</ele>
        <time>2014-08-12T09:24:06Z</time>
      </trkpt>
      <trkpt lat="44.511" lon="6.23281">
        <ele>1369.0546875</ele>
        <time>2014-08-12T09:24:30Z</time>
      </trkpt>
      <trkpt lat="44.51109" lon="6.2326">
        <ele>1371.9384766</ele>
        <time>2014-08-12T09:24:56Z</time>
      </trkpt>
      <trkpt lat="44.51114" lon="6.23241">
        <ele>1374.8227539</ele>
        <time>2014-08-12T09:25:20Z</time>
      </trkpt>
      <trkpt lat="44.51126" lon="6.23217">
        <ele>1376.2646484</ele>
        <time>2014-08-12T09:25:45Z</time>
      </trkpt>
      <trkpt lat="44.51126" lon="6.23217">
        <ele>1376.2646484</ele>
        <time>2014-08-12T09:26:14Z</time>
      </trkpt>
      <trkpt lat="44.51127" lon="6.23217">
        <ele>1376.2646484</ele>
        <time>2014-08-12T09:27:04Z</time>
      </trkpt>
      <trkpt lat="44.51127" lon="6.23217">
        <ele>1376.2646484</ele>
        <time>2014-08-12T09:27:22Z</time>
      </trkpt>
      <trkpt lat="44.51128" lon="6.23216">
        <ele>1376.2646484</ele>
        <time>2014-08-12T09:27:36Z</time>
      </trkpt>
      <trkpt lat="44.51128" lon="6.23215">
        <ele>1376.2646484</ele>
        <time>2014-08-12T09:27:56Z</time>
      </trkpt>
      <trkpt lat="44.5114" lon="6.23212">
        <ele>1377.706543</ele>
        <time>2014-08-12T09:28:07Z</time>
      </trkpt>
      <trkpt lat="44.51172" lon="6.23198">
        <ele>1380.1098633</ele>
        <time>2014-08-12T09:28:32Z</time>
      </trkpt>
      <trkpt lat="44.51198" lon="6.23184">
        <ele>1382.9936523</ele>
        <time>2014-08-12T09:28:52Z</time>
      </trkpt>
      <trkpt lat="44.51232" lon="6.23168">
        <ele>1385.8776855</ele>
        <time>2014-08-12T09:29:21Z</time>
      </trkpt>
      <trkpt lat="44.51254" lon="6.23148">
        <ele>1387.800293</ele>
        <time>2014-08-12T09:29:40Z</time>
      </trkpt>
      <trkpt lat="44.51261" lon="6.23097">
        <ele>1387.800293</ele>
        <time>2014-08-12T09:29:59Z</time>
      </trkpt>
      <trkpt lat="44.51282" lon="6.2306">
        <ele>1389.7231445</ele>
        <time>2014-08-12T09:30:17Z</time>
      </trkpt>
      <trkpt lat="44.51306" lon="6.23041">
        <ele>1390.2038574</ele>
        <time>2014-08-12T09:30:34Z</time>
      </trkpt>
      <trkpt lat="44.51305" lon="6.23029">
        <ele>1389.2424316</ele>
        <time>2014-08-12T09:30:46Z</time>
      </trkpt>
      <trkpt lat="44.51305" lon="6.23022">
        <ele>1389.2424316</ele>
        <time>2014-08-12T09:31:06Z</time>
      </trkpt>
      <trkpt lat="44.51304" lon="6.23019">
        <ele>1387.800293</ele>
        <time>2014-08-12T09:31:20Z</time>
      </trkpt>
      <trkpt lat="44.51304" lon="6.23018">
        <ele>1387.800293</ele>
        <time>2014-08-12T09:31:38Z</time>
      </trkpt>
      <trkpt lat="44.51304" lon="6.23017">
        <ele>1388.28125</ele>
        <time>2014-08-12T09:32:17Z</time>
      </trkpt>
      <trkpt lat="44.51305" lon="6.23018">
        <ele>1389.2424316</ele>
        <time>2014-08-12T09:35:23Z</time>
      </trkpt>
      <trkpt lat="44.51307" lon="6.23021">
        <ele>1389.2424316</ele>
        <time>2014-08-12T09:35:37Z</time>
      </trkpt>
      <trkpt lat="44.51304" lon="6.23019">
        <ele>1389.2424316</ele>
        <time>2014-08-12T09:36:15Z</time>
      </trkpt>
      <trkpt lat="44.51304" lon="6.23019">
        <ele>1389.7231445</ele>
        <time>2014-08-12T09:36:17Z</time>
      </trkpt>
      <trkpt lat="44.51285" lon="6.22987">
        <ele>1389.2424316</ele>
        <time>2014-08-12T09:36:30Z</time>
      </trkpt>
      <trkpt lat="44.51259" lon="6.2295">
        <ele>1390.2038574</ele>
        <time>2014-08-12T09:36:49Z</time>
      </trkpt>
      <trkpt lat="44.51232" lon="6.22928">
        <ele>1392.6071777</ele>
        <time>2014-08-12T09:37:09Z</time>
      </trkpt>
      <trkpt lat="44.51209" lon="6.22925">
        <ele>1395.0102539</ele>
        <time>2014-08-12T09:37:26Z</time>
      </trkpt>
      <trkpt lat="44.5119" lon="6.22933">
        <ele>1397.4135742</ele>
        <time>2014-08-12T09:37:42Z</time>
      </trkpt>
      <trkpt lat="44.51178" lon="6.22943">
        <ele>1398.8554688</ele>
        <time>2014-08-12T09:37:53Z</time>
      </trkpt>
      <trkpt lat="44.51167" lon="6.22958">
        <ele>1400.2976074</ele>
        <time>2014-08-12T09:38:06Z</time>
      </trkpt>
      <trkpt lat="44.51156" lon="6.22971">
        <ele>1402.2199707</ele>
        <time>2014-08-12T09:38:18Z</time>
      </trkpt>
      <trkpt lat="44.5115" lon="6.22978">
        <ele>1403.1813965</ele>
        <time>2014-08-12T09:38:25Z</time>
      </trkpt>
      <trkpt lat="44.51144" lon="6.22986">
        <ele>1404.1430664</ele>
        <time>2014-08-12T09:38:31Z</time>
      </trkpt>
      <trkpt lat="44.51137" lon="6.22995">
        <ele>1405.104248</ele>
        <time>2014-08-12T09:38:40Z</time>
      </trkpt>
      <trkpt lat="44.51134" lon="6.22999">
        <ele>1405.104248</ele>
        <time>2014-08-12T09:38:43Z</time>
      </trkpt>
      <trkpt lat="44.51118" lon="6.23008">
        <ele>1407.5075684</ele>
        <time>2014-08-12T09:38:58Z</time>
      </trkpt>
      <trkpt lat="44.51096" lon="6.23014">
        <ele>1409.9106445</ele>
        <time>2014-08-12T09:39:13Z</time>
      </trkpt>
      <trkpt lat="44.5107" lon="6.23019">
        <ele>1413.2753906</ele>
        <time>2014-08-12T09:39:35Z</time>
      </trkpt>
      <trkpt lat="44.51047" lon="6.23023">
        <ele>1415.197998</ele>
        <time>2014-08-12T09:39:55Z</time>
      </trkpt>
      <trkpt lat="44.51024" lon="6.23023">
        <ele>1417.6010742</ele>
        <time>2014-08-12T09:40:16Z</time>
      </trkpt>
      <trkpt lat="44.50998" lon="6.2302">
        <ele>1420.9660645</ele>
        <time>2014-08-12T09:40:38Z</time>
      </trkpt>
      <trkpt lat="44.50994" lon="6.23019">
        <ele>1420.9660645</ele>
        <time>2014-08-12T09:40:41Z</time>
      </trkpt>
      <trkpt lat="44.50979" lon="6.23015">
        <ele>1422.8886719</ele>
        <time>2014-08-12T09:40:56Z</time>
      </trkpt>
      <trkpt lat="44.50972" lon="6.23018">
        <ele>1423.3693848</ele>
        <time>2014-08-12T09:41:07Z</time>
      </trkpt>
      <trkpt lat="44.50963" lon="6.23016">
        <ele>1425.291748</ele>
        <time>2014-08-12T09:41:22Z</time>
      </trkpt>
      <trkpt lat="44.5095" lon="6.23023">
        <ele>1426.7338867</ele>
        <time>2014-08-12T09:41:40Z</time>
      </trkpt>
      <trkpt lat="44.50934" lon="6.23031">
        <ele>1428.1757813</ele>
        <time>2014-08-12T09:41:56Z</time>
      </trkpt>
      <trkpt lat="44.50919" lon="6.23036">
        <ele>1429.6176758</ele>
        <time>2014-08-12T09:42:10Z</time>
      </trkpt>
      <trkpt lat="44.50897" lon="6.23043">
        <ele>1431.5402832</ele>
        <time>2014-08-12T09:42:28Z</time>
      </trkpt>
      <trkpt lat="44.50889" lon="6.23034">
        <ele>1433.4628906</ele>
        <time>2014-08-12T09:42:42Z</time>
      </trkpt>
      <trkpt lat="44.50889" lon="6.23031">
        <ele>1432.9821777</ele>
        <time>2014-08-12T09:42:58Z</time>
      </trkpt>
      <trkpt lat="44.50894" lon="6.23024">
        <ele>1434.9050293</ele>
        <time>2014-08-12T09:43:22Z</time>
      </trkpt>
      <trkpt lat="44.50895" lon="6.23024">
        <ele>1434.9050293</ele>
        <time>2014-08-12T09:43:55Z</time>
      </trkpt>
      <trkpt lat="44.50879" lon="6.23031">
        <ele>1433.4628906</ele>
        <time>2014-08-12T09:44:16Z</time>
      </trkpt>
      <trkpt lat="44.50881" lon="6.23032">
        <ele>1433.9436035</ele>
        <time>2014-08-12T09:45:25Z</time>
      </trkpt>
      <trkpt lat="44.50883" lon="6.23032">
        <ele>1433.9436035</ele>
        <time>2014-08-12T09:45:27Z</time>
      </trkpt>
      <trkpt lat="44.50906" lon="6.23023">
        <ele>1435.8662109</ele>
        <time>2014-08-12T09:45:43Z</time>
      </trkpt>
      <trkpt lat="44.50928" lon="6.23005">
        <ele>1438.7504883</ele>
        <time>2014-08-12T09:46:03Z</time>
      </trkpt>
      <trkpt lat="44.50945" lon="6.22988">
        <ele>1440.6728516</ele>
        <time>2014-08-12T09:46:23Z</time>
      </trkpt>
      <trkpt lat="44.5096" lon="6.22979">
        <ele>1443.5568848</ele>
        <time>2014-08-12T09:46:38Z</time>
      </trkpt>
      <trkpt lat="44.50987" lon="6.22973">
        <ele>1446.440918</ele>
        <time>2014-08-12T09:47:01Z</time>
      </trkpt>
      <trkpt lat="44.50996" lon="6.22972">
        <ele>1447.8828125</ele>
        <time>2014-08-12T09:47:13Z</time>
      </trkpt>
      <trkpt lat="44.51002" lon="6.22971">
        <ele>1448.8439941</ele>
        <time>2014-08-12T09:47:41Z</time>
      </trkpt>
      <trkpt lat="44.5102" lon="6.22955">
        <ele>1450.2861328</ele>
        <time>2014-08-12T09:47:57Z</time>
      </trkpt>
      <trkpt lat="44.5103" lon="6.22936">
        <ele>1452.2087402</ele>
        <time>2014-08-12T09:48:09Z</time>
      </trkpt>
      <trkpt lat="44.51027" lon="6.22932">
        <ele>1452.2087402</ele>
        <time>2014-08-12T09:48:12Z</time>
      </trkpt>
      <trkpt lat="44.51027" lon="6.22923">
        <ele>1452.6894531</ele>
        <time>2014-08-12T09:48:17Z</time>
      </trkpt>
      <trkpt lat="44.51028" lon="6.22915">
        <ele>1453.170166</ele>
        <time>2014-08-12T09:48:21Z</time>
      </trkpt>
      <trkpt lat="44.51026" lon="6.22911">
        <ele>1454.1315918</ele>
        <time>2014-08-12T09:48:23Z</time>
      </trkpt>
      <trkpt lat="44.51029" lon="6.22903">
        <ele>1454.1315918</ele>
        <time>2014-08-12T09:48:27Z</time>
      </trkpt>
      <trkpt lat="44.51029" lon="6.22897">
        <ele>1454.6120605</ele>
        <time>2014-08-12T09:48:30Z</time>
      </trkpt>
      <trkpt lat="44.5103" lon="6.22893">
        <ele>1454.6120605</ele>
        <time>2014-08-12T09:48:32Z</time>
      </trkpt>
      <trkpt lat="44.5103" lon="6.2287">
        <ele>1456.0539551</ele>
        <time>2014-08-12T09:48:44Z</time>
      </trkpt>
      <trkpt lat="44.51028" lon="6.22862">
        <ele>1457.0153809</ele>
        <time>2014-08-12T09:48:49Z</time>
      </trkpt>
      <trkpt lat="44.51026" lon="6.2284">
        <ele>1458.4572754</ele>
        <time>2014-08-12T09:49:02Z</time>
      </trkpt>
      <trkpt lat="44.51025" lon="6.22832">
        <ele>1459.4187012</ele>
        <time>2014-08-12T09:49:07Z</time>
      </trkpt>
      <trkpt lat="44.51023" lon="6.22822">
        <ele>1459.8991699</ele>
        <time>2014-08-12T09:49:14Z</time>
      </trkpt>
      <trkpt lat="44.51023" lon="6.22809">
        <ele>1461.3413086</ele>
        <time>2014-08-12T09:49:21Z</time>
      </trkpt>
      <trkpt lat="44.51021" lon="6.22801">
        <ele>1461.3413086</ele>
        <time>2014-08-12T09:49:26Z</time>
      </trkpt>
      <trkpt lat="44.51023" lon="6.22782">
        <ele>1462.7832031</ele>
        <time>2014-08-12T09:49:33Z</time>
      </trkpt>
      <trkpt lat="44.51027" lon="6.22758">
        <ele>1464.7058105</ele>
        <time>2014-08-12T09:49:48Z</time>
      </trkpt>
      <trkpt lat="44.51034" lon="6.22734">
        <ele>1466.628418</ele>
        <time>2014-08-12T09:50:02Z</time>
      </trkpt>
      <trkpt lat="44.51036" lon="6.22714">
        <ele>1468.5512695</ele>
        <time>2014-08-12T09:50:19Z</time>
      </trkpt>
      <trkpt lat="44.51034" lon="6.22704">
        <ele>1469.0319824</ele>
        <time>2014-08-12T09:50:47Z</time>
      </trkpt>
      <trkpt lat="44.51029" lon="6.22679">
        <ele>1471.4350586</ele>
        <time>2014-08-12T09:51:07Z</time>
      </trkpt>
      <trkpt lat="44.51026" lon="6.22664">
        <ele>1472.8771973</ele>
        <time>2014-08-12T09:51:22Z</time>
      </trkpt>
      <trkpt lat="44.51022" lon="6.22643">
        <ele>1474.7998047</ele>
        <time>2014-08-12T09:51:38Z</time>
      </trkpt>
      <trkpt lat="44.51022" lon="6.2263">
        <ele>1476.2416992</ele>
        <time>2014-08-12T09:51:53Z</time>
      </trkpt>
      <trkpt lat="44.51022" lon="6.22621">
        <ele>1477.203125</ele>
        <time>2014-08-12T09:52:11Z</time>
      </trkpt>
      <trkpt lat="44.51023" lon="6.22608">
        <ele>1478.1643066</ele>
        <time>2014-08-12T09:52:26Z</time>
      </trkpt>
      <trkpt lat="44.51021" lon="6.22607">
        <ele>1478.6450195</ele>
        <time>2014-08-12T09:52:42Z</time>
      </trkpt>
      <trkpt lat="44.5102" lon="6.22597">
        <ele>1479.6062012</ele>
        <time>2014-08-12T09:52:48Z</time>
      </trkpt>
      <trkpt lat="44.5102" lon="6.22582">
        <ele>1480.0869141</ele>
        <time>2014-08-12T09:53:07Z</time>
      </trkpt>
      <trkpt lat="44.51023" lon="6.22571">
        <ele>1480.0869141</ele>
        <time>2014-08-12T09:53:55Z</time>
      </trkpt>
      <trkpt lat="44.51023" lon="6.22571">
        <ele>1481.0483398</ele>
        <time>2014-08-12T09:54:03Z</time>
      </trkpt>
      <trkpt lat="44.51022" lon="6.22571">
        <ele>1480.567627</ele>
        <time>2014-08-12T09:55:00Z</time>
      </trkpt>
      <trkpt lat="44.51022" lon="6.22571">
        <ele>1479.6062012</ele>
        <time>2014-08-12T09:57:04Z</time>
      </trkpt>
      <trkpt lat="44.51023" lon="6.22571">
        <ele>1480.567627</ele>
        <time>2014-08-12T09:57:10Z</time>
      </trkpt>
      <trkpt lat="44.51023" lon="6.22572">
        <ele>1480.567627</ele>
        <time>2014-08-12T09:57:48Z</time>
      </trkpt>
      <trkpt lat="44.51025" lon="6.22553">
        <ele>1482.4902344</ele>
        <time>2014-08-12T09:58:01Z</time>
      </trkpt>
      <trkpt lat="44.51024" lon="6.22534">
        <ele>1483.9321289</ele>
        <time>2014-08-12T09:58:16Z</time>
      </trkpt>
      <trkpt lat="44.51027" lon="6.22514">
        <ele>1484.8937988</ele>
        <time>2014-08-12T09:58:33Z</time>
      </trkpt>
      <trkpt lat="44.5103" lon="6.22491">
        <ele>1486.8161621</ele>
        <time>2014-08-12T09:58:49Z</time>
      </trkpt>
      <trkpt lat="44.5103" lon="6.22469">
        <ele>1488.2583008</ele>
        <time>2014-08-12T09:59:06Z</time>
      </trkpt>
      <trkpt lat="44.51033" lon="6.22448">
        <ele>1490.1809082</ele>
        <time>2014-08-12T09:59:24Z</time>
      </trkpt>
      <trkpt lat="44.51036" lon="6.22424">
        <ele>1491.1420898</ele>
        <time>2014-08-12T09:59:41Z</time>
      </trkpt>
      <trkpt lat="44.51038" lon="6.22418">
        <ele>1492.1035156</ele>
        <time>2014-08-12T09:59:58Z</time>
      </trkpt>
      <trkpt lat="44.51051" lon="6.22389">
        <ele>1494.5065918</ele>
        <time>2014-08-12T10:00:22Z</time>
      </trkpt>
      <trkpt lat="44.51057" lon="6.22364">
        <ele>1495.9487305</ele>
        <time>2014-08-12T10:00:40Z</time>
      </trkpt>
      <trkpt lat="44.5106" lon="6.22344">
        <ele>1497.390625</ele>
        <time>2014-08-12T10:00:55Z</time>
      </trkpt>
      <trkpt lat="44.51068" lon="6.22321">
        <ele>1499.3132324</ele>
        <time>2014-08-12T10:01:17Z</time>
      </trkpt>
      <trkpt lat="44.51078" lon="6.223">
        <ele>1501.7167969</ele>
        <time>2014-08-12T10:01:39Z</time>
      </trkpt>
      <trkpt lat="44.51081" lon="6.22273">
        <ele>1502.6779785</ele>
        <time>2014-08-12T10:02:00Z</time>
      </trkpt>
      <trkpt lat="44.51091" lon="6.22246">
        <ele>1503.6394043</ele>
        <time>2014-08-12T10:02:20Z</time>
      </trkpt>
      <trkpt lat="44.51083" lon="6.22228">
        <ele>1505.5620117</ele>
        <time>2014-08-12T10:02:40Z</time>
      </trkpt>
      <trkpt lat="44.51081" lon="6.22229">
        <ele>1505.0812988</ele>
        <time>2014-08-12T10:03:10Z</time>
      </trkpt>
      <trkpt lat="44.51079" lon="6.2223">
        <ele>1505.5620117</ele>
        <time>2014-08-12T10:03:15Z</time>
      </trkpt>
      <trkpt lat="44.51061" lon="6.22267">
        <ele>1507.4846191</ele>
        <time>2014-08-12T10:03:37Z</time>
      </trkpt>
      <trkpt lat="44.51045" lon="6.22286">
        <ele>1509.8876953</ele>
        <time>2014-08-12T10:03:55Z</time>
      </trkpt>
      <trkpt lat="44.51032" lon="6.223">
        <ele>1511.8105469</ele>
        <time>2014-08-12T10:04:10Z</time>
      </trkpt>
      <trkpt lat="44.51011" lon="6.2233">
        <ele>1514.6943359</ele>
        <time>2014-08-12T10:04:35Z</time>
      </trkpt>
      <trkpt lat="44.5099" lon="6.22353">
        <ele>1517.0979004</ele>
        <time>2014-08-12T10:04:57Z</time>
      </trkpt>
      <trkpt lat="44.5098" lon="6.22366">
        <ele>1518.5397949</ele>
        <time>2014-08-12T10:05:08Z</time>
      </trkpt>
      <trkpt lat="44.50966" lon="6.22392">
        <ele>1520.9431152</ele>
        <time>2014-08-12T10:05:28Z</time>
      </trkpt>
      <trkpt lat="44.50957" lon="6.22404">
        <ele>1522.3850098</ele>
        <time>2014-08-12T10:05:38Z</time>
      </trkpt>
      <trkpt lat="44.50945" lon="6.2241">
        <ele>1523.3464355</ele>
        <time>2014-08-12T10:05:53Z</time>
      </trkpt>
      <trkpt lat="44.50945" lon="6.22411">
        <ele>1523.8269043</ele>
        <time>2014-08-12T10:05:57Z</time>
      </trkpt>
      <trkpt lat="44.50927" lon="6.22426">
        <ele>1525.2687988</ele>
        <time>2014-08-12T10:06:19Z</time>
      </trkpt>
      <trkpt lat="44.50907" lon="6.22435">
        <ele>1526.2302246</ele>
        <time>2014-08-12T10:06:41Z</time>
      </trkpt>
      <trkpt lat="44.5091" lon="6.22437">
        <ele>1526.2302246</ele>
        <time>2014-08-12T10:06:56Z</time>
      </trkpt>
      <trkpt lat="44.50908" lon="6.22401">
        <ele>1528.6335449</ele>
        <time>2014-08-12T10:07:14Z</time>
      </trkpt>
      <trkpt lat="44.50928" lon="6.22379">
        <ele>1531.517334</ele>
        <time>2014-08-12T10:07:34Z</time>
      </trkpt>
      <trkpt lat="44.50945" lon="6.22348">
        <ele>1533.4401855</ele>
        <time>2014-08-12T10:07:56Z</time>
      </trkpt>
      <trkpt lat="44.50956" lon="6.22328">
        <ele>1535.362793</ele>
        <time>2014-08-12T10:08:10Z</time>
      </trkpt>
      <trkpt lat="44.50962" lon="6.22318">
        <ele>1535.8435059</ele>
        <time>2014-08-12T10:08:16Z</time>
      </trkpt>
      <trkpt lat="44.50964" lon="6.2231">
        <ele>1536.3242188</ele>
        <time>2014-08-12T10:08:21Z</time>
      </trkpt>
      <trkpt lat="44.50974" lon="6.22263">
        <ele>1538.7275391</ele>
        <time>2014-08-12T10:08:47Z</time>
      </trkpt>
      <trkpt lat="44.50975" lon="6.22219">
        <ele>1540.6499023</ele>
        <time>2014-08-12T10:09:12Z</time>
      </trkpt>
      <trkpt lat="44.50977" lon="6.2219">
        <ele>1542.5727539</ele>
        <time>2014-08-12T10:09:29Z</time>
      </trkpt>
      <trkpt lat="44.50981" lon="6.22154">
        <ele>1545.9372559</ele>
        <time>2014-08-12T10:09:50Z</time>
      </trkpt>
      <trkpt lat="44.50987" lon="6.22119">
        <ele>1548.8212891</ele>
        <time>2014-08-12T10:10:12Z</time>
      </trkpt>
      <trkpt lat="44.50989" lon="6.22081">
        <ele>1551.2246094</ele>
        <time>2014-08-12T10:10:34Z</time>
      </trkpt>
      <trkpt lat="44.50993" lon="6.22047">
        <ele>1554.5891113</ele>
        <time>2014-08-12T10:10:54Z</time>
      </trkpt>
      <trkpt lat="44.51003" lon="6.22018">
        <ele>1556.5117188</ele>
        <time>2014-08-12T10:11:13Z</time>
      </trkpt>
      <trkpt lat="44.51003" lon="6.22017">
        <ele>1556.5117188</ele>
        <time>2014-08-12T10:11:14Z</time>
      </trkpt>
      <trkpt lat="44.51007" lon="6.22011">
        <ele>1556.5117188</ele>
        <time>2014-08-12T10:11:18Z</time>
      </trkpt>
      <trkpt lat="44.51009" lon="6.22008">
        <ele>1556.9924316</ele>
        <time>2014-08-12T10:11:20Z</time>
      </trkpt>
      <trkpt lat="44.51015" lon="6.21987">
        <ele>1558.9150391</ele>
        <time>2014-08-12T10:11:33Z</time>
      </trkpt>
      <trkpt lat="44.51008" lon="6.21973">
        <ele>1559.395752</ele>
        <time>2014-08-12T10:11:40Z</time>
      </trkpt>
      <trkpt lat="44.50998" lon="6.21979">
        <ele>1560.3569336</ele>
        <time>2014-08-12T10:11:47Z</time>
      </trkpt>
      <trkpt lat="44.50979" lon="6.22013">
        <ele>1562.279541</ele>
        <time>2014-08-12T10:12:08Z</time>
      </trkpt>
      <trkpt lat="44.50961" lon="6.22048">
        <ele>1564.6831055</ele>
        <time>2014-08-12T10:12:32Z</time>
      </trkpt>
      <trkpt lat="44.50945" lon="6.22081">
        <ele>1566.125</ele>
        <time>2014-08-12T10:12:53Z</time>
      </trkpt>
      <trkpt lat="44.50929" lon="6.22116">
        <ele>1568.5283203</ele>
        <time>2014-08-12T10:13:17Z</time>
      </trkpt>
      <trkpt lat="44.5091" lon="6.22148">
        <ele>1570.4509277</ele>
        <time>2014-08-12T10:13:40Z</time>
      </trkpt>
      <trkpt lat="44.50887" lon="6.22151">
        <ele>1572.854248</ele>
        <time>2014-08-12T10:14:00Z</time>
      </trkpt>
      <trkpt lat="44.50882" lon="6.22145">
        <ele>1573.3349609</ele>
        <time>2014-08-12T10:14:06Z</time>
      </trkpt>
      <trkpt lat="44.50879" lon="6.22143">
        <ele>1573.8154297</ele>
        <time>2014-08-12T10:14:09Z</time>
      </trkpt>
      <trkpt lat="44.50875" lon="6.22141">
        <ele>1574.2961426</ele>
        <time>2014-08-12T10:14:12Z</time>
      </trkpt>
      <trkpt lat="44.50869" lon="6.22139">
        <ele>1574.2961426</ele>
        <time>2014-08-12T10:14:17Z</time>
      </trkpt>
      <trkpt lat="44.50858" lon="6.22129">
        <ele>1575.7380371</ele>
        <time>2014-08-12T10:14:29Z</time>
      </trkpt>
      <trkpt lat="44.50857" lon="6.22127">
        <ele>1576.21875</ele>
        <time>2014-08-12T10:14:32Z</time>
      </trkpt>
      <trkpt lat="44.50844" lon="6.22124">
        <ele>1577.6606445</ele>
        <time>2014-08-12T10:14:45Z</time>
      </trkpt>
      <trkpt lat="44.50834" lon="6.22127">
        <ele>1578.1413574</ele>
        <time>2014-08-12T10:14:53Z</time>
      </trkpt>
      <trkpt lat="44.50817" lon="6.2211">
        <ele>1579.583252</ele>
        <time>2014-08-12T10:15:09Z</time>
      </trkpt>
      <trkpt lat="44.50817" lon="6.22098">
        <ele>1580.5449219</ele>
        <time>2014-08-12T10:15:17Z</time>
      </trkpt>
      <trkpt lat="44.50826" lon="6.22066">
        <ele>1582.947998</ele>
        <time>2014-08-12T10:15:38Z</time>
      </trkpt>
      <trkpt lat="44.50827" lon="6.22044">
        <ele>1584.3901367</ele>
        <time>2014-08-12T10:15:51Z</time>
      </trkpt>
      <trkpt lat="44.5083" lon="6.22013">
        <ele>1587.2739258</ele>
        <time>2014-08-12T10:16:09Z</time>
      </trkpt>
      <trkpt lat="44.50832" lon="6.22008">
        <ele>1587.7546387</ele>
        <time>2014-08-12T10:16:12Z</time>
      </trkpt>
      <trkpt lat="44.50832" lon="6.22">
        <ele>1588.2353516</ele>
        <time>2014-08-12T10:16:17Z</time>
      </trkpt>
      <trkpt lat="44.50834" lon="6.21994">
        <ele>1588.7160645</ele>
        <time>2014-08-12T10:16:21Z</time>
      </trkpt>
      <trkpt lat="44.50847" lon="6.21969">
        <ele>1590.6384277</ele>
        <time>2014-08-12T10:16:39Z</time>
      </trkpt>
      <trkpt lat="44.50851" lon="6.21964">
        <ele>1591.1191406</ele>
        <time>2014-08-12T10:16:43Z</time>
      </trkpt>
      <trkpt lat="44.50853" lon="6.21959">
        <ele>1591.1191406</ele>
        <time>2014-08-12T10:16:46Z</time>
      </trkpt>
      <trkpt lat="44.50855" lon="6.21956">
        <ele>1591.5998535</ele>
        <time>2014-08-12T10:16:49Z</time>
      </trkpt>
      <trkpt lat="44.50859" lon="6.21951">
        <ele>1592.0805664</ele>
        <time>2014-08-12T10:16:54Z</time>
      </trkpt>
      <trkpt lat="44.50873" lon="6.21927">
        <ele>1593.5224609</ele>
        <time>2014-08-12T10:17:13Z</time>
      </trkpt>
      <trkpt lat="44.50881" lon="6.21913">
        <ele>1594.0031738</ele>
        <time>2014-08-12T10:17:24Z</time>
      </trkpt>
      <trkpt lat="44.50886" lon="6.21896">
        <ele>1594.4836426</ele>
        <time>2014-08-12T10:17:33Z</time>
      </trkpt>
      <trkpt lat="44.50885" lon="6.21882">
        <ele>1594.9643555</ele>
        <time>2014-08-12T10:17:40Z</time>
      </trkpt>
      <trkpt lat="44.50871" lon="6.2185">
        <ele>1597.3679199</ele>
        <time>2014-08-12T10:17:58Z</time>
      </trkpt>
      <trkpt lat="44.5086" lon="6.21824">
        <ele>1599.7712402</ele>
        <time>2014-08-12T10:18:16Z</time>
      </trkpt>
      <trkpt lat="44.50838" lon="6.2181">
        <ele>1599.7712402</ele>
        <time>2014-08-12T10:18:31Z</time>
      </trkpt>
      <trkpt lat="44.50835" lon="6.21809">
        <ele>1599.7712402</ele>
        <time>2014-08-12T10:18:33Z</time>
      </trkpt>
      <trkpt lat="44.5082" lon="6.21806">
        <ele>1598.8098145</ele>
        <time>2014-08-12T10:18:42Z</time>
      </trkpt>
      <trkpt lat="44.50805" lon="6.21803">
        <ele>1597.8486328</ele>
        <time>2014-08-12T10:18:49Z</time>
      </trkpt>
      <trkpt lat="44.50797" lon="6.21798">
        <ele>1596.887207</ele>
        <time>2014-08-12T10:18:53Z</time>
      </trkpt>
      <trkpt lat="44.508" lon="6.21763">
        <ele>1593.041748</ele>
        <time>2014-08-12T10:19:05Z</time>
      </trkpt>
      <trkpt lat="44.508" lon="6.21759">
        <ele>1593.041748</ele>
        <time>2014-08-12T10:19:06Z</time>
      </trkpt>
      <trkpt lat="44.50795" lon="6.21749">
        <ele>1591.1191406</ele>
        <time>2014-08-12T10:19:09Z</time>
      </trkpt>
      <trkpt lat="44.50792" lon="6.21747">
        <ele>1591.1191406</ele>
        <time>2014-08-12T10:19:10Z</time>
      </trkpt>
      <trkpt lat="44.50757" lon="6.21751">
        <ele>1591.1191406</ele>
        <time>2014-08-12T10:19:24Z</time>
      </trkpt>
      <trkpt lat="44.50745" lon="6.2176">
        <ele>1591.5998535</ele>
        <time>2014-08-12T10:19:32Z</time>
      </trkpt>
      <trkpt lat="44.5074" lon="6.21759">
        <ele>1592.5612793</ele>
        <time>2014-08-12T10:19:42Z</time>
      </trkpt>
      <trkpt lat="44.50723" lon="6.21763">
        <ele>1593.5224609</ele>
        <time>2014-08-12T10:19:49Z</time>
      </trkpt>
      <trkpt lat="44.50703" lon="6.21764">
        <ele>1594.0031738</ele>
        <time>2014-08-12T10:20:01Z</time>
      </trkpt>
      <trkpt lat="44.50676" lon="6.21773">
        <ele>1595.4450684</ele>
        <time>2014-08-12T10:20:16Z</time>
      </trkpt>
      <trkpt lat="44.50654" lon="6.21786">
        <ele>1596.887207</ele>
        <time>2014-08-12T10:20:29Z</time>
      </trkpt>
      <trkpt lat="44.50628" lon="6.21792">
        <ele>1599.2905273</ele>
        <time>2014-08-12T10:20:46Z</time>
      </trkpt>
      <trkpt lat="44.50626" lon="6.21793">
        <ele>1599.2905273</ele>
        <time>2014-08-12T10:20:48Z</time>
      </trkpt>
      <trkpt lat="44.50606" lon="6.21789">
        <ele>1600.2519531</ele>
        <time>2014-08-12T10:21:02Z</time>
      </trkpt>
      <trkpt lat="44.50599" lon="6.21787">
        <ele>1599.7712402</ele>
        <time>2014-08-12T10:21:05Z</time>
      </trkpt>
      <trkpt lat="44.50574" lon="6.21768">
        <ele>1599.2905273</ele>
        <time>2014-08-12T10:21:17Z</time>
      </trkpt>
      <trkpt lat="44.50543" lon="6.21743">
        <ele>1597.8486328</ele>
        <time>2014-08-12T10:21:27Z</time>
      </trkpt>
      <trkpt lat="44.50516" lon="6.21731">
        <ele>1597.8486328</ele>
        <time>2014-08-12T10:21:37Z</time>
      </trkpt>
      <trkpt lat="44.50515" lon="6.2173">
        <ele>1597.3679199</ele>
        <time>2014-08-12T10:21:52Z</time>
      </trkpt>
      <trkpt lat="44.50519" lon="6.21737">
        <ele>1597.8486328</ele>
        <time>2014-08-12T10:22:03Z</time>
      </trkpt>
      <trkpt lat="44.50526" lon="6.21748">
        <ele>1596.4067383</ele>
        <time>2014-08-12T10:22:21Z</time>
      </trkpt>
      <trkpt lat="44.50516" lon="6.2176">
        <ele>1593.5224609</ele>
        <time>2014-08-12T10:22:42Z</time>
      </trkpt>
      <trkpt lat="44.50509" lon="6.21764">
        <ele>1592.0805664</ele>
        <time>2014-08-12T10:22:58Z</time>
      </trkpt>
      <trkpt lat="44.50496" lon="6.21763">
        <ele>1588.7160645</ele>
        <time>2014-08-12T10:23:22Z</time>
      </trkpt>
      <trkpt lat="44.50496" lon="6.2177">
        <ele>1588.2353516</ele>
        <time>2014-08-12T10:23:40Z</time>
      </trkpt>
      <trkpt lat="44.50496" lon="6.21771">
        <ele>1588.7160645</ele>
        <time>2014-08-12T10:23:56Z</time>
      </trkpt>
      <trkpt lat="44.50496" lon="6.2177">
        <ele>1589.1965332</ele>
        <time>2014-08-12T10:24:34Z</time>
      </trkpt>
      <trkpt lat="44.50497" lon="6.2177">
        <ele>1589.6772461</ele>
        <time>2014-08-12T10:25:03Z</time>
      </trkpt>
      <trkpt lat="44.50496" lon="6.2177">
        <ele>1587.7546387</ele>
        <time>2014-08-12T10:25:19Z</time>
      </trkpt>
      <trkpt lat="44.50496" lon="6.21769">
        <ele>1589.6772461</ele>
        <time>2014-08-12T10:25:44Z</time>
      </trkpt>
      <trkpt lat="44.50496" lon="6.21769">
        <ele>1589.6772461</ele>
        <time>2014-08-12T10:26:21Z</time>
      </trkpt>
      <trkpt lat="44.50494" lon="6.21756">
        <ele>1592.0805664</ele>
        <time>2014-08-12T10:26:39Z</time>
      </trkpt>
      <trkpt lat="44.5049" lon="6.21738">
        <ele>1594.9643555</ele>
        <time>2014-08-12T10:27:03Z</time>
      </trkpt>
      <trkpt lat="44.50504" lon="6.21726">
        <ele>1597.8486328</ele>
        <time>2014-08-12T10:27:30Z</time>
      </trkpt>
      <trkpt lat="44.50512" lon="6.21722">
        <ele>1599.2905273</ele>
        <time>2014-08-12T10:27:51Z</time>
      </trkpt>
      <trkpt lat="44.50511" lon="6.21724">
        <ele>1599.2905273</ele>
        <time>2014-08-12T10:27:56Z</time>
      </trkpt>
      <trkpt lat="44.50479" lon="6.21707">
        <ele>1600.2519531</ele>
        <time>2014-08-12T10:28:13Z</time>
      </trkpt>
      <trkpt lat="44.50454" lon="6.21706">
        <ele>1603.1357422</ele>
        <time>2014-08-12T10:28:29Z</time>
      </trkpt>
      <trkpt lat="44.50426" lon="6.217">
        <ele>1606.0195313</ele>
        <time>2014-08-12T10:28:49Z</time>
      </trkpt>
      <trkpt lat="44.50399" lon="6.21685">
        <ele>1607.9423828</ele>
        <time>2014-08-12T10:29:08Z</time>
      </trkpt>
      <trkpt lat="44.50377" lon="6.21673">
        <ele>1610.8261719</ele>
        <time>2014-08-12T10:29:26Z</time>
      </trkpt>
      <trkpt lat="44.50371" lon="6.21668">
        <ele>1611.7875977</ele>
        <time>2014-08-12T10:29:31Z</time>
      </trkpt>
      <trkpt lat="44.50365" lon="6.21663">
        <ele>1612.7490234</ele>
        <time>2014-08-12T10:29:36Z</time>
      </trkpt>
      <trkpt lat="44.50339" lon="6.21646">
        <ele>1614.190918</ele>
        <time>2014-08-12T10:29:55Z</time>
      </trkpt>
      <trkpt lat="44.50302" lon="6.21619">
        <ele>1617.0749512</ele>
        <time>2014-08-12T10:30:20Z</time>
      </trkpt>
      <trkpt lat="44.50277" lon="6.21594">
        <ele>1619.9587402</ele>
        <time>2014-08-12T10:30:40Z</time>
      </trkpt>
      <trkpt lat="44.50252" lon="6.2158">
        <ele>1622.3620605</ele>
        <time>2014-08-12T10:31:02Z</time>
      </trkpt>
      <trkpt lat="44.5023" lon="6.21584">
        <ele>1623.8039551</ele>
        <time>2014-08-12T10:31:18Z</time>
      </trkpt>
      <trkpt lat="44.50197" lon="6.2158">
        <ele>1626.2072754</ele>
        <time>2014-08-12T10:31:41Z</time>
      </trkpt>
      <trkpt lat="44.50195" lon="6.21578">
        <ele>1626.6879883</ele>
        <time>2014-08-12T10:31:43Z</time>
      </trkpt>
      <trkpt lat="44.5019" lon="6.21575">
        <ele>1627.1687012</ele>
        <time>2014-08-12T10:31:46Z</time>
      </trkpt>
      <trkpt lat="44.50162" lon="6.21549">
        <ele>1630.0527344</ele>
        <time>2014-08-12T10:32:10Z</time>
      </trkpt>
      <trkpt lat="44.50134" lon="6.21526">
        <ele>1632.9365234</ele>
        <time>2014-08-12T10:32:34Z</time>
      </trkpt>
      <trkpt lat="44.50107" lon="6.21524">
        <ele>1635.8205566</ele>
        <time>2014-08-12T10:32:55Z</time>
      </trkpt>
      <trkpt lat="44.50095" lon="6.21551">
        <ele>1638.7045898</ele>
        <time>2014-08-12T10:33:14Z</time>
      </trkpt>
      <trkpt lat="44.50079" lon="6.21568">
        <ele>1642.0690918</ele>
        <time>2014-08-12T10:33:33Z</time>
      </trkpt>
      <trkpt lat="44.50061" lon="6.21566">
        <ele>1645.4338379</ele>
        <time>2014-08-12T10:33:50Z</time>
      </trkpt>
      <trkpt lat="44.50038" lon="6.21555">
        <ele>1648.317627</ele>
        <time>2014-08-12T10:34:13Z</time>
      </trkpt>
      <trkpt lat="44.50005" lon="6.21539">
        <ele>1650.7209473</ele>
        <time>2014-08-12T10:34:42Z</time>
      </trkpt>
      <trkpt lat="44.49976" lon="6.21525">
        <ele>1654.0856934</ele>
        <time>2014-08-12T10:35:08Z</time>
      </trkpt>
      <trkpt lat="44.4996" lon="6.21518">
        <ele>1656.4887695</ele>
        <time>2014-08-12T10:35:23Z</time>
      </trkpt>
      <trkpt lat="44.49939" lon="6.21503">
        <ele>1658.8920898</ele>
        <time>2014-08-12T10:35:45Z</time>
      </trkpt>
      <trkpt lat="44.49916" lon="6.21499">
        <ele>1662.2568359</ele>
        <time>2014-08-12T10:36:09Z</time>
      </trkpt>
      <trkpt lat="44.49894" lon="6.21513">
        <ele>1664.6601563</ele>
        <time>2014-08-12T10:36:33Z</time>
      </trkpt>
      <trkpt lat="44.49882" lon="6.21532">
        <ele>1668.0246582</ele>
        <time>2014-08-12T10:36:51Z</time>
      </trkpt>
      <trkpt lat="44.49878" lon="6.21538">
        <ele>1668.986084</ele>
        <time>2014-08-12T10:36:57Z</time>
      </trkpt>
      <trkpt lat="44.49877" lon="6.21542">
        <ele>1668.986084</ele>
        <time>2014-08-12T10:37:00Z</time>
      </trkpt>
      <trkpt lat="44.49875" lon="6.21548">
        <ele>1669.4667969</ele>
        <time>2014-08-12T10:37:04Z</time>
      </trkpt>
      <trkpt lat="44.49861" lon="6.21569">
        <ele>1672.8312988</ele>
        <time>2014-08-12T10:37:25Z</time>
      </trkpt>
      <trkpt lat="44.49849" lon="6.21583">
        <ele>1675.7150879</ele>
        <time>2014-08-12T10:37:43Z</time>
      </trkpt>
      <trkpt lat="44.49838" lon="6.21586">
        <ele>1678.1186523</ele>
        <time>2014-08-12T10:37:56Z</time>
      </trkpt>
      <trkpt lat="44.49836" lon="6.21585">
        <ele>1678.1186523</ele>
        <time>2014-08-12T10:37:58Z</time>
      </trkpt>
      <trkpt lat="44.49823" lon="6.21579">
        <ele>1680.0412598</ele>
        <time>2014-08-12T10:38:13Z</time>
      </trkpt>
      <trkpt lat="44.4982" lon="6.21574">
        <ele>1681.0026855</ele>
        <time>2014-08-12T10:38:18Z</time>
      </trkpt>
      <trkpt lat="44.49798" lon="6.21564">
        <ele>1683.8864746</ele>
        <time>2014-08-12T10:38:42Z</time>
      </trkpt>
      <trkpt lat="44.49783" lon="6.21557">
        <ele>1685.3283691</ele>
        <time>2014-08-12T10:38:57Z</time>
      </trkpt>
      <trkpt lat="44.49761" lon="6.21552">
        <ele>1687.7316895</ele>
        <time>2014-08-12T10:39:17Z</time>
      </trkpt>
      <trkpt lat="44.49744" lon="6.2155">
        <ele>1689.6542969</ele>
        <time>2014-08-12T10:39:34Z</time>
      </trkpt>
      <trkpt lat="44.49723" lon="6.21549">
        <ele>1692.0578613</ele>
        <time>2014-08-12T10:39:54Z</time>
      </trkpt>
      <trkpt lat="44.49709" lon="6.2155">
        <ele>1693.9804688</ele>
        <time>2014-08-12T10:40:08Z</time>
      </trkpt>
      <trkpt lat="44.49705" lon="6.21554">
        <ele>1694.4609375</ele>
        <time>2014-08-12T10:40:13Z</time>
      </trkpt>
      <trkpt lat="44.49687" lon="6.21586">
        <ele>1698.3061523</ele>
        <time>2014-08-12T10:40:39Z</time>
      </trkpt>
      <trkpt lat="44.49676" lon="6.21599">
        <ele>1699.748291</ele>
        <time>2014-08-12T10:40:55Z</time>
      </trkpt>
      <trkpt lat="44.49665" lon="6.21606">
        <ele>1701.1901855</ele>
        <time>2014-08-12T10:41:06Z</time>
      </trkpt>
      <trkpt lat="44.49664" lon="6.21608">
        <ele>1701.1901855</ele>
        <time>2014-08-12T10:41:08Z</time>
      </trkpt>
      <trkpt lat="44.49646" lon="6.21619">
        <ele>1704.5546875</ele>
        <time>2014-08-12T10:41:30Z</time>
      </trkpt>
      <trkpt lat="44.49641" lon="6.21624">
        <ele>1705.0354004</ele>
        <time>2014-08-12T10:41:37Z</time>
      </trkpt>
      <trkpt lat="44.49622" lon="6.21639">
        <ele>1707.9194336</ele>
        <time>2014-08-12T10:41:57Z</time>
      </trkpt>
      <trkpt lat="44.496" lon="6.21654">
        <ele>1709.3615723</ele>
        <time>2014-08-12T10:42:18Z</time>
      </trkpt>
      <trkpt lat="44.4959" lon="6.21667">
        <ele>1709.842041</ele>
        <time>2014-08-12T10:42:29Z</time>
      </trkpt>
      <trkpt lat="44.49584" lon="6.21683">
        <ele>1711.2841797</ele>
        <time>2014-08-12T10:42:40Z</time>
      </trkpt>
      <trkpt lat="44.49579" lon="6.21704">
        <ele>1713.6872559</ele>
        <time>2014-08-12T10:43:00Z</time>
      </trkpt>
      <trkpt lat="44.49575" lon="6.21714">
        <ele>1714.6486816</ele>
        <time>2014-08-12T10:43:34Z</time>
      </trkpt>
      <trkpt lat="44.49568" lon="6.21737">
        <ele>1718.4938965</ele>
        <time>2014-08-12T10:43:53Z</time>
      </trkpt>
      <trkpt lat="44.4956" lon="6.21759">
        <ele>1721.3776855</ele>
        <time>2014-08-12T10:44:16Z</time>
      </trkpt>
      <trkpt lat="44.49555" lon="6.21785">
        <ele>1723.7810059</ele>
        <time>2014-08-12T10:44:41Z</time>
      </trkpt>
      <trkpt lat="44.49558" lon="6.21814">
        <ele>1726.6652832</ele>
        <time>2014-08-12T10:45:07Z</time>
      </trkpt>
      <trkpt lat="44.4956" lon="6.21838">
        <ele>1728.1071777</ele>
        <time>2014-08-12T10:45:30Z</time>
      </trkpt>
      <trkpt lat="44.4956" lon="6.21842">
        <ele>1728.5878906</ele>
        <time>2014-08-12T10:45:37Z</time>
      </trkpt>
      <trkpt lat="44.49563" lon="6.21859">
        <ele>1728.5878906</ele>
        <time>2014-08-12T10:45:45Z</time>
      </trkpt>
      <trkpt lat="44.49573" lon="6.21908">
        <ele>1729.5490723</ele>
        <time>2014-08-12T10:46:08Z</time>
      </trkpt>
      <trkpt lat="44.49581" lon="6.21959">
        <ele>1728.5878906</ele>
        <time>2014-08-12T10:46:20Z</time>
      </trkpt>
      <trkpt lat="44.49596" lon="6.22023">
        <ele>1725.7038574</ele>
        <time>2014-08-12T10:46:32Z</time>
      </trkpt>
      <trkpt lat="44.49608" lon="6.22056">
        <ele>1723.7810059</ele>
        <time>2014-08-12T10:46:45Z</time>
      </trkpt>
      <trkpt lat="44.49612" lon="6.22057">
        <ele>1723.7810059</ele>
        <time>2014-08-12T10:47:02Z</time>
      </trkpt>
      <trkpt lat="44.49609" lon="6.22057">
        <ele>1723.7810059</ele>
        <time>2014-08-12T10:48:19Z</time>
      </trkpt>
      <trkpt lat="44.49609" lon="6.22058">
        <ele>1724.2619629</ele>
        <time>2014-08-12T10:48:25Z</time>
      </trkpt>
      <trkpt lat="44.49608" lon="6.22109">
        <ele>1722.3391113</ele>
        <time>2014-08-12T10:48:36Z</time>
      </trkpt>
      <trkpt lat="44.49609" lon="6.22145">
        <ele>1721.3776855</ele>
        <time>2014-08-12T10:48:46Z</time>
      </trkpt>
      <trkpt lat="44.49615" lon="6.2217">
        <ele>1719.935791</ele>
        <time>2014-08-12T10:49:01Z</time>
      </trkpt>
      <trkpt lat="44.49615" lon="6.2217">
        <ele>1720.4165039</ele>
        <time>2014-08-12T10:49:48Z</time>
      </trkpt>
      <trkpt lat="44.49615" lon="6.2217">
        <ele>1720.4165039</ele>
        <time>2014-08-12T10:49:57Z</time>
      </trkpt>
      <trkpt lat="44.49615" lon="6.2217">
        <ele>1719.935791</ele>
        <time>2014-08-12T10:50:07Z</time>
      </trkpt>
      <trkpt lat="44.49615" lon="6.2217">
        <ele>1719.4553223</ele>
        <time>2014-08-12T10:50:18Z</time>
      </trkpt>
      <trkpt lat="44.49612" lon="6.22163">
        <ele>1719.935791</ele>
        <time>2014-08-12T10:50:34Z</time>
      </trkpt>
      <trkpt lat="44.4961" lon="6.22153">
        <ele>1720.8972168</ele>
        <time>2014-08-12T10:50:44Z</time>
      </trkpt>
      <trkpt lat="44.49597" lon="6.22123">
        <ele>1721.8583984</ele>
        <time>2014-08-12T10:51:10Z</time>
      </trkpt>
      <trkpt lat="44.49596" lon="6.22117">
        <ele>1722.8198242</ele>
        <time>2014-08-12T10:51:15Z</time>
      </trkpt>
      <trkpt lat="44.49593" lon="6.22093">
        <ele>1725.2231445</ele>
        <time>2014-08-12T10:51:38Z</time>
      </trkpt>
      <trkpt lat="44.49594" lon="6.22056">
        <ele>1725.7038574</ele>
        <time>2014-08-12T10:52:08Z</time>
      </trkpt>
      <trkpt lat="44.49597" lon="6.22036">
        <ele>1725.7038574</ele>
        <time>2014-08-12T10:52:26Z</time>
      </trkpt>
      <trkpt lat="44.49606" lon="6.22048">
        <ele>1724.7426758</ele>
        <time>2014-08-12T10:52:41Z</time>
      </trkpt>
      <trkpt lat="44.49608" lon="6.22069">
        <ele>1723.7810059</ele>
        <time>2014-08-12T10:53:02Z</time>
      </trkpt>
      <trkpt lat="44.49607" lon="6.22079">
        <ele>1723.7810059</ele>
        <time>2014-08-12T10:53:27Z</time>
      </trkpt>
      <trkpt lat="44.49605" lon="6.22106">
        <ele>1722.3391113</ele>
        <time>2014-08-12T10:53:52Z</time>
      </trkpt>
      <trkpt lat="44.49611" lon="6.22137">
        <ele>1721.8583984</ele>
        <time>2014-08-12T10:54:25Z</time>
      </trkpt>
      <trkpt lat="44.49616" lon="6.22153">
        <ele>1721.3776855</ele>
        <time>2014-08-12T10:54:52Z</time>
      </trkpt>
      <trkpt lat="44.49617" lon="6.22157">
        <ele>1720.8972168</ele>
        <time>2014-08-12T10:55:06Z</time>
      </trkpt>
      <trkpt lat="44.49617" lon="6.22157">
        <ele>1720.4165039</ele>
        <time>2014-08-12T10:55:19Z</time>
      </trkpt>
      <trkpt lat="44.49618" lon="6.22158">
        <ele>1720.4165039</ele>
        <time>2014-08-12T10:56:11Z</time>
      </trkpt>
      <trkpt lat="44.49618" lon="6.2216">
        <ele>1723.3005371</ele>
        <time>2014-08-12T11:09:09Z</time>
      </trkpt>
      <trkpt lat="44.49619" lon="6.22156">
        <ele>1725.2231445</ele>
        <time>2014-08-12T11:16:14Z</time>
      </trkpt>
      <trkpt lat="44.49619" lon="6.22149">
        <ele>1725.2231445</ele>
        <time>2014-08-12T11:16:33Z</time>
      </trkpt>
      <trkpt lat="44.49619" lon="6.2215">
        <ele>1725.7038574</ele>
        <time>2014-08-12T11:17:00Z</time>
      </trkpt>
      <trkpt lat="44.49617" lon="6.22148">
        <ele>1725.7038574</ele>
        <time>2014-08-12T11:17:30Z</time>
      </trkpt>
      <trkpt lat="44.49617" lon="6.22147">
        <ele>1725.7038574</ele>
        <time>2014-08-12T11:18:03Z</time>
      </trkpt>
      <trkpt lat="44.49618" lon="6.22149">
        <ele>1725.7038574</ele>
        <time>2014-08-12T11:18:35Z</time>
      </trkpt>
      <trkpt lat="44.49618" lon="6.22149">
        <ele>1725.7038574</ele>
        <time>2014-08-12T11:18:56Z</time>
      </trkpt>
      <trkpt lat="44.49618" lon="6.22149">
        <ele>1724.7426758</ele>
        <time>2014-08-12T11:20:16Z</time>
      </trkpt>
      <trkpt lat="44.49619" lon="6.22153">
        <ele>1725.2231445</ele>
        <time>2014-08-12T11:20:42Z</time>
      </trkpt>
      <trkpt lat="44.49618" lon="6.22152">
        <ele>1724.7426758</ele>
        <time>2014-08-12T11:20:50Z</time>
      </trkpt>
      <trkpt lat="44.49609" lon="6.2211">
        <ele>1725.2231445</ele>
        <time>2014-08-12T11:21:04Z</time>
      </trkpt>
      <trkpt lat="44.4961" lon="6.2206">
        <ele>1728.1071777</ele>
        <time>2014-08-12T11:21:22Z</time>
      </trkpt>
      <trkpt lat="44.49594" lon="6.22002">
        <ele>1730.0297852</ele>
        <time>2014-08-12T11:21:45Z</time>
      </trkpt>
      <trkpt lat="44.49584" lon="6.21956">
        <ele>1731.9523926</ele>
        <time>2014-08-12T11:22:04Z</time>
      </trkpt>
      <trkpt lat="44.49579" lon="6.21912">
        <ele>1733.3942871</ele>
        <time>2014-08-12T11:22:22Z</time>
      </trkpt>
      <trkpt lat="44.49571" lon="6.21862">
        <ele>1733.3942871</ele>
        <time>2014-08-12T11:22:39Z</time>
      </trkpt>
      <trkpt lat="44.49558" lon="6.218">
        <ele>1731.4716797</ele>
        <time>2014-08-12T11:22:51Z</time>
      </trkpt>
      <trkpt lat="44.49559" lon="6.21775">
        <ele>1729.5490723</ele>
        <time>2014-08-12T11:22:54Z</time>
      </trkpt>
      <trkpt lat="44.49566" lon="6.21751">
        <ele>1727.1459961</ele>
        <time>2014-08-12T11:22:57Z</time>
      </trkpt>
      <trkpt lat="44.49569" lon="6.21742">
        <ele>1726.1845703</ele>
        <time>2014-08-12T11:22:58Z</time>
      </trkpt>
      <trkpt lat="44.4958" lon="6.21716">
        <ele>1724.2619629</ele>
        <time>2014-08-12T11:23:01Z</time>
      </trkpt>
      <trkpt lat="44.49586" lon="6.21697">
        <ele>1719.4553223</ele>
        <time>2014-08-12T11:23:03Z</time>
      </trkpt>
      <trkpt lat="44.49588" lon="6.21688">
        <ele>1719.4553223</ele>
        <time>2014-08-12T11:23:04Z</time>
      </trkpt>
      <trkpt lat="44.49594" lon="6.21672">
        <ele>1718.0131836</ele>
        <time>2014-08-12T11:23:06Z</time>
      </trkpt>
      <trkpt lat="44.496" lon="6.21659">
        <ele>1716.0905762</ele>
        <time>2014-08-12T11:23:08Z</time>
      </trkpt>
      <trkpt lat="44.49608" lon="6.21651">
        <ele>1715.1293945</ele>
        <time>2014-08-12T11:23:10Z</time>
      </trkpt>
      <trkpt lat="44.49623" lon="6.21641">
        <ele>1714.1679688</ele>
        <time>2014-08-12T11:23:13Z</time>
      </trkpt>
      <trkpt lat="44.49653" lon="6.21618">
        <ele>1711.2841797</ele>
        <time>2014-08-12T11:23:18Z</time>
      </trkpt>
      <trkpt lat="44.49664" lon="6.2161">
        <ele>1710.3227539</ele>
        <time>2014-08-12T11:23:20Z</time>
      </trkpt>
      <trkpt lat="44.49676" lon="6.21602">
        <ele>1708.4001465</ele>
        <time>2014-08-12T11:23:22Z</time>
      </trkpt>
      <trkpt lat="44.49681" lon="6.21597">
        <ele>1707.4387207</ele>
        <time>2014-08-12T11:23:23Z</time>
      </trkpt>
      <trkpt lat="44.49699" lon="6.21574">
        <ele>1704.5546875</ele>
        <time>2014-08-12T11:23:27Z</time>
      </trkpt>
      <trkpt lat="44.49702" lon="6.21568">
        <ele>1703.112793</ele>
        <time>2014-08-12T11:23:28Z</time>
      </trkpt>
      <trkpt lat="44.49712" lon="6.21555">
        <ele>1701.6708984</ele>
        <time>2014-08-12T11:23:31Z</time>
      </trkpt>
      <trkpt lat="44.49726" lon="6.21551">
        <ele>1699.748291</ele>
        <time>2014-08-12T11:23:34Z</time>
      </trkpt>
      <trkpt lat="44.49732" lon="6.2155">
        <ele>1698.3061523</ele>
        <time>2014-08-12T11:23:35Z</time>
      </trkpt>
      <trkpt lat="44.49763" lon="6.21554">
        <ele>1694.4609375</ele>
        <time>2014-08-12T11:23:40Z</time>
      </trkpt>
      <trkpt lat="44.49785" lon="6.21561">
        <ele>1693.019043</ele>
        <time>2014-08-12T11:23:43Z</time>
      </trkpt>
      <trkpt lat="44.49793" lon="6.21564">
        <ele>1691.5769043</ele>
        <time>2014-08-12T11:23:44Z</time>
      </trkpt>
      <trkpt lat="44.49819" lon="6.21576">
        <ele>1689.6542969</ele>
        <time>2014-08-12T11:23:48Z</time>
      </trkpt>
      <trkpt lat="44.49831" lon="6.21585">
        <ele>1688.2124023</ele>
        <time>2014-08-12T11:23:50Z</time>
      </trkpt>
      <trkpt lat="44.49837" lon="6.21588">
        <ele>1686.7702637</ele>
        <time>2014-08-12T11:23:51Z</time>
      </trkpt>
      <trkpt lat="44.49854" lon="6.21588">
        <ele>1683.4057617</ele>
        <time>2014-08-12T11:23:54Z</time>
      </trkpt>
      <trkpt lat="44.4986" lon="6.21582">
        <ele>1683.4057617</ele>
        <time>2014-08-12T11:23:55Z</time>
      </trkpt>
      <trkpt lat="44.49872" lon="6.21566">
        <ele>1681.0026855</ele>
        <time>2014-08-12T11:23:57Z</time>
      </trkpt>
      <trkpt lat="44.49882" lon="6.21549">
        <ele>1678.5993652</ele>
        <time>2014-08-12T11:23:59Z</time>
      </trkpt>
      <trkpt lat="44.49895" lon="6.21524">
        <ele>1674.2731934</ele>
        <time>2014-08-12T11:24:02Z</time>
      </trkpt>
      <trkpt lat="44.49904" lon="6.21512">
        <ele>1672.3505859</ele>
        <time>2014-08-12T11:24:04Z</time>
      </trkpt>
      <trkpt lat="44.49916" lon="6.21504">
        <ele>1670.4279785</ele>
        <time>2014-08-12T11:24:06Z</time>
      </trkpt>
      <trkpt lat="44.49941" lon="6.21503">
        <ele>1667.5439453</ele>
        <time>2014-08-12T11:24:10Z</time>
      </trkpt>
      <trkpt lat="44.49947" lon="6.21506">
        <ele>1667.5439453</ele>
        <time>2014-08-12T11:24:11Z</time>
      </trkpt>
      <trkpt lat="44.49953" lon="6.21509">
        <ele>1665.621582</ele>
        <time>2014-08-12T11:24:12Z</time>
      </trkpt>
      <trkpt lat="44.49973" lon="6.21522">
        <ele>1664.1794434</ele>
        <time>2014-08-12T11:24:15Z</time>
      </trkpt>
      <trkpt lat="44.49997" lon="6.21534">
        <ele>1661.2956543</ele>
        <time>2014-08-12T11:24:18Z</time>
      </trkpt>
      <trkpt lat="44.50014" lon="6.21543">
        <ele>1659.3728027</ele>
        <time>2014-08-12T11:24:20Z</time>
      </trkpt>
      <trkpt lat="44.50039" lon="6.21558">
        <ele>1656.0080566</ele>
        <time>2014-08-12T11:24:24Z</time>
      </trkpt>
      <trkpt lat="44.50044" lon="6.21561">
        <ele>1656.0080566</ele>
        <time>2014-08-12T11:24:25Z</time>
      </trkpt>
      <trkpt lat="44.50053" lon="6.21567">
        <ele>1654.5661621</ele>
        <time>2014-08-12T11:24:27Z</time>
      </trkpt>
      <trkpt lat="44.50073" lon="6.21573">
        <ele>1651.682373</ele>
        <time>2014-08-12T11:24:31Z</time>
      </trkpt>
      <trkpt lat="44.50088" lon="6.21569">
        <ele>1650.2404785</ele>
        <time>2014-08-12T11:24:34Z</time>
      </trkpt>
      <trkpt lat="44.50098" lon="6.2156">
        <ele>1648.7983398</ele>
        <time>2014-08-12T11:24:36Z</time>
      </trkpt>
      <trkpt lat="44.50105" lon="6.21549">
        <ele>1645.4338379</ele>
        <time>2014-08-12T11:24:38Z</time>
      </trkpt>
      <trkpt lat="44.50107" lon="6.21543">
        <ele>1645.4338379</ele>
        <time>2014-08-12T11:24:39Z</time>
      </trkpt>
      <trkpt lat="44.50111" lon="6.21534">
        <ele>1643.9916992</ele>
        <time>2014-08-12T11:24:41Z</time>
      </trkpt>
      <trkpt lat="44.50116" lon="6.21527">
        <ele>1642.5498047</ele>
        <time>2014-08-12T11:24:43Z</time>
      </trkpt>
      <trkpt lat="44.50119" lon="6.21524">
        <ele>1642.0690918</ele>
        <time>2014-08-12T11:24:44Z</time>
      </trkpt>
      <trkpt lat="44.50136" lon="6.21523">
        <ele>1640.1464844</ele>
        <time>2014-08-12T11:24:48Z</time>
      </trkpt>
      <trkpt lat="44.50144" lon="6.2153">
        <ele>1639.6657715</ele>
        <time>2014-08-12T11:24:50Z</time>
      </trkpt>
      <trkpt lat="44.50169" lon="6.21552">
        <ele>1637.2624512</ele>
        <time>2014-08-12T11:24:57Z</time>
      </trkpt>
      <trkpt lat="44.50187" lon="6.21569">
        <ele>1635.3398438</ele>
        <time>2014-08-12T11:25:02Z</time>
      </trkpt>
      <trkpt lat="44.50207" lon="6.21586">
        <ele>1631.9753418</ele>
        <time>2014-08-12T11:25:14Z</time>
      </trkpt>
      <trkpt lat="44.50217" lon="6.21596">
        <ele>1631.0141602</ele>
        <time>2014-08-12T11:25:25Z</time>
      </trkpt>
      <trkpt lat="44.50218" lon="6.21596">
        <ele>1630.5334473</ele>
        <time>2014-08-12T11:25:26Z</time>
      </trkpt>
      <trkpt lat="44.50222" lon="6.21593">
        <ele>1629.5720215</ele>
        <time>2014-08-12T11:25:46Z</time>
      </trkpt>
      <trkpt lat="44.50223" lon="6.21589">
        <ele>1630.0527344</ele>
        <time>2014-08-12T11:26:14Z</time>
      </trkpt>
      <trkpt lat="44.50237" lon="6.21583">
        <ele>1629.0913086</ele>
        <time>2014-08-12T11:27:04Z</time>
      </trkpt>
      <trkpt lat="44.50263" lon="6.21578">
        <ele>1627.6491699</ele>
        <time>2014-08-12T11:27:16Z</time>
      </trkpt>
      <trkpt lat="44.50283" lon="6.21591">
        <ele>1625.7265625</ele>
        <time>2014-08-12T11:27:27Z</time>
      </trkpt>
      <trkpt lat="44.50297" lon="6.21596">
        <ele>1625.2458496</ele>
        <time>2014-08-12T11:27:41Z</time>
      </trkpt>
      <trkpt lat="44.50302" lon="6.21601">
        <ele>1624.7653809</ele>
        <time>2014-08-12T11:27:47Z</time>
      </trkpt>
      <trkpt lat="44.50317" lon="6.21617">
        <ele>1623.8039551</ele>
        <time>2014-08-12T11:28:04Z</time>
      </trkpt>
      <trkpt lat="44.50323" lon="6.21627">
        <ele>1622.8427734</ele>
        <time>2014-08-12T11:28:17Z</time>
      </trkpt>
      <trkpt lat="44.50332" lon="6.21635">
        <ele>1622.8427734</ele>
        <time>2014-08-12T11:28:25Z</time>
      </trkpt>
      <trkpt lat="44.50335" lon="6.21641">
        <ele>1621.4006348</ele>
        <time>2014-08-12T11:28:31Z</time>
      </trkpt>
      <trkpt lat="44.50337" lon="6.21651">
        <ele>1619.9587402</ele>
        <time>2014-08-12T11:28:41Z</time>
      </trkpt>
      <trkpt lat="44.50354" lon="6.21655">
        <ele>1618.5168457</ele>
        <time>2014-08-12T11:28:53Z</time>
      </trkpt>
      <trkpt lat="44.50376" lon="6.21675">
        <ele>1616.5942383</ele>
        <time>2014-08-12T11:29:01Z</time>
      </trkpt>
      <trkpt lat="44.50405" lon="6.21692">
        <ele>1613.2297363</ele>
        <time>2014-08-12T11:29:09Z</time>
      </trkpt>
      <trkpt lat="44.50439" lon="6.21707">
        <ele>1610.8261719</ele>
        <time>2014-08-12T11:29:18Z</time>
      </trkpt>
      <trkpt lat="44.50469" lon="6.21707">
        <ele>1608.4228516</ele>
        <time>2014-08-12T11:29:24Z</time>
      </trkpt>
      <trkpt lat="44.50478" lon="6.21706">
        <ele>1607.4616699</ele>
        <time>2014-08-12T11:29:26Z</time>
      </trkpt>
      <trkpt lat="44.50486" lon="6.21705">
        <ele>1606.5002441</ele>
        <time>2014-08-12T11:29:28Z</time>
      </trkpt>
      <trkpt lat="44.50494" lon="6.21707">
        <ele>1605.0583496</ele>
        <time>2014-08-12T11:29:30Z</time>
      </trkpt>
      <trkpt lat="44.50501" lon="6.2171">
        <ele>1604.5776367</ele>
        <time>2014-08-12T11:29:32Z</time>
      </trkpt>
      <trkpt lat="44.50519" lon="6.21725">
        <ele>1605.0583496</ele>
        <time>2014-08-12T11:29:37Z</time>
      </trkpt>
      <trkpt lat="44.50541" lon="6.21741">
        <ele>1604.5776367</ele>
        <time>2014-08-12T11:29:42Z</time>
      </trkpt>
      <trkpt lat="44.5056" lon="6.21754">
        <ele>1606.0195313</ele>
        <time>2014-08-12T11:29:51Z</time>
      </trkpt>
      <trkpt lat="44.50564" lon="6.21762">
        <ele>1606.0195313</ele>
        <time>2014-08-12T11:30:01Z</time>
      </trkpt>
      <trkpt lat="44.50598" lon="6.21781">
        <ele>1606.5002441</ele>
        <time>2014-08-12T11:30:13Z</time>
      </trkpt>
      <trkpt lat="44.506" lon="6.21783">
        <ele>1606.980957</ele>
        <time>2014-08-12T11:30:14Z</time>
      </trkpt>
      <trkpt lat="44.50604" lon="6.21783">
        <ele>1606.5002441</ele>
        <time>2014-08-12T11:30:16Z</time>
      </trkpt>
      <trkpt lat="44.50621" lon="6.21789">
        <ele>1606.5002441</ele>
        <time>2014-08-12T11:30:24Z</time>
      </trkpt>
      <trkpt lat="44.50664" lon="6.21777">
        <ele>1603.1357422</ele>
        <time>2014-08-12T11:30:33Z</time>
      </trkpt>
      <trkpt lat="44.50682" lon="6.21768">
        <ele>1601.6938477</ele>
        <time>2014-08-12T11:30:39Z</time>
      </trkpt>
      <trkpt lat="44.50697" lon="6.21771">
        <ele>1600.7324219</ele>
        <time>2014-08-12T11:30:44Z</time>
      </trkpt>
      <trkpt lat="44.5073" lon="6.21774">
        <ele>1598.8098145</ele>
        <time>2014-08-12T11:30:53Z</time>
      </trkpt>
      <trkpt lat="44.50763" lon="6.2176">
        <ele>1597.8486328</ele>
        <time>2014-08-12T11:31:04Z</time>
      </trkpt>
      <trkpt lat="44.50775" lon="6.21759">
        <ele>1598.3291016</ele>
        <time>2014-08-12T11:31:08Z</time>
      </trkpt>
      <trkpt lat="44.50782" lon="6.21772">
        <ele>1599.7712402</ele>
        <time>2014-08-12T11:31:17Z</time>
      </trkpt>
      <trkpt lat="44.50783" lon="6.21781">
        <ele>1600.7324219</ele>
        <time>2014-08-12T11:31:21Z</time>
      </trkpt>
      <trkpt lat="44.50783" lon="6.21794">
        <ele>1602.1743164</ele>
        <time>2014-08-12T11:31:26Z</time>
      </trkpt>
      <trkpt lat="44.50791" lon="6.2181">
        <ele>1604.097168</ele>
        <time>2014-08-12T11:31:34Z</time>
      </trkpt>
      <trkpt lat="44.50818" lon="6.21813">
        <ele>1606.980957</ele>
        <time>2014-08-12T11:31:51Z</time>
      </trkpt>
      <trkpt lat="44.50833" lon="6.21817">
        <ele>1607.4616699</ele>
        <time>2014-08-12T11:32:01Z</time>
      </trkpt>
      <trkpt lat="44.50846" lon="6.21818">
        <ele>1606.980957</ele>
        <time>2014-08-12T11:32:07Z</time>
      </trkpt>
      <trkpt lat="44.50855" lon="6.21826">
        <ele>1606.980957</ele>
        <time>2014-08-12T11:32:11Z</time>
      </trkpt>
      <trkpt lat="44.50871" lon="6.21856">
        <ele>1605.0583496</ele>
        <time>2014-08-12T11:32:22Z</time>
      </trkpt>
      <trkpt lat="44.50882" lon="6.21889">
        <ele>1602.1743164</ele>
        <time>2014-08-12T11:32:34Z</time>
      </trkpt>
      <trkpt lat="44.50865" lon="6.21926">
        <ele>1601.2131348</ele>
        <time>2014-08-12T11:32:49Z</time>
      </trkpt>
      <trkpt lat="44.50833" lon="6.21977">
        <ele>1597.8486328</ele>
        <time>2014-08-12T11:33:01Z</time>
      </trkpt>
      <trkpt lat="44.50822" lon="6.22021">
        <ele>1594.4836426</ele>
        <time>2014-08-12T11:33:12Z</time>
      </trkpt>
      <trkpt lat="44.5082" lon="6.22054">
        <ele>1592.0805664</ele>
        <time>2014-08-12T11:33:20Z</time>
      </trkpt>
      <trkpt lat="44.50815" lon="6.221">
        <ele>1589.1965332</ele>
        <time>2014-08-12T11:33:33Z</time>
      </trkpt>
      <trkpt lat="44.5083" lon="6.2213">
        <ele>1586.7932129</ele>
        <time>2014-08-12T11:33:45Z</time>
      </trkpt>
      <trkpt lat="44.50854" lon="6.22138">
        <ele>1583.9094238</ele>
        <time>2014-08-12T11:33:57Z</time>
      </trkpt>
      <trkpt lat="44.50856" lon="6.22139">
        <ele>1583.9094238</ele>
        <time>2014-08-12T11:33:58Z</time>
      </trkpt>
      <trkpt lat="44.50879" lon="6.22151">
        <ele>1581.9868164</ele>
        <time>2014-08-12T11:34:07Z</time>
      </trkpt>
      <trkpt lat="44.50893" lon="6.22158">
        <ele>1580.5449219</ele>
        <time>2014-08-12T11:34:13Z</time>
      </trkpt>
      <trkpt lat="44.50908" lon="6.22153">
        <ele>1580.064209</ele>
        <time>2014-08-12T11:34:17Z</time>
      </trkpt>
      <trkpt lat="44.50934" lon="6.22126">
        <ele>1578.1413574</ele>
        <time>2014-08-12T11:34:26Z</time>
      </trkpt>
      <trkpt lat="44.50961" lon="6.22063">
        <ele>1574.2961426</ele>
        <time>2014-08-12T11:34:40Z</time>
      </trkpt>
      <trkpt lat="44.50985" lon="6.22013">
        <ele>1571.8928223</ele>
        <time>2014-08-12T11:34:50Z</time>
      </trkpt>
      <trkpt lat="44.51006" lon="6.21968">
        <ele>1568.0476074</ele>
        <time>2014-08-12T11:35:01Z</time>
      </trkpt>
      <trkpt lat="44.51008" lon="6.21969">
        <ele>1568.0476074</ele>
        <time>2014-08-12T11:35:03Z</time>
      </trkpt>
      <trkpt lat="44.51008" lon="6.21983">
        <ele>1567.0864258</ele>
        <time>2014-08-12T11:35:08Z</time>
      </trkpt>
      <trkpt lat="44.51009" lon="6.21989">
        <ele>1566.6057129</ele>
        <time>2014-08-12T11:35:22Z</time>
      </trkpt>
      <trkpt lat="44.50993" lon="6.22033">
        <ele>1564.6831055</ele>
        <time>2014-08-12T11:35:35Z</time>
      </trkpt>
      <trkpt lat="44.50989" lon="6.2206">
        <ele>1561.7990723</ele>
        <time>2014-08-12T11:35:41Z</time>
      </trkpt>
      <trkpt lat="44.50985" lon="6.22098">
        <ele>1558.9150391</ele>
        <time>2014-08-12T11:35:52Z</time>
      </trkpt>
      <trkpt lat="44.50979" lon="6.22148">
        <ele>1555.0698242</ele>
        <time>2014-08-12T11:36:05Z</time>
      </trkpt>
      <trkpt lat="44.50978" lon="6.22156">
        <ele>1554.5891113</ele>
        <time>2014-08-12T11:36:07Z</time>
      </trkpt>
      <trkpt lat="44.50972" lon="6.22206">
        <ele>1550.7438965</ele>
        <time>2014-08-12T11:36:19Z</time>
      </trkpt>
      <trkpt lat="44.50972" lon="6.22253">
        <ele>1548.8212891</ele>
        <time>2014-08-12T11:36:27Z</time>
      </trkpt>
      <trkpt lat="44.50967" lon="6.22294">
        <ele>1546.4179688</ele>
        <time>2014-08-12T11:36:35Z</time>
      </trkpt>
      <trkpt lat="44.50946" lon="6.2234">
        <ele>1543.5339355</ele>
        <time>2014-08-12T11:36:51Z</time>
      </trkpt>
      <trkpt lat="44.50929" lon="6.22371">
        <ele>1540.6499023</ele>
        <time>2014-08-12T11:37:01Z</time>
      </trkpt>
      <trkpt lat="44.50912" lon="6.22394">
        <ele>1538.7275391</ele>
        <time>2014-08-12T11:37:10Z</time>
      </trkpt>
      <trkpt lat="44.50908" lon="6.22407">
        <ele>1538.2468262</ele>
        <time>2014-08-12T11:37:14Z</time>
      </trkpt>
      <trkpt lat="44.50913" lon="6.22427">
        <ele>1536.3242188</ele>
        <time>2014-08-12T11:37:21Z</time>
      </trkpt>
      <trkpt lat="44.50939" lon="6.2242">
        <ele>1534.4016113</ele>
        <time>2014-08-12T11:37:34Z</time>
      </trkpt>
      <trkpt lat="44.50942" lon="6.22417">
        <ele>1534.4016113</ele>
        <time>2014-08-12T11:37:36Z</time>
      </trkpt>
      <trkpt lat="44.50948" lon="6.22413">
        <ele>1533.9208984</ele>
        <time>2014-08-12T11:37:40Z</time>
      </trkpt>
      <trkpt lat="44.50976" lon="6.22387">
        <ele>1530.5561523</ele>
        <time>2014-08-12T11:37:52Z</time>
      </trkpt>
      <trkpt lat="44.50999" lon="6.22348">
        <ele>1527.6721191</ele>
        <time>2014-08-12T11:38:03Z</time>
      </trkpt>
      <trkpt lat="44.51009" lon="6.22337">
        <ele>1525.7495117</ele>
        <time>2014-08-12T11:38:07Z</time>
      </trkpt>
      <trkpt lat="44.51035" lon="6.22306">
        <ele>1522.3850098</ele>
        <time>2014-08-12T11:38:19Z</time>
      </trkpt>
      <trkpt lat="44.51057" lon="6.22281">
        <ele>1519.5012207</ele>
        <time>2014-08-12T11:38:28Z</time>
      </trkpt>
      <trkpt lat="44.51072" lon="6.22258">
        <ele>1516.6171875</ele>
        <time>2014-08-12T11:38:37Z</time>
      </trkpt>
      <trkpt lat="44.51083" lon="6.22237">
        <ele>1514.6943359</ele>
        <time>2014-08-12T11:38:44Z</time>
      </trkpt>
      <trkpt lat="44.51089" lon="6.22234">
        <ele>1514.213623</ele>
        <time>2014-08-12T11:38:48Z</time>
      </trkpt>
      <trkpt lat="44.51088" lon="6.22247">
        <ele>1512.7717285</ele>
        <time>2014-08-12T11:38:55Z</time>
      </trkpt>
      <trkpt lat="44.51076" lon="6.22291">
        <ele>1510.8491211</ele>
        <time>2014-08-12T11:39:09Z</time>
      </trkpt>
      <trkpt lat="44.51066" lon="6.22328">
        <ele>1507.965332</ele>
        <time>2014-08-12T11:39:24Z</time>
      </trkpt>
      <trkpt lat="44.51057" lon="6.22363">
        <ele>1505.5620117</ele>
        <time>2014-08-12T11:39:35Z</time>
      </trkpt>
      <trkpt lat="44.51042" lon="6.22404">
        <ele>1502.1972656</ele>
        <time>2014-08-12T11:39:50Z</time>
      </trkpt>
      <trkpt lat="44.51039" lon="6.22421">
        <ele>1500.7553711</ele>
        <time>2014-08-12T11:39:54Z</time>
      </trkpt>
      <trkpt lat="44.51036" lon="6.22448">
        <ele>1499.3132324</ele>
        <time>2014-08-12T11:39:59Z</time>
      </trkpt>
      <trkpt lat="44.51032" lon="6.22484">
        <ele>1496.4294434</ele>
        <time>2014-08-12T11:40:07Z</time>
      </trkpt>
      <trkpt lat="44.51028" lon="6.22514">
        <ele>1494.5065918</ele>
        <time>2014-08-12T11:40:13Z</time>
      </trkpt>
      <trkpt lat="44.51025" lon="6.22557">
        <ele>1491.6228027</ele>
        <time>2014-08-12T11:40:25Z</time>
      </trkpt>
      <trkpt lat="44.51023" lon="6.22574">
        <ele>1490.1809082</ele>
        <time>2014-08-12T11:40:29Z</time>
      </trkpt>
      <trkpt lat="44.51024" lon="6.22604">
        <ele>1488.2583008</ele>
        <time>2014-08-12T11:40:36Z</time>
      </trkpt>
      <trkpt lat="44.51025" lon="6.22634">
        <ele>1485.3742676</ele>
        <time>2014-08-12T11:40:42Z</time>
      </trkpt>
      <trkpt lat="44.51025" lon="6.22639">
        <ele>1485.3742676</ele>
        <time>2014-08-12T11:40:43Z</time>
      </trkpt>
      <trkpt lat="44.51029" lon="6.2267">
        <ele>1483.451416</ele>
        <time>2014-08-12T11:40:50Z</time>
      </trkpt>
      <trkpt lat="44.51034" lon="6.22698">
        <ele>1480.0869141</ele>
        <time>2014-08-12T11:41:00Z</time>
      </trkpt>
      <trkpt lat="44.51036" lon="6.22718">
        <ele>1478.1643066</ele>
        <time>2014-08-12T11:41:06Z</time>
      </trkpt>
      <trkpt lat="44.51029" lon="6.22746">
        <ele>1475.7609863</ele>
        <time>2014-08-12T11:41:15Z</time>
      </trkpt>
      <trkpt lat="44.51028" lon="6.22794">
        <ele>1471.9157715</ele>
        <time>2014-08-12T11:41:26Z</time>
      </trkpt>
      <trkpt lat="44.51029" lon="6.22808">
        <ele>1471.4350586</ele>
        <time>2014-08-12T11:41:29Z</time>
      </trkpt>
      <trkpt lat="44.51029" lon="6.22863">
        <ele>1467.5895996</ele>
        <time>2014-08-12T11:41:40Z</time>
      </trkpt>
      <trkpt lat="44.51032" lon="6.22904">
        <ele>1464.7058105</ele>
        <time>2014-08-12T11:41:50Z</time>
      </trkpt>
      <trkpt lat="44.51028" lon="6.22925">
        <ele>1463.263916</ele>
        <time>2014-08-12T11:41:56Z</time>
      </trkpt>
      <trkpt lat="44.51014" lon="6.22954">
        <ele>1461.3413086</ele>
        <time>2014-08-12T11:42:08Z</time>
      </trkpt>
      <trkpt lat="44.5098" lon="6.22963">
        <ele>1458.4572754</ele>
        <time>2014-08-12T11:42:19Z</time>
      </trkpt>
      <trkpt lat="44.50964" lon="6.22967">
        <ele>1456.0539551</ele>
        <time>2014-08-12T11:42:24Z</time>
      </trkpt>
      <trkpt lat="44.50943" lon="6.2298">
        <ele>1452.2087402</ele>
        <time>2014-08-12T11:42:32Z</time>
      </trkpt>
      <trkpt lat="44.50941" lon="6.22982">
        <ele>1452.2087402</ele>
        <time>2014-08-12T11:42:33Z</time>
      </trkpt>
      <trkpt lat="44.50918" lon="6.23003">
        <ele>1448.8439941</ele>
        <time>2014-08-12T11:42:43Z</time>
      </trkpt>
      <trkpt lat="44.50893" lon="6.2302">
        <ele>1446.440918</ele>
        <time>2014-08-12T11:42:54Z</time>
      </trkpt>
      <trkpt lat="44.50897" lon="6.23033">
        <ele>1443.5568848</ele>
        <time>2014-08-12T11:43:02Z</time>
      </trkpt>
      <trkpt lat="44.50926" lon="6.2302">
        <ele>1442.1149902</ele>
        <time>2014-08-12T11:43:14Z</time>
      </trkpt>
      <trkpt lat="44.5095" lon="6.23014">
        <ele>1438.7504883</ele>
        <time>2014-08-12T11:43:25Z</time>
      </trkpt>
      <trkpt lat="44.50976" lon="6.23012">
        <ele>1435.8662109</ele>
        <time>2014-08-12T11:43:34Z</time>
      </trkpt>
      <trkpt lat="44.50994" lon="6.23017">
        <ele>1433.4628906</ele>
        <time>2014-08-12T11:43:40Z</time>
      </trkpt>
      <trkpt lat="44.51018" lon="6.2302">
        <ele>1430.5791016</ele>
        <time>2014-08-12T11:43:50Z</time>
      </trkpt>
      <trkpt lat="44.51055" lon="6.23013">
        <ele>1426.7338867</ele>
        <time>2014-08-12T11:44:02Z</time>
      </trkpt>
      <trkpt lat="44.51089" lon="6.23007">
        <ele>1423.3693848</ele>
        <time>2014-08-12T11:44:14Z</time>
      </trkpt>
      <trkpt lat="44.51117" lon="6.22999">
        <ele>1420.4853516</ele>
        <time>2014-08-12T11:44:23Z</time>
      </trkpt>
      <trkpt lat="44.51141" lon="6.22982">
        <ele>1416.6398926</ele>
        <time>2014-08-12T11:44:32Z</time>
      </trkpt>
      <trkpt lat="44.51152" lon="6.22969">
        <ele>1415.6787109</ele>
        <time>2014-08-12T11:44:36Z</time>
      </trkpt>
      <trkpt lat="44.51174" lon="6.22952">
        <ele>1412.3139648</ele>
        <time>2014-08-12T11:44:44Z</time>
      </trkpt>
      <trkpt lat="44.51195" lon="6.22932">
        <ele>1409.4301758</ele>
        <time>2014-08-12T11:44:55Z</time>
      </trkpt>
      <trkpt lat="44.51216" lon="6.22923">
        <ele>1407.0268555</ele>
        <time>2014-08-12T11:45:03Z</time>
      </trkpt>
      <trkpt lat="44.5124" lon="6.22938">
        <ele>1405.104248</ele>
        <time>2014-08-12T11:45:15Z</time>
      </trkpt>
      <trkpt lat="44.51273" lon="6.22976">
        <ele>1402.7006836</ele>
        <time>2014-08-12T11:45:29Z</time>
      </trkpt>
      <trkpt lat="44.51298" lon="6.23024">
        <ele>1403.1813965</ele>
        <time>2014-08-12T11:45:45Z</time>
      </trkpt>
      <trkpt lat="44.51299" lon="6.23026">
        <ele>1403.1813965</ele>
        <time>2014-08-12T11:45:46Z</time>
      </trkpt>
      <trkpt lat="44.51302" lon="6.23038">
        <ele>1403.1813965</ele>
        <time>2014-08-12T11:45:51Z</time>
      </trkpt>
      <trkpt lat="44.51296" lon="6.23049">
        <ele>1403.6621094</ele>
        <time>2014-08-12T11:45:58Z</time>
      </trkpt>
      <trkpt lat="44.51287" lon="6.23052">
        <ele>1403.6621094</ele>
        <time>2014-08-12T11:46:02Z</time>
      </trkpt>
      <trkpt lat="44.51269" lon="6.23066">
        <ele>1403.1813965</ele>
        <time>2014-08-12T11:46:09Z</time>
      </trkpt>
      <trkpt lat="44.51264" lon="6.23074">
        <ele>1401.739502</ele>
        <time>2014-08-12T11:46:12Z</time>
      </trkpt>
      <trkpt lat="44.51258" lon="6.23121">
        <ele>1401.2587891</ele>
        <time>2014-08-12T11:46:24Z</time>
      </trkpt>
      <trkpt lat="44.51242" lon="6.23157">
        <ele>1401.2587891</ele>
        <time>2014-08-12T11:46:38Z</time>
      </trkpt>
      <trkpt lat="44.51208" lon="6.23172">
        <ele>1397.8942871</ele>
        <time>2014-08-12T11:46:51Z</time>
      </trkpt>
      <trkpt lat="44.51168" lon="6.23194">
        <ele>1395.0102539</ele>
        <time>2014-08-12T11:47:08Z</time>
      </trkpt>
      <trkpt lat="44.51128" lon="6.23212">
        <ele>1391.645752</ele>
        <time>2014-08-12T11:47:21Z</time>
      </trkpt>
      <trkpt lat="44.51106" lon="6.23242">
        <ele>1388.7619629</ele>
        <time>2014-08-12T11:47:31Z</time>
      </trkpt>
      <trkpt lat="44.51105" lon="6.23254">
        <ele>1387.800293</ele>
        <time>2014-08-12T11:47:34Z</time>
      </trkpt>
      <trkpt lat="44.51096" lon="6.23277">
        <ele>1384.435791</ele>
        <time>2014-08-12T11:47:42Z</time>
      </trkpt>
      <trkpt lat="44.51085" lon="6.23305">
        <ele>1381.0712891</ele>
        <time>2014-08-12T11:47:53Z</time>
      </trkpt>
      <trkpt lat="44.51085" lon="6.23327">
        <ele>1378.1872559</ele>
        <time>2014-08-12T11:48:00Z</time>
      </trkpt>
      <trkpt lat="44.51084" lon="6.23329">
        <ele>1378.1872559</ele>
        <time>2014-08-12T11:48:01Z</time>
      </trkpt>
      <trkpt lat="44.51072" lon="6.23325">
        <ele>1376.2646484</ele>
        <time>2014-08-12T11:48:09Z</time>
      </trkpt>
      <trkpt lat="44.51073" lon="6.23318">
        <ele>1375.7839355</ele>
        <time>2014-08-12T11:48:14Z</time>
      </trkpt>
      <trkpt lat="44.51081" lon="6.23272">
        <ele>1371.9384766</ele>
        <time>2014-08-12T11:48:29Z</time>
      </trkpt>
      <trkpt lat="44.51081" lon="6.2327">
        <ele>1371.9384766</ele>
        <time>2014-08-12T11:48:30Z</time>
      </trkpt>
      <trkpt lat="44.51085" lon="6.23264">
        <ele>1370.0158691</ele>
        <time>2014-08-12T11:48:44Z</time>
      </trkpt>
      <trkpt lat="44.51086" lon="6.23257">
        <ele>1369.5354004</ele>
        <time>2014-08-12T11:49:14Z</time>
      </trkpt>
      <trkpt lat="44.51086" lon="6.23257">
        <ele>1369.0546875</ele>
        <time>2014-08-12T11:49:15Z</time>
      </trkpt>
      <trkpt lat="44.51084" lon="6.23243">
        <ele>1368.5739746</ele>
        <time>2014-08-12T11:49:21Z</time>
      </trkpt>
      <trkpt lat="44.51077" lon="6.23236">
        <ele>1367.1320801</ele>
        <time>2014-08-12T11:49:25Z</time>
      </trkpt>
      <trkpt lat="44.51077" lon="6.23236">
        <ele>1366.6513672</ele>
        <time>2014-08-12T11:49:26Z</time>
      </trkpt>
      <trkpt lat="44.51072" lon="6.23227">
        <ele>1366.1706543</ele>
        <time>2014-08-12T11:49:31Z</time>
      </trkpt>
      <trkpt lat="44.51075" lon="6.23201">
        <ele>1363.2868652</ele>
        <time>2014-08-12T11:49:40Z</time>
      </trkpt>
      <trkpt lat="44.51068" lon="6.23166">
        <ele>1360.8835449</ele>
        <time>2014-08-12T11:49:50Z</time>
      </trkpt>
      <trkpt lat="44.51053" lon="6.23176">
        <ele>1358.4802246</ele>
        <time>2014-08-12T11:49:57Z</time>
      </trkpt>
      <trkpt lat="44.51053" lon="6.23196">
        <ele>1356.5576172</ele>
        <time>2014-08-12T11:50:03Z</time>
      </trkpt>
      <trkpt lat="44.51051" lon="6.2321">
        <ele>1355.5961914</ele>
        <time>2014-08-12T11:50:07Z</time>
      </trkpt>
      <trkpt lat="44.51043" lon="6.23241">
        <ele>1351.2702637</ele>
        <time>2014-08-12T11:50:16Z</time>
      </trkpt>
      <trkpt lat="44.51043" lon="6.23244">
        <ele>1351.2702637</ele>
        <time>2014-08-12T11:50:17Z</time>
      </trkpt>
      <trkpt lat="44.51039" lon="6.23275">
        <ele>1347.9057617</ele>
        <time>2014-08-12T11:50:27Z</time>
      </trkpt>
      <trkpt lat="44.51032" lon="6.23291">
        <ele>1345.5024414</ele>
        <time>2014-08-12T11:50:33Z</time>
      </trkpt>
      <trkpt lat="44.5102" lon="6.2333">
        <ele>1342.6186523</ele>
        <time>2014-08-12T11:50:45Z</time>
      </trkpt>
      <trkpt lat="44.51022" lon="6.23338">
        <ele>1341.6572266</ele>
        <time>2014-08-12T11:50:47Z</time>
      </trkpt>
      <trkpt lat="44.51028" lon="6.2338">
        <ele>1337.8117676</ele>
        <time>2014-08-12T11:50:57Z</time>
      </trkpt>
      <trkpt lat="44.51032" lon="6.23417">
        <ele>1333.9665527</ele>
        <time>2014-08-12T11:51:06Z</time>
      </trkpt>
      <trkpt lat="44.51032" lon="6.23422">
        <ele>1333.9665527</ele>
        <time>2014-08-12T11:51:07Z</time>
      </trkpt>
      <trkpt lat="44.5103" lon="6.23447">
        <ele>1331.0827637</ele>
        <time>2014-08-12T11:51:16Z</time>
      </trkpt>
      <trkpt lat="44.51028" lon="6.23462">
        <ele>1328.1987305</ele>
        <time>2014-08-12T11:51:21Z</time>
      </trkpt>
      <trkpt lat="44.51027" lon="6.2348">
        <ele>1326.7568359</ele>
        <time>2014-08-12T11:51:26Z</time>
      </trkpt>
      <trkpt lat="44.51025" lon="6.23493">
        <ele>1324.8342285</ele>
        <time>2014-08-12T11:51:31Z</time>
      </trkpt>
      <trkpt lat="44.51021" lon="6.23498">
        <ele>1324.8342285</ele>
        <time>2014-08-12T11:51:34Z</time>
      </trkpt>
      <trkpt lat="44.51018" lon="6.23509">
        <ele>1323.3920898</ele>
        <time>2014-08-12T11:51:38Z</time>
      </trkpt>
      <trkpt lat="44.51018" lon="6.23521">
        <ele>1321.9499512</ele>
        <time>2014-08-12T11:51:42Z</time>
      </trkpt>
      <trkpt lat="44.51017" lon="6.23528">
        <ele>1322.4306641</ele>
        <time>2014-08-12T11:51:44Z</time>
      </trkpt>
      <trkpt lat="44.51006" lon="6.23535">
        <ele>1319.546875</ele>
        <time>2014-08-12T11:51:51Z</time>
      </trkpt>
      <trkpt lat="44.51002" lon="6.23534">
        <ele>1318.5854492</ele>
        <time>2014-08-12T11:51:53Z</time>
      </trkpt>
      <trkpt lat="44.51001" lon="6.23532">
        <ele>1318.1047363</ele>
        <time>2014-08-12T11:51:54Z</time>
      </trkpt>
      <trkpt lat="44.50999" lon="6.23527">
        <ele>1317.6240234</ele>
        <time>2014-08-12T11:51:56Z</time>
      </trkpt>
      <trkpt lat="44.51" lon="6.23512">
        <ele>1316.1821289</ele>
        <time>2014-08-12T11:52:00Z</time>
      </trkpt>
      <trkpt lat="44.50985" lon="6.23518">
        <ele>1313.2983398</ele>
        <time>2014-08-12T11:52:10Z</time>
      </trkpt>
      <trkpt lat="44.50986" lon="6.23524">
        <ele>1312.817627</ele>
        <time>2014-08-12T11:52:12Z</time>
      </trkpt>
      <trkpt lat="44.50993" lon="6.23546">
        <ele>1310.4143066</ele>
        <time>2014-08-12T11:52:19Z</time>
      </trkpt>
      <trkpt lat="44.51005" lon="6.23563">
        <ele>1308.0112305</ele>
        <time>2014-08-12T11:52:26Z</time>
      </trkpt>
      <trkpt lat="44.51003" lon="6.23577">
        <ele>1306.5688477</ele>
        <time>2014-08-12T11:52:30Z</time>
      </trkpt>
      <trkpt lat="44.50995" lon="6.23616">
        <ele>1302.7236328</ele>
        <time>2014-08-12T11:52:40Z</time>
      </trkpt>
      <trkpt lat="44.50995" lon="6.23622">
        <ele>1301.7624512</ele>
        <time>2014-08-12T11:52:42Z</time>
      </trkpt>
      <trkpt lat="44.50995" lon="6.23626">
        <ele>1301.2817383</ele>
        <time>2014-08-12T11:52:43Z</time>
      </trkpt>
      <trkpt lat="44.50974" lon="6.23634">
        <ele>1300.3205566</ele>
        <time>2014-08-12T11:52:53Z</time>
      </trkpt>
      <trkpt lat="44.50961" lon="6.23637">
        <ele>1297.9172363</ele>
        <time>2014-08-12T11:52:59Z</time>
      </trkpt>
      <trkpt lat="44.50959" lon="6.23639">
        <ele>1297.9172363</ele>
        <time>2014-08-12T11:53:01Z</time>
      </trkpt>
      <trkpt lat="44.5096" lon="6.23679">
        <ele>1294.5524902</ele>
        <time>2014-08-12T11:53:13Z</time>
      </trkpt>
      <trkpt lat="44.50961" lon="6.23681">
        <ele>1294.5524902</ele>
        <time>2014-08-12T11:53:14Z</time>
      </trkpt>
      <trkpt lat="44.50954" lon="6.237">
        <ele>1292.630127</ele>
        <time>2014-08-12T11:53:22Z</time>
      </trkpt>
      <trkpt lat="44.50941" lon="6.23707">
        <ele>1292.1494141</ele>
        <time>2014-08-12T11:53:28Z</time>
      </trkpt>
      <trkpt lat="44.5092" lon="6.23736">
        <ele>1289.2651367</ele>
        <time>2014-08-12T11:53:38Z</time>
      </trkpt>
      <trkpt lat="44.50912" lon="6.2377">
        <ele>1286.3813477</ele>
        <time>2014-08-12T11:53:49Z</time>
      </trkpt>
      <trkpt lat="44.50898" lon="6.238">
        <ele>1283.4973145</ele>
        <time>2014-08-12T11:53:59Z</time>
      </trkpt>
      <trkpt lat="44.5089" lon="6.23836">
        <ele>1281.0942383</ele>
        <time>2014-08-12T11:54:08Z</time>
      </trkpt>
      <trkpt lat="44.50902" lon="6.23877">
        <ele>1277.7294922</ele>
        <time>2014-08-12T11:54:18Z</time>
      </trkpt>
      <trkpt lat="44.50902" lon="6.2388">
        <ele>1277.7294922</ele>
        <time>2014-08-12T11:54:19Z</time>
      </trkpt>
      <trkpt lat="44.50897" lon="6.23892">
        <ele>1277.2490234</ele>
        <time>2014-08-12T11:54:23Z</time>
      </trkpt>
      <trkpt lat="44.50854" lon="6.23913">
        <ele>1275.3259277</ele>
        <time>2014-08-12T11:54:37Z</time>
      </trkpt>
      <trkpt lat="44.50839" lon="6.23938">
        <ele>1272.4421387</ele>
        <time>2014-08-12T11:54:48Z</time>
      </trkpt>
      <trkpt lat="44.5084" lon="6.23974">
        <ele>1269.5583496</ele>
        <time>2014-08-12T11:54:57Z</time>
      </trkpt>
      <trkpt lat="44.50811" lon="6.23983">
        <ele>1267.1550293</ele>
        <time>2014-08-12T11:55:08Z</time>
      </trkpt>
      <trkpt lat="44.50793" lon="6.24001">
        <ele>1264.751709</ele>
        <time>2014-08-12T11:55:19Z</time>
      </trkpt>
      <trkpt lat="44.50805" lon="6.24032">
        <ele>1262.8291016</ele>
        <time>2014-08-12T11:55:29Z</time>
      </trkpt>
      <trkpt lat="44.50807" lon="6.24054">
        <ele>1261.387207</ele>
        <time>2014-08-12T11:55:36Z</time>
      </trkpt>
      <trkpt lat="44.50798" lon="6.24063">
        <ele>1259.9448242</ele>
        <time>2014-08-12T11:55:40Z</time>
      </trkpt>
      <trkpt lat="44.50762" lon="6.24053">
        <ele>1258.0224609</ele>
        <time>2014-08-12T11:55:52Z</time>
      </trkpt>
      <trkpt lat="44.50738" lon="6.24048">
        <ele>1254.6577148</ele>
        <time>2014-08-12T11:56:00Z</time>
      </trkpt>
      <trkpt lat="44.50735" lon="6.24047">
        <ele>1254.6577148</ele>
        <time>2014-08-12T11:56:01Z</time>
      </trkpt>
      <trkpt lat="44.50716" lon="6.24054">
        <ele>1253.2158203</ele>
        <time>2014-08-12T11:56:07Z</time>
      </trkpt>
      <trkpt lat="44.50711" lon="6.24062">
        <ele>1252.7351074</ele>
        <time>2014-08-12T11:56:10Z</time>
      </trkpt>
      <trkpt lat="44.50706" lon="6.2408">
        <ele>1251.2932129</ele>
        <time>2014-08-12T11:56:15Z</time>
      </trkpt>
      <trkpt lat="44.5069" lon="6.24104">
        <ele>1248.4091797</ele>
        <time>2014-08-12T11:56:22Z</time>
      </trkpt>
      <trkpt lat="44.50679" lon="6.24127">
        <ele>1246.4868164</ele>
        <time>2014-08-12T11:56:30Z</time>
      </trkpt>
      <trkpt lat="44.50646" lon="6.24135">
        <ele>1245.0446777</ele>
        <time>2014-08-12T11:56:42Z</time>
      </trkpt>
      <trkpt lat="44.50636" lon="6.24149">
        <ele>1243.1218262</ele>
        <time>2014-08-12T11:56:47Z</time>
      </trkpt>
      <trkpt lat="44.50623" lon="6.24172">
        <ele>1239.7573242</ele>
        <time>2014-08-12T11:56:55Z</time>
      </trkpt>
      <trkpt lat="44.5062" lon="6.24209">
        <ele>1236.873291</ele>
        <time>2014-08-12T11:57:05Z</time>
      </trkpt>
      <trkpt lat="44.50599" lon="6.24226">
        <ele>1233.989502</ele>
        <time>2014-08-12T11:57:14Z</time>
      </trkpt>
      <trkpt lat="44.50586" lon="6.24225">
        <ele>1233.0280762</ele>
        <time>2014-08-12T11:57:18Z</time>
      </trkpt>
      <trkpt lat="44.50566" lon="6.24245">
        <ele>1231.1057129</ele>
        <time>2014-08-12T11:57:25Z</time>
      </trkpt>
      <trkpt lat="44.50546" lon="6.24268">
        <ele>1229.1828613</ele>
        <time>2014-08-12T11:57:34Z</time>
      </trkpt>
      <trkpt lat="44.50533" lon="6.2427">
        <ele>1229.6635742</ele>
        <time>2014-08-12T11:57:39Z</time>
      </trkpt>
      <trkpt lat="44.5052" lon="6.24275">
        <ele>1229.6635742</ele>
        <time>2014-08-12T11:57:45Z</time>
      </trkpt>
      <trkpt lat="44.50516" lon="6.2428">
        <ele>1229.6635742</ele>
        <time>2014-08-12T11:57:49Z</time>
      </trkpt>
      <trkpt lat="44.50505" lon="6.24306">
        <ele>1227.7407227</ele>
        <time>2014-08-12T11:57:59Z</time>
      </trkpt>
      <trkpt lat="44.5049" lon="6.24325">
        <ele>1226.779541</ele>
        <time>2014-08-12T11:58:05Z</time>
      </trkpt>
      <trkpt lat="44.5045" lon="6.2436">
        <ele>1224.8569336</ele>
        <time>2014-08-12T11:58:20Z</time>
      </trkpt>
      <trkpt lat="44.50415" lon="6.24389">
        <ele>1221.9729004</ele>
        <time>2014-08-12T11:58:36Z</time>
      </trkpt>
      <trkpt lat="44.50395" lon="6.24404">
        <ele>1218.6083984</ele>
        <time>2014-08-12T11:58:44Z</time>
      </trkpt>
      <trkpt lat="44.50376" lon="6.2443">
        <ele>1215.2438965</ele>
        <time>2014-08-12T11:58:55Z</time>
      </trkpt>
      <trkpt lat="44.50367" lon="6.24463">
        <ele>1212.3598633</ele>
        <time>2014-08-12T11:59:05Z</time>
      </trkpt>
      <trkpt lat="44.50356" lon="6.24466">
        <ele>1211.3984375</ele>
        <time>2014-08-12T11:59:12Z</time>
      </trkpt>
      <trkpt lat="44.50354" lon="6.24462">
        <ele>1210.9177246</ele>
        <time>2014-08-12T11:59:14Z</time>
      </trkpt>
      <trkpt lat="44.50354" lon="6.2445">
        <ele>1209.4758301</ele>
        <time>2014-08-12T11:59:17Z</time>
      </trkpt>
      <trkpt lat="44.50357" lon="6.24431">
        <ele>1207.5532227</ele>
        <time>2014-08-12T11:59:21Z</time>
      </trkpt>
      <trkpt lat="44.50386" lon="6.24372">
        <ele>1206.111084</ele>
        <time>2014-08-12T11:59:36Z</time>
      </trkpt>
      <trkpt lat="44.50426" lon="6.24291">
        <ele>1205.6306152</ele>
        <time>2014-08-12T11:59:58Z</time>
      </trkpt>
      <trkpt lat="44.50452" lon="6.24225">
        <ele>1204.6691895</ele>
        <time>2014-08-12T12:00:12Z</time>
      </trkpt>
      <trkpt lat="44.50457" lon="6.24219">
        <ele>1204.1887207</ele>
        <time>2014-08-12T12:00:14Z</time>
      </trkpt>
      <trkpt lat="44.50481" lon="6.24213">
        <ele>1202.746582</ele>
        <time>2014-08-12T12:00:22Z</time>
      </trkpt>
      <trkpt lat="44.50485" lon="6.24196">
        <ele>1202.2658691</ele>
        <time>2014-08-12T12:00:28Z</time>
      </trkpt>
      <trkpt lat="44.50475" lon="6.24144">
        <ele>1202.2658691</ele>
        <time>2014-08-12T12:00:39Z</time>
      </trkpt>
      <trkpt lat="44.50499" lon="6.24075">
        <ele>1201.7854004</ele>
        <time>2014-08-12T12:00:55Z</time>
      </trkpt>
      <trkpt lat="44.5052" lon="6.24028">
        <ele>1201.7854004</ele>
        <time>2014-08-12T12:01:08Z</time>
      </trkpt>
      <trkpt lat="44.50562" lon="6.23981">
        <ele>1198.9013672</ele>
        <time>2014-08-12T12:01:22Z</time>
      </trkpt>
      <trkpt lat="44.50578" lon="6.23952">
        <ele>1196.498291</ele>
        <time>2014-08-12T12:01:28Z</time>
      </trkpt>
      <trkpt lat="44.50582" lon="6.23908">
        <ele>1196.498291</ele>
        <time>2014-08-12T12:01:33Z</time>
      </trkpt>
      <trkpt lat="44.50568" lon="6.2387">
        <ele>1195.5366211</ele>
        <time>2014-08-12T12:01:41Z</time>
      </trkpt>
      <trkpt lat="44.50555" lon="6.23876">
        <ele>1195.5366211</ele>
        <time>2014-08-12T12:01:45Z</time>
      </trkpt>
      <trkpt lat="44.50519" lon="6.23887">
        <ele>1196.498291</ele>
        <time>2014-08-12T12:01:59Z</time>
      </trkpt>
      <trkpt lat="44.50493" lon="6.23879">
        <ele>1198.9013672</ele>
        <time>2014-08-12T12:02:12Z</time>
      </trkpt>
      <trkpt lat="44.50444" lon="6.23858">
        <ele>1199.3820801</ele>
        <time>2014-08-12T12:02:30Z</time>
      </trkpt>
      <trkpt lat="44.50386" lon="6.23847">
        <ele>1198.9013672</ele>
        <time>2014-08-12T12:02:46Z</time>
      </trkpt>
      <trkpt lat="44.50326" lon="6.2385">
        <ele>1196.498291</ele>
        <time>2014-08-12T12:02:59Z</time>
      </trkpt>
      <trkpt lat="44.50316" lon="6.23849">
        <ele>1196.498291</ele>
        <time>2014-08-12T12:03:01Z</time>
      </trkpt>
      <trkpt lat="44.5029" lon="6.23844">
        <ele>1196.0175781</ele>
        <time>2014-08-12T12:03:07Z</time>
      </trkpt>
      <trkpt lat="44.50257" lon="6.23845">
        <ele>1193.1333008</ele>
        <time>2014-08-12T12:03:15Z</time>
      </trkpt>
      <trkpt lat="44.50204" lon="6.23847">
        <ele>1190.2495117</ele>
        <time>2014-08-12T12:03:24Z</time>
      </trkpt>
      <trkpt lat="44.50188" lon="6.23843">
        <ele>1188.8076172</ele>
        <time>2014-08-12T12:03:28Z</time>
      </trkpt>
      <trkpt lat="44.50142" lon="6.23842">
        <ele>1185.923584</ele>
        <time>2014-08-12T12:03:39Z</time>
      </trkpt>
      <trkpt lat="44.50121" lon="6.23838">
        <ele>1183.5202637</ele>
        <time>2014-08-12T12:03:44Z</time>
      </trkpt>
      <trkpt lat="44.501" lon="6.23844">
        <ele>1181.5976563</ele>
        <time>2014-08-12T12:03:50Z</time>
      </trkpt>
      <trkpt lat="44.50096" lon="6.23846">
        <ele>1181.5976563</ele>
        <time>2014-08-12T12:03:51Z</time>
      </trkpt>
      <trkpt lat="44.50088" lon="6.23844">
        <ele>1180.1557617</ele>
        <time>2014-08-12T12:03:53Z</time>
      </trkpt>
      <trkpt lat="44.50081" lon="6.23838">
        <ele>1180.1557617</ele>
        <time>2014-08-12T12:03:55Z</time>
      </trkpt>
      <trkpt lat="44.50064" lon="6.23841">
        <ele>1180.1557617</ele>
        <time>2014-08-12T12:04:00Z</time>
      </trkpt>
      <trkpt lat="44.50049" lon="6.2384">
        <ele>1179.1940918</ele>
        <time>2014-08-12T12:04:04Z</time>
      </trkpt>
      <trkpt lat="44.50034" lon="6.2383">
        <ele>1177.7521973</ele>
        <time>2014-08-12T12:04:08Z</time>
      </trkpt>
      <trkpt lat="44.5" lon="6.2381">
        <ele>1176.7910156</ele>
        <time>2014-08-12T12:04:19Z</time>
      </trkpt>
      <trkpt lat="44.49997" lon="6.23806">
        <ele>1177.2717285</ele>
        <time>2014-08-12T12:04:20Z</time>
      </trkpt>
      <trkpt lat="44.49988" lon="6.23801">
        <ele>1176.7910156</ele>
        <time>2014-08-12T12:04:23Z</time>
      </trkpt>
      <trkpt lat="44.49973" lon="6.23796">
        <ele>1177.2717285</ele>
        <time>2014-08-12T12:04:28Z</time>
      </trkpt>
      <trkpt lat="44.49963" lon="6.23765">
        <ele>1179.1940918</ele>
        <time>2014-08-12T12:04:43Z</time>
      </trkpt>
      <trkpt lat="44.49959" lon="6.23756">
        <ele>1178.713623</ele>
        <time>2014-08-12T12:04:46Z</time>
      </trkpt>
      <trkpt lat="44.49945" lon="6.2375">
        <ele>1179.1940918</ele>
        <time>2014-08-12T12:04:51Z</time>
      </trkpt>
      <trkpt lat="44.49916" lon="6.23723">
        <ele>1177.7521973</ele>
        <time>2014-08-12T12:05:02Z</time>
      </trkpt>
      <trkpt lat="44.49897" lon="6.23685">
        <ele>1174.3876953</ele>
        <time>2014-08-12T12:05:10Z</time>
      </trkpt>
      <trkpt lat="44.49894" lon="6.23678">
        <ele>1173.9069824</ele>
        <time>2014-08-12T12:05:12Z</time>
      </trkpt>
      <trkpt lat="44.49896" lon="6.23666">
        <ele>1173.9069824</ele>
        <time>2014-08-12T12:05:14Z</time>
      </trkpt>
      <trkpt lat="44.49898" lon="6.23653">
        <ele>1173.9069824</ele>
        <time>2014-08-12T12:05:17Z</time>
      </trkpt>
      <trkpt lat="44.49875" lon="6.23644">
        <ele>1172.9458008</ele>
        <time>2014-08-12T12:05:27Z</time>
      </trkpt>
      <trkpt lat="44.4987" lon="6.23647">
        <ele>1172.9458008</ele>
        <time>2014-08-12T12:05:28Z</time>
      </trkpt>
      <trkpt lat="44.49834" lon="6.23653">
        <ele>1172.9458008</ele>
        <time>2014-08-12T12:05:39Z</time>
      </trkpt>
      <trkpt lat="44.49791" lon="6.23631">
        <ele>1171.5036621</ele>
        <time>2014-08-12T12:05:52Z</time>
      </trkpt>
      <trkpt lat="44.49768" lon="6.23584">
        <ele>1171.984375</ele>
        <time>2014-08-12T12:06:06Z</time>
      </trkpt>
      <trkpt lat="44.49764" lon="6.23581">
        <ele>1172.4650879</ele>
        <time>2014-08-12T12:06:08Z</time>
      </trkpt>
      <trkpt lat="44.49754" lon="6.23549">
        <ele>1173.4265137</ele>
        <time>2014-08-12T12:06:21Z</time>
      </trkpt>
      <trkpt lat="44.4976" lon="6.23529">
        <ele>1173.4265137</ele>
        <time>2014-08-12T12:06:34Z</time>
      </trkpt>
      <trkpt lat="44.49762" lon="6.23526">
        <ele>1172.9458008</ele>
        <time>2014-08-12T12:07:08Z</time>
      </trkpt>
      <trkpt lat="44.49772" lon="6.23508">
        <ele>1173.9069824</ele>
        <time>2014-08-12T12:07:19Z</time>
      </trkpt>
      <trkpt lat="44.49791" lon="6.23466">
        <ele>1175.8295898</ele>
        <time>2014-08-12T12:07:38Z</time>
      </trkpt>
      <trkpt lat="44.49799" lon="6.23457">
        <ele>1176.3103027</ele>
        <time>2014-08-12T12:07:44Z</time>
      </trkpt>
      <trkpt lat="44.49797" lon="6.23437">
        <ele>1177.2717285</ele>
        <time>2014-08-12T12:07:51Z</time>
      </trkpt>
      <trkpt lat="44.49752" lon="6.23421">
        <ele>1179.1940918</ele>
        <time>2014-08-12T12:08:12Z</time>
      </trkpt>
      <trkpt lat="44.4975" lon="6.23418">
        <ele>1179.1940918</ele>
        <time>2014-08-12T12:08:13Z</time>
      </trkpt>
      <trkpt lat="44.49754" lon="6.23348">
        <ele>1179.6748047</ele>
        <time>2014-08-12T12:08:31Z</time>
      </trkpt>
      <trkpt lat="44.49771" lon="6.23315">
        <ele>1181.1171875</ele>
        <time>2014-08-12T12:08:46Z</time>
      </trkpt>
      <trkpt lat="44.49775" lon="6.23305">
        <ele>1182.0783691</ele>
        <time>2014-08-12T12:08:50Z</time>
      </trkpt>
      <trkpt lat="44.49771" lon="6.23282">
        <ele>1182.559082</ele>
        <time>2014-08-12T12:08:57Z</time>
      </trkpt>
      <trkpt lat="44.49762" lon="6.23278">
        <ele>1183.0395508</ele>
        <time>2014-08-12T12:09:01Z</time>
      </trkpt>
      <trkpt lat="44.49716" lon="6.23284">
        <ele>1183.5202637</ele>
        <time>2014-08-12T12:09:20Z</time>
      </trkpt>
      <trkpt lat="44.4969" lon="6.23265">
        <ele>1184.9624023</ele>
        <time>2014-08-12T12:09:35Z</time>
      </trkpt>
      <trkpt lat="44.4968" lon="6.2328">
        <ele>1185.4428711</ele>
        <time>2014-08-12T12:09:43Z</time>
      </trkpt>
      <trkpt lat="44.49671" lon="6.23298">
        <ele>1185.923584</ele>
        <time>2014-08-12T12:09:48Z</time>
      </trkpt>
      <trkpt lat="44.49666" lon="6.23326">
        <ele>1186.8847656</ele>
        <time>2014-08-12T12:10:00Z</time>
      </trkpt>
      <trkpt lat="44.49658" lon="6.23334">
        <ele>1187.8461914</ele>
        <time>2014-08-12T12:10:07Z</time>
      </trkpt>
      <trkpt lat="44.49654" lon="6.23324">
        <ele>1188.3269043</ele>
        <time>2014-08-12T12:10:14Z</time>
      </trkpt>
      <trkpt lat="44.49652" lon="6.23318">
        <ele>1189.7687988</ele>
        <time>2014-08-12T12:10:17Z</time>
      </trkpt>
      <trkpt lat="44.49651" lon="6.23315">
        <ele>1189.7687988</ele>
        <time>2014-08-12T12:10:19Z</time>
      </trkpt>
      <trkpt lat="44.49649" lon="6.23305">
        <ele>1191.2106934</ele>
        <time>2014-08-12T12:10:23Z</time>
      </trkpt>
      <trkpt lat="44.49634" lon="6.23292">
        <ele>1192.652832</ele>
        <time>2014-08-12T12:10:34Z</time>
      </trkpt>
      <trkpt lat="44.49613" lon="6.23328">
        <ele>1194.0947266</ele>
        <time>2014-08-12T12:10:49Z</time>
      </trkpt>
      <trkpt lat="44.49603" lon="6.23357">
        <ele>1194.5751953</ele>
        <time>2014-08-12T12:11:03Z</time>
      </trkpt>
      <trkpt lat="44.49599" lon="6.23365">
        <ele>1195.0559082</ele>
        <time>2014-08-12T12:11:09Z</time>
      </trkpt>
      <trkpt lat="44.49598" lon="6.23381">
        <ele>1195.0559082</ele>
        <time>2014-08-12T12:11:15Z</time>
      </trkpt>
      <trkpt lat="44.49584" lon="6.2342">
        <ele>1196.9787598</ele>
        <time>2014-08-12T12:11:31Z</time>
      </trkpt>
      <trkpt lat="44.4958" lon="6.23428">
        <ele>1196.9787598</ele>
        <time>2014-08-12T12:11:36Z</time>
      </trkpt>
      <trkpt lat="44.49578" lon="6.23432">
        <ele>1196.9787598</ele>
        <time>2014-08-12T12:11:39Z</time>
      </trkpt>
      <trkpt lat="44.49557" lon="6.23432">
        <ele>1197.9401855</ele>
        <time>2014-08-12T12:11:49Z</time>
      </trkpt>
      <trkpt lat="44.49524" lon="6.23415">
        <ele>1200.3435059</ele>
        <time>2014-08-12T12:12:11Z</time>
      </trkpt>
      <trkpt lat="44.49503" lon="6.23419">
        <ele>1201.7854004</ele>
        <time>2014-08-12T12:12:24Z</time>
      </trkpt>
      <trkpt lat="44.4948" lon="6.23401">
        <ele>1204.1887207</ele>
        <time>2014-08-12T12:12:41Z</time>
      </trkpt>
      <trkpt lat="44.49457" lon="6.23389">
        <ele>1206.5917969</ele>
        <time>2014-08-12T12:12:56Z</time>
      </trkpt>
      <trkpt lat="44.49451" lon="6.23397">
        <ele>1206.5917969</ele>
        <time>2014-08-12T12:13:02Z</time>
      </trkpt>
      <trkpt lat="44.49445" lon="6.23427">
        <ele>1208.0339355</ele>
        <time>2014-08-12T12:13:15Z</time>
      </trkpt>
      <trkpt lat="44.49444" lon="6.23429">
        <ele>1208.0339355</ele>
        <time>2014-08-12T12:13:16Z</time>
      </trkpt>
      <trkpt lat="44.49437" lon="6.23454">
        <ele>1208.0339355</ele>
        <time>2014-08-12T12:13:24Z</time>
      </trkpt>
      <trkpt lat="44.49428" lon="6.23489">
        <ele>1210.4370117</ele>
        <time>2014-08-12T12:13:42Z</time>
      </trkpt>
      <trkpt lat="44.49407" lon="6.23495">
        <ele>1211.8791504</ele>
        <time>2014-08-12T12:13:58Z</time>
      </trkpt>
      <trkpt lat="44.49379" lon="6.23503">
        <ele>1213.8017578</ele>
        <time>2014-08-12T12:14:15Z</time>
      </trkpt>
      <trkpt lat="44.49362" lon="6.23504">
        <ele>1215.2438965</ele>
        <time>2014-08-12T12:14:26Z</time>
      </trkpt>
      <trkpt lat="44.49342" lon="6.23491">
        <ele>1216.2050781</ele>
        <time>2014-08-12T12:14:40Z</time>
      </trkpt>
      <trkpt lat="44.49325" lon="6.23477">
        <ele>1218.6083984</ele>
        <time>2014-08-12T12:14:53Z</time>
      </trkpt>
      <trkpt lat="44.49323" lon="6.2347">
        <ele>1218.6083984</ele>
        <time>2014-08-12T12:14:57Z</time>
      </trkpt>
      <trkpt lat="44.49326" lon="6.2346">
        <ele>1219.0891113</ele>
        <time>2014-08-12T12:15:00Z</time>
      </trkpt>
      <trkpt lat="44.49324" lon="6.2343">
        <ele>1220.5310059</ele>
        <time>2014-08-12T12:15:14Z</time>
      </trkpt>
      <trkpt lat="44.49312" lon="6.23384">
        <ele>1222.4536133</ele>
        <time>2014-08-12T12:15:35Z</time>
      </trkpt>
      <trkpt lat="44.49283" lon="6.23357">
        <ele>1224.3762207</ele>
        <time>2014-08-12T12:15:53Z</time>
      </trkpt>
      <trkpt lat="44.49283" lon="6.23354">
        <ele>1224.3762207</ele>
        <time>2014-08-12T12:15:54Z</time>
      </trkpt>
      <trkpt lat="44.49279" lon="6.23339">
        <ele>1224.3762207</ele>
        <time>2014-08-12T12:15:59Z</time>
      </trkpt>
      <trkpt lat="44.49273" lon="6.23289">
        <ele>1225.3374023</ele>
        <time>2014-08-12T12:16:17Z</time>
      </trkpt>
      <trkpt lat="44.49269" lon="6.23286">
        <ele>1225.8181152</ele>
        <time>2014-08-12T12:16:19Z</time>
      </trkpt>
      <trkpt lat="44.49253" lon="6.23293">
        <ele>1226.2988281</ele>
        <time>2014-08-12T12:16:26Z</time>
      </trkpt>
      <trkpt lat="44.49228" lon="6.23305">
        <ele>1227.7407227</ele>
        <time>2014-08-12T12:16:40Z</time>
      </trkpt>
      <trkpt lat="44.49215" lon="6.23305">
        <ele>1228.2216797</ele>
        <time>2014-08-12T12:16:47Z</time>
      </trkpt>
      <trkpt lat="44.492" lon="6.23314">
        <ele>1228.7023926</ele>
        <time>2014-08-12T12:16:56Z</time>
      </trkpt>
      <trkpt lat="44.492" lon="6.23335">
        <ele>1230.1442871</ele>
        <time>2014-08-12T12:17:06Z</time>
      </trkpt>
      <trkpt lat="44.49186" lon="6.23371">
        <ele>1231.1057129</ele>
        <time>2014-08-12T12:17:19Z</time>
      </trkpt>
      <trkpt lat="44.4917" lon="6.23399">
        <ele>1232.5476074</ele>
        <time>2014-08-12T12:17:34Z</time>
      </trkpt>
      <trkpt lat="44.49158" lon="6.23402">
        <ele>1232.5476074</ele>
        <time>2014-08-12T12:17:40Z</time>
      </trkpt>
      <trkpt lat="44.49151" lon="6.23387">
        <ele>1231.1057129</ele>
        <time>2014-08-12T12:17:55Z</time>
      </trkpt>
      <trkpt lat="44.4915" lon="6.23389">
        <ele>1231.1057129</ele>
        <time>2014-08-12T12:18:11Z</time>
      </trkpt>
      <trkpt lat="44.49164" lon="6.23401">
        <ele>1231.1057129</ele>
        <time>2014-08-12T12:18:31Z</time>
      </trkpt>
      <trkpt lat="44.4916" lon="6.23409">
        <ele>1230.1442871</ele>
        <time>2014-08-12T12:18:43Z</time>
      </trkpt>
      <trkpt lat="44.49161" lon="6.23408">
        <ele>1231.1057129</ele>
        <time>2014-08-12T12:19:14Z</time>
      </trkpt>
      <trkpt lat="44.49163" lon="6.23402">
        <ele>1231.5861816</ele>
        <time>2014-08-12T12:19:28Z</time>
      </trkpt>
      <trkpt lat="44.49166" lon="6.23403">
        <ele>1231.1057129</ele>
        <time>2014-08-12T12:19:45Z</time>
      </trkpt>
      <trkpt lat="44.49161" lon="6.23401">
        <ele>1230.625</ele>
        <time>2014-08-12T12:20:03Z</time>
      </trkpt>
      <trkpt lat="44.49155" lon="6.23395">
        <ele>1230.625</ele>
        <time>2014-08-12T12:20:17Z</time>
      </trkpt>
      <trkpt lat="44.49143" lon="6.23347">
        <ele>1230.625</ele>
        <time>2014-08-12T12:20:32Z</time>
      </trkpt>
      <trkpt lat="44.49109" lon="6.23303">
        <ele>1230.1442871</ele>
        <time>2014-08-12T12:20:45Z</time>
      </trkpt>
      <trkpt lat="44.49091" lon="6.23269">
        <ele>1228.2216797</ele>
        <time>2014-08-12T12:20:51Z</time>
      </trkpt>
      <trkpt lat="44.49081" lon="6.23252">
        <ele>1227.7407227</ele>
        <time>2014-08-12T12:20:54Z</time>
      </trkpt>
      <trkpt lat="44.49068" lon="6.23237">
        <ele>1226.2988281</ele>
        <time>2014-08-12T12:20:58Z</time>
      </trkpt>
      <trkpt lat="44.49006" lon="6.23216">
        <ele>1222.9343262</ele>
        <time>2014-08-12T12:21:09Z</time>
      </trkpt>
      <trkpt lat="44.48999" lon="6.23214">
        <ele>1221.9729004</ele>
        <time>2014-08-12T12:21:11Z</time>
      </trkpt>
      <trkpt lat="44.48995" lon="6.23212">
        <ele>1221.0117188</ele>
        <time>2014-08-12T12:21:12Z</time>
      </trkpt>
      <trkpt lat="44.48978" lon="6.23192">
        <ele>1220.5310059</ele>
        <time>2014-08-12T12:21:17Z</time>
      </trkpt>
      <trkpt lat="44.48975" lon="6.23178">
        <ele>1219.0891113</ele>
        <time>2014-08-12T12:21:19Z</time>
      </trkpt>
      <trkpt lat="44.48962" lon="6.23148">
        <ele>1216.685791</ele>
        <time>2014-08-12T12:21:24Z</time>
      </trkpt>
      <trkpt lat="44.48959" lon="6.23142">
        <ele>1216.2050781</ele>
        <time>2014-08-12T12:21:25Z</time>
      </trkpt>
      <trkpt lat="44.48944" lon="6.23118">
        <ele>1215.2438965</ele>
        <time>2014-08-12T12:21:29Z</time>
      </trkpt>
      <trkpt lat="44.4892" lon="6.23098">
        <ele>1212.8405762</ele>
        <time>2014-08-12T12:21:33Z</time>
      </trkpt>
      <trkpt lat="44.4889" lon="6.23086">
        <ele>1210.9177246</ele>
        <time>2014-08-12T12:21:37Z</time>
      </trkpt>
      <trkpt lat="44.48857" lon="6.23064">
        <ele>1209.4758301</ele>
        <time>2014-08-12T12:21:43Z</time>
      </trkpt>
      <trkpt lat="44.48831" lon="6.23057">
        <ele>1206.5917969</ele>
        <time>2014-08-12T12:21:48Z</time>
      </trkpt>
      <trkpt lat="44.48818" lon="6.23051">
        <ele>1205.1499023</ele>
        <time>2014-08-12T12:21:51Z</time>
      </trkpt>
      <trkpt lat="44.48797" lon="6.23048">
        <ele>1204.1887207</ele>
        <time>2014-08-12T12:21:55Z</time>
      </trkpt>
      <trkpt lat="44.48771" lon="6.23035">
        <ele>1201.7854004</ele>
        <time>2014-08-12T12:22:00Z</time>
      </trkpt>
      <trkpt lat="44.48714" lon="6.22962">
        <ele>1197.4594727</ele>
        <time>2014-08-12T12:22:12Z</time>
      </trkpt>
      <trkpt lat="44.48708" lon="6.22957">
        <ele>1197.4594727</ele>
        <time>2014-08-12T12:22:13Z</time>
      </trkpt>
      <trkpt lat="44.48678" lon="6.22927">
        <ele>1196.0175781</ele>
        <time>2014-08-12T12:22:19Z</time>
      </trkpt>
      <trkpt lat="44.48662" lon="6.22916">
        <ele>1193.6140137</ele>
        <time>2014-08-12T12:22:22Z</time>
      </trkpt>
      <trkpt lat="44.48633" lon="6.22893">
        <ele>1193.1333008</ele>
        <time>2014-08-12T12:22:27Z</time>
      </trkpt>
      <trkpt lat="44.48619" lon="6.22885">
        <ele>1191.6914063</ele>
        <time>2014-08-12T12:22:29Z</time>
      </trkpt>
      <trkpt lat="44.486" lon="6.22874">
        <ele>1189.2880859</ele>
        <time>2014-08-12T12:22:32Z</time>
      </trkpt>
      <trkpt lat="44.48576" lon="6.22862">
        <ele>1187.8461914</ele>
        <time>2014-08-12T12:22:36Z</time>
      </trkpt>
      <trkpt lat="44.48546" lon="6.22853">
        <ele>1184.9624023</ele>
        <time>2014-08-12T12:22:41Z</time>
      </trkpt>
      <trkpt lat="44.48541" lon="6.22852">
        <ele>1184.4816895</ele>
        <time>2014-08-12T12:22:42Z</time>
      </trkpt>
      <trkpt lat="44.48525" lon="6.22839">
        <ele>1183.5202637</ele>
        <time>2014-08-12T12:22:46Z</time>
      </trkpt>
      <trkpt lat="44.48518" lon="6.22827">
        <ele>1182.559082</ele>
        <time>2014-08-12T12:22:48Z</time>
      </trkpt>
      <trkpt lat="44.48493" lon="6.22796">
        <ele>1180.6364746</ele>
        <time>2014-08-12T12:22:53Z</time>
      </trkpt>
      <trkpt lat="44.48481" lon="6.22785">
        <ele>1180.1557617</ele>
        <time>2014-08-12T12:22:55Z</time>
      </trkpt>
      <trkpt lat="44.48475" lon="6.2278">
        <ele>1178.713623</ele>
        <time>2014-08-12T12:22:56Z</time>
      </trkpt>
      <trkpt lat="44.48441" lon="6.22763">
        <ele>1175.348877</ele>
        <time>2014-08-12T12:23:01Z</time>
      </trkpt>
      <trkpt lat="44.48436" lon="6.2276">
        <ele>1175.348877</ele>
        <time>2014-08-12T12:23:02Z</time>
      </trkpt>
      <trkpt lat="44.48425" lon="6.22753">
        <ele>1173.9069824</ele>
        <time>2014-08-12T12:23:04Z</time>
      </trkpt>
      <trkpt lat="44.4841" lon="6.22739">
        <ele>1173.4265137</ele>
        <time>2014-08-12T12:23:07Z</time>
      </trkpt>
      <trkpt lat="44.48388" lon="6.22706">
        <ele>1170.5424805</ele>
        <time>2014-08-12T12:23:12Z</time>
      </trkpt>
      <trkpt lat="44.48376" lon="6.22691">
        <ele>1169.1005859</ele>
        <time>2014-08-12T12:23:15Z</time>
      </trkpt>
      <trkpt lat="44.48319" lon="6.22668">
        <ele>1166.2165527</ele>
        <time>2014-08-12T12:23:24Z</time>
      </trkpt>
      <trkpt lat="44.48299" lon="6.22661">
        <ele>1164.2939453</ele>
        <time>2014-08-12T12:23:27Z</time>
      </trkpt>
      <trkpt lat="44.48268" lon="6.22653">
        <ele>1161.890625</ele>
        <time>2014-08-12T12:23:32Z</time>
      </trkpt>
      <trkpt lat="44.48241" lon="6.22652">
        <ele>1161.890625</ele>
        <time>2014-08-12T12:23:36Z</time>
      </trkpt>
      <trkpt lat="44.4823" lon="6.22652">
        <ele>1159.0065918</ele>
        <time>2014-08-12T12:23:38Z</time>
      </trkpt>
      <trkpt lat="44.48216" lon="6.22655">
        <ele>1158.5258789</ele>
        <time>2014-08-12T12:23:41Z</time>
      </trkpt>
      <trkpt lat="44.48199" lon="6.22655">
        <ele>1157.5646973</ele>
        <time>2014-08-12T12:23:44Z</time>
      </trkpt>
      <trkpt lat="44.48151" lon="6.22638">
        <ele>1153.7194824</ele>
        <time>2014-08-12T12:23:51Z</time>
      </trkpt>
      <trkpt lat="44.481" lon="6.22631">
        <ele>1150.3549805</ele>
        <time>2014-08-12T12:23:59Z</time>
      </trkpt>
      <trkpt lat="44.48093" lon="6.2263">
        <ele>1150.3549805</ele>
        <time>2014-08-12T12:24:00Z</time>
      </trkpt>
      <trkpt lat="44.48054" lon="6.22622">
        <ele>1147.4707031</ele>
        <time>2014-08-12T12:24:06Z</time>
      </trkpt>
      <trkpt lat="44.48035" lon="6.22622">
        <ele>1145.5480957</ele>
        <time>2014-08-12T12:24:09Z</time>
      </trkpt>
      <trkpt lat="44.48017" lon="6.22611">
        <ele>1144.1062012</ele>
        <time>2014-08-12T12:24:12Z</time>
      </trkpt>
      <trkpt lat="44.47993" lon="6.22592">
        <ele>1142.1835938</ele>
        <time>2014-08-12T12:24:16Z</time>
      </trkpt>
      <trkpt lat="44.47981" lon="6.22584">
        <ele>1139.2995605</ele>
        <time>2014-08-12T12:24:18Z</time>
      </trkpt>
      <trkpt lat="44.47975" lon="6.22581">
        <ele>1138.3383789</ele>
        <time>2014-08-12T12:24:19Z</time>
      </trkpt>
      <trkpt lat="44.47952" lon="6.22568">
        <ele>1136.8962402</ele>
        <time>2014-08-12T12:24:23Z</time>
      </trkpt>
      <trkpt lat="44.47936" lon="6.22565">
        <ele>1135.4543457</ele>
        <time>2014-08-12T12:24:25Z</time>
      </trkpt>
      <trkpt lat="44.47905" lon="6.22538">
        <ele>1132.5705566</ele>
        <time>2014-08-12T12:24:30Z</time>
      </trkpt>
      <trkpt lat="44.47895" lon="6.22527">
        <ele>1131.128418</ele>
        <time>2014-08-12T12:24:32Z</time>
      </trkpt>
      <trkpt lat="44.47875" lon="6.22509">
        <ele>1127.7636719</ele>
        <time>2014-08-12T12:24:36Z</time>
      </trkpt>
      <trkpt lat="44.47866" lon="6.22506">
        <ele>1126.3217773</ele>
        <time>2014-08-12T12:24:39Z</time>
      </trkpt>
      <trkpt lat="44.4786" lon="6.22507">
        <ele>1124.8798828</ele>
        <time>2014-08-12T12:24:52Z</time>
      </trkpt>
      <trkpt lat="44.4784" lon="6.22507">
        <ele>1124.3991699</ele>
        <time>2014-08-12T12:25:16Z</time>
      </trkpt>
      <trkpt lat="44.47816" lon="6.22499">
        <ele>1122.9572754</ele>
        <time>2014-08-12T12:25:21Z</time>
      </trkpt>
      <trkpt lat="44.4776" lon="6.22474">
        <ele>1120.5539551</ele>
        <time>2014-08-12T12:25:29Z</time>
      </trkpt>
      <trkpt lat="44.47743" lon="6.2247">
        <ele>1120.5539551</ele>
        <time>2014-08-12T12:25:32Z</time>
      </trkpt>
      <trkpt lat="44.47711" lon="6.22469">
        <ele>1119.5927734</ele>
        <time>2014-08-12T12:25:38Z</time>
      </trkpt>
      <trkpt lat="44.47656" lon="6.22454">
        <ele>1119.1120605</ele>
        <time>2014-08-12T12:25:49Z</time>
      </trkpt>
      <trkpt lat="44.47638" lon="6.22453">
        <ele>1118.1506348</ele>
        <time>2014-08-12T12:25:52Z</time>
      </trkpt>
      <trkpt lat="44.47589" lon="6.22433">
        <ele>1117.6699219</ele>
        <time>2014-08-12T12:26:02Z</time>
      </trkpt>
      <trkpt lat="44.47577" lon="6.22428">
        <ele>1117.1894531</ele>
        <time>2014-08-12T12:26:05Z</time>
      </trkpt>
      <trkpt lat="44.47536" lon="6.22409">
        <ele>1117.1894531</ele>
        <time>2014-08-12T12:26:13Z</time>
      </trkpt>
      <trkpt lat="44.47497" lon="6.22376">
        <ele>1114.3051758</ele>
        <time>2014-08-12T12:26:22Z</time>
      </trkpt>
      <trkpt lat="44.47471" lon="6.22359">
        <ele>1114.3051758</ele>
        <time>2014-08-12T12:26:27Z</time>
      </trkpt>
      <trkpt lat="44.47458" lon="6.2235">
        <ele>1112.3825684</ele>
        <time>2014-08-12T12:26:30Z</time>
      </trkpt>
      <trkpt lat="44.47424" lon="6.22342">
        <ele>1109.0180664</ele>
        <time>2014-08-12T12:26:35Z</time>
      </trkpt>
      <trkpt lat="44.47415" lon="6.2234">
        <ele>1108.0568848</ele>
        <time>2014-08-12T12:26:37Z</time>
      </trkpt>
      <trkpt lat="44.47392" lon="6.22325">
        <ele>1104.6921387</ele>
        <time>2014-08-12T12:26:42Z</time>
      </trkpt>
      <trkpt lat="44.47386" lon="6.22316">
        <ele>1103.730957</ele>
        <time>2014-08-12T12:26:44Z</time>
      </trkpt>
      <trkpt lat="44.47383" lon="6.22276">
        <ele>1101.3276367</ele>
        <time>2014-08-12T12:26:49Z</time>
      </trkpt>
      <trkpt lat="44.47382" lon="6.22261">
        <ele>1100.3664551</ele>
        <time>2014-08-12T12:26:51Z</time>
      </trkpt>
      <trkpt lat="44.47381" lon="6.22231">
        <ele>1097.9628906</ele>
        <time>2014-08-12T12:26:55Z</time>
      </trkpt>
      <trkpt lat="44.47378" lon="6.22218">
        <ele>1096.0402832</ele>
        <time>2014-08-12T12:26:57Z</time>
      </trkpt>
      <trkpt lat="44.47372" lon="6.22197">
        <ele>1094.1176758</ele>
        <time>2014-08-12T12:27:00Z</time>
      </trkpt>
      <trkpt lat="44.4737" lon="6.22183">
        <ele>1092.1950684</ele>
        <time>2014-08-12T12:27:02Z</time>
      </trkpt>
      <trkpt lat="44.47374" lon="6.22143">
        <ele>1088.8305664</ele>
        <time>2014-08-12T12:27:06Z</time>
      </trkpt>
      <trkpt lat="44.47375" lon="6.2211">
        <ele>1087.3884277</ele>
        <time>2014-08-12T12:27:09Z</time>
      </trkpt>
      <trkpt lat="44.4738" lon="6.22089">
        <ele>1085.4658203</ele>
        <time>2014-08-12T12:27:11Z</time>
      </trkpt>
      <trkpt lat="44.47382" lon="6.22059">
        <ele>1083.5429688</ele>
        <time>2014-08-12T12:27:14Z</time>
      </trkpt>
      <trkpt lat="44.47386" lon="6.22004">
        <ele>1078.7365723</ele>
        <time>2014-08-12T12:27:20Z</time>
      </trkpt>
      <trkpt lat="44.47387" lon="6.21997">
        <ele>1078.7365723</ele>
        <time>2014-08-12T12:27:21Z</time>
      </trkpt>
      <trkpt lat="44.47389" lon="6.21979">
        <ele>1077.2946777</ele>
        <time>2014-08-12T12:27:24Z</time>
      </trkpt>
      <trkpt lat="44.47393" lon="6.21967">
        <ele>1076.333252</ele>
        <time>2014-08-12T12:27:26Z</time>
      </trkpt>
      <trkpt lat="44.474" lon="6.21958">
        <ele>1075.3718262</ele>
        <time>2014-08-12T12:27:28Z</time>
      </trkpt>
      <trkpt lat="44.47409" lon="6.21953">
        <ele>1073.9299316</ele>
        <time>2014-08-12T12:27:30Z</time>
      </trkpt>
      <trkpt lat="44.47417" lon="6.21949">
        <ele>1072.4880371</ele>
        <time>2014-08-12T12:27:32Z</time>
      </trkpt>
      <trkpt lat="44.47428" lon="6.21945">
        <ele>1070.5654297</ele>
        <time>2014-08-12T12:27:34Z</time>
      </trkpt>
      <trkpt lat="44.47453" lon="6.2192">
        <ele>1070.0847168</ele>
        <time>2014-08-12T12:27:39Z</time>
      </trkpt>
      <trkpt lat="44.47463" lon="6.21902">
        <ele>1068.6428223</ele>
        <time>2014-08-12T12:27:42Z</time>
      </trkpt>
      <trkpt lat="44.47492" lon="6.21906">
        <ele>1065.7587891</ele>
        <time>2014-08-12T12:27:50Z</time>
      </trkpt>
      <trkpt lat="44.47495" lon="6.21889">
        <ele>1064.3166504</ele>
        <time>2014-08-12T12:27:56Z</time>
      </trkpt>
      <trkpt lat="44.47491" lon="6.21885">
        <ele>1063.3554688</ele>
        <time>2014-08-12T12:27:57Z</time>
      </trkpt>
      <trkpt lat="44.47471" lon="6.2187">
        <ele>1060.9521484</ele>
        <time>2014-08-12T12:28:02Z</time>
      </trkpt>
      <trkpt lat="44.47462" lon="6.2187">
        <ele>1059.5102539</ele>
        <time>2014-08-12T12:28:04Z</time>
      </trkpt>
      <trkpt lat="44.47447" lon="6.21875">
        <ele>1058.0683594</ele>
        <time>2014-08-12T12:28:07Z</time>
      </trkpt>
      <trkpt lat="44.47435" lon="6.21884">
        <ele>1055.6650391</ele>
        <time>2014-08-12T12:28:10Z</time>
      </trkpt>
      <trkpt lat="44.47407" lon="6.21892">
        <ele>1053.2617188</ele>
        <time>2014-08-12T12:28:15Z</time>
      </trkpt>
      <trkpt lat="44.47381" lon="6.21902">
        <ele>1050.3776855</ele>
        <time>2014-08-12T12:28:19Z</time>
      </trkpt>
      <trkpt lat="44.4737" lon="6.21905">
        <ele>1048.9355469</ele>
        <time>2014-08-12T12:28:21Z</time>
      </trkpt>
      <trkpt lat="44.47356" lon="6.21913">
        <ele>1047.4936523</ele>
        <time>2014-08-12T12:28:23Z</time>
      </trkpt>
      <trkpt lat="44.4735" lon="6.21918">
        <ele>1047.0129395</ele>
        <time>2014-08-12T12:28:25Z</time>
      </trkpt>
      <trkpt lat="44.47341" lon="6.2192">
        <ele>1045.090332</ele>
        <time>2014-08-12T12:28:28Z</time>
      </trkpt>
      <trkpt lat="44.47338" lon="6.21906">
        <ele>1044.1291504</ele>
        <time>2014-08-12T12:28:32Z</time>
      </trkpt>
      <trkpt lat="44.47345" lon="6.21884">
        <ele>1042.6872559</ele>
        <time>2014-08-12T12:28:35Z</time>
      </trkpt>
      <trkpt lat="44.47361" lon="6.21828">
        <ele>1039.8032227</ele>
        <time>2014-08-12T12:28:41Z</time>
      </trkpt>
      <trkpt lat="44.47392" lon="6.21812">
        <ele>1036.9191895</ele>
        <time>2014-08-12T12:28:48Z</time>
      </trkpt>
      <trkpt lat="44.474" lon="6.21815">
        <ele>1035.9577637</ele>
        <time>2014-08-12T12:28:50Z</time>
      </trkpt>
      <trkpt lat="44.47417" lon="6.21805">
        <ele>1034.5158691</ele>
        <time>2014-08-12T12:28:54Z</time>
      </trkpt>
      <trkpt lat="44.47427" lon="6.21796">
        <ele>1033.5544434</ele>
        <time>2014-08-12T12:28:56Z</time>
      </trkpt>
      <trkpt lat="44.47437" lon="6.2179">
        <ele>1031.6318359</ele>
        <time>2014-08-12T12:28:58Z</time>
      </trkpt>
      <trkpt lat="44.47472" lon="6.21779">
        <ele>1027.7866211</ele>
        <time>2014-08-12T12:29:03Z</time>
      </trkpt>
      <trkpt lat="44.47483" lon="6.21774">
        <ele>1027.3061523</ele>
        <time>2014-08-12T12:29:05Z</time>
      </trkpt>
      <trkpt lat="44.47495" lon="6.21769">
        <ele>1025.8640137</ele>
        <time>2014-08-12T12:29:07Z</time>
      </trkpt>
      <trkpt lat="44.47507" lon="6.21766">
        <ele>1024.4221191</ele>
        <time>2014-08-12T12:29:09Z</time>
      </trkpt>
      <trkpt lat="44.47524" lon="6.21765">
        <ele>1022.0187988</ele>
        <time>2014-08-12T12:29:12Z</time>
      </trkpt>
      <trkpt lat="44.47534" lon="6.21768">
        <ele>1021.0576172</ele>
        <time>2014-08-12T12:29:14Z</time>
      </trkpt>
      <trkpt lat="44.47548" lon="6.21764">
        <ele>1018.6540527</ele>
        <time>2014-08-12T12:29:19Z</time>
      </trkpt>
      <trkpt lat="44.47539" lon="6.21753">
        <ele>1017.692627</ele>
        <time>2014-08-12T12:29:22Z</time>
      </trkpt>
      <trkpt lat="44.47516" lon="6.21742">
        <ele>1015.7702637</ele>
        <time>2014-08-12T12:29:26Z</time>
      </trkpt>
      <trkpt lat="44.47477" lon="6.21729">
        <ele>1011.9250488</ele>
        <time>2014-08-12T12:29:31Z</time>
      </trkpt>
      <trkpt lat="44.47463" lon="6.21724">
        <ele>1010.0021973</ele>
        <time>2014-08-12T12:29:33Z</time>
      </trkpt>
      <trkpt lat="44.47451" lon="6.21721">
        <ele>1008.5603027</ele>
        <time>2014-08-12T12:29:35Z</time>
      </trkpt>
      <trkpt lat="44.47446" lon="6.21719">
        <ele>1007.1184082</ele>
        <time>2014-08-12T12:29:36Z</time>
      </trkpt>
      <trkpt lat="44.47437" lon="6.21718">
        <ele>1006.1569824</ele>
        <time>2014-08-12T12:29:38Z</time>
      </trkpt>
      <trkpt lat="44.47429" lon="6.2171">
        <ele>1005.1958008</ele>
        <time>2014-08-12T12:29:40Z</time>
      </trkpt>
      <trkpt lat="44.4742" lon="6.21691">
        <ele>1002.7922363</ele>
        <time>2014-08-12T12:29:43Z</time>
      </trkpt>
      <trkpt lat="44.47394" lon="6.21659">
        <ele>999.9084473</ele>
        <time>2014-08-12T12:29:49Z</time>
      </trkpt>
      <trkpt lat="44.47384" lon="6.2165">
        <ele>997.9858398</ele>
        <time>2014-08-12T12:29:52Z</time>
      </trkpt>
      <trkpt lat="44.47355" lon="6.21662">
        <ele>996.0632324</ele>
        <time>2014-08-12T12:29:57Z</time>
      </trkpt>
      <trkpt lat="44.47336" lon="6.21679">
        <ele>994.140625</ele>
        <time>2014-08-12T12:30:00Z</time>
      </trkpt>
      <trkpt lat="44.47326" lon="6.21687">
        <ele>990.7758789</ele>
        <time>2014-08-12T12:30:02Z</time>
      </trkpt>
      <trkpt lat="44.47322" lon="6.2169">
        <ele>990.7758789</ele>
        <time>2014-08-12T12:30:03Z</time>
      </trkpt>
      <trkpt lat="44.47319" lon="6.21694">
        <ele>989.8146973</ele>
        <time>2014-08-12T12:30:04Z</time>
      </trkpt>
      <trkpt lat="44.47307" lon="6.21704">
        <ele>987.4111328</ele>
        <time>2014-08-12T12:30:10Z</time>
      </trkpt>
      <trkpt lat="44.47311" lon="6.21696">
        <ele>986.9304199</ele>
        <time>2014-08-12T12:30:14Z</time>
      </trkpt>
      <trkpt lat="44.47321" lon="6.21683">
        <ele>985.4885254</ele>
        <time>2014-08-12T12:30:17Z</time>
      </trkpt>
      <trkpt lat="44.47349" lon="6.21638">
        <ele>981.6433105</ele>
        <time>2014-08-12T12:30:23Z</time>
      </trkpt>
      <trkpt lat="44.47354" lon="6.21631">
        <ele>981.6433105</ele>
        <time>2014-08-12T12:30:24Z</time>
      </trkpt>
      <trkpt lat="44.47359" lon="6.21625">
        <ele>980.201416</ele>
        <time>2014-08-12T12:30:25Z</time>
      </trkpt>
      <trkpt lat="44.47373" lon="6.21614">
        <ele>978.7595215</ele>
        <time>2014-08-12T12:30:28Z</time>
      </trkpt>
      <trkpt lat="44.47383" lon="6.21612">
        <ele>977.317627</ele>
        <time>2014-08-12T12:30:30Z</time>
      </trkpt>
      <trkpt lat="44.47394" lon="6.21615">
        <ele>976.3562012</ele>
        <time>2014-08-12T12:30:32Z</time>
      </trkpt>
      <trkpt lat="44.47432" lon="6.21632">
        <ele>974.4335938</ele>
        <time>2014-08-12T12:30:38Z</time>
      </trkpt>
      <trkpt lat="44.47441" lon="6.21638">
        <ele>972.9916992</ele>
        <time>2014-08-12T12:30:40Z</time>
      </trkpt>
      <trkpt lat="44.47447" lon="6.21642">
        <ele>971.5493164</ele>
        <time>2014-08-12T12:30:42Z</time>
      </trkpt>
      <trkpt lat="44.4745" lon="6.21627">
        <ele>969.1462402</ele>
        <time>2014-08-12T12:30:47Z</time>
      </trkpt>
      <trkpt lat="44.47446" lon="6.21623">
        <ele>968.1848145</ele>
        <time>2014-08-12T12:30:48Z</time>
      </trkpt>
      <trkpt lat="44.47421" lon="6.216">
        <ele>965.3010254</ele>
        <time>2014-08-12T12:30:53Z</time>
      </trkpt>
      <trkpt lat="44.47416" lon="6.21596">
        <ele>964.8203125</ele>
        <time>2014-08-12T12:30:54Z</time>
      </trkpt>
      <trkpt lat="44.47411" lon="6.21592">
        <ele>963.378418</ele>
        <time>2014-08-12T12:30:55Z</time>
      </trkpt>
      <trkpt lat="44.47391" lon="6.21571">
        <ele>961.4558105</ele>
        <time>2014-08-12T12:30:59Z</time>
      </trkpt>
      <trkpt lat="44.47383" lon="6.21565">
        <ele>960.0136719</ele>
        <time>2014-08-12T12:31:01Z</time>
      </trkpt>
      <trkpt lat="44.47373" lon="6.21562">
        <ele>958.5717773</ele>
        <time>2014-08-12T12:31:03Z</time>
      </trkpt>
      <trkpt lat="44.47359" lon="6.21567">
        <ele>957.1298828</ele>
        <time>2014-08-12T12:31:06Z</time>
      </trkpt>
      <trkpt lat="44.4735" lon="6.21572">
        <ele>956.6491699</ele>
        <time>2014-08-12T12:31:08Z</time>
      </trkpt>
      <trkpt lat="44.47323" lon="6.21584">
        <ele>953.7651367</ele>
        <time>2014-08-12T12:31:12Z</time>
      </trkpt>
      <trkpt lat="44.47318" lon="6.21586">
        <ele>952.8037109</ele>
        <time>2014-08-12T12:31:13Z</time>
      </trkpt>
      <trkpt lat="44.47294" lon="6.21589">
        <ele>949.9199219</ele>
        <time>2014-08-12T12:31:17Z</time>
      </trkpt>
      <trkpt lat="44.47259" lon="6.21615">
        <ele>945.1132813</ele>
        <time>2014-08-12T12:31:23Z</time>
      </trkpt>
      <trkpt lat="44.47255" lon="6.21618">
        <ele>945.1132813</ele>
        <time>2014-08-12T12:31:24Z</time>
      </trkpt>
      <trkpt lat="44.47249" lon="6.21628">
        <ele>944.1520996</ele>
        <time>2014-08-12T12:31:26Z</time>
      </trkpt>
      <trkpt lat="44.47247" lon="6.21633">
        <ele>943.1906738</ele>
        <time>2014-08-12T12:31:27Z</time>
      </trkpt>
      <trkpt lat="44.47239" lon="6.21658">
        <ele>940.7873535</ele>
        <time>2014-08-12T12:31:32Z</time>
      </trkpt>
      <trkpt lat="44.47218" lon="6.21661">
        <ele>937.9033203</ele>
        <time>2014-08-12T12:31:37Z</time>
      </trkpt>
      <trkpt lat="44.4721" lon="6.21659">
        <ele>937.4226074</ele>
        <time>2014-08-12T12:31:39Z</time>
      </trkpt>
      <trkpt lat="44.47192" lon="6.21687">
        <ele>935.0195313</ele>
        <time>2014-08-12T12:31:45Z</time>
      </trkpt>
      <trkpt lat="44.47185" lon="6.21702">
        <ele>933.5773926</ele>
        <time>2014-08-12T12:31:47Z</time>
      </trkpt>
      <trkpt lat="44.47169" lon="6.21738">
        <ele>931.1743164</ele>
        <time>2014-08-12T12:31:52Z</time>
      </trkpt>
      <trkpt lat="44.47167" lon="6.21744">
        <ele>930.2128906</ele>
        <time>2014-08-12T12:31:53Z</time>
      </trkpt>
      <trkpt lat="44.47148" lon="6.21769">
        <ele>926.8483887</ele>
        <time>2014-08-12T12:32:00Z</time>
      </trkpt>
      <trkpt lat="44.47146" lon="6.2176">
        <ele>925.40625</ele>
        <time>2014-08-12T12:32:06Z</time>
      </trkpt>
      <trkpt lat="44.47155" lon="6.21749">
        <ele>924.9257813</ele>
        <time>2014-08-12T12:32:09Z</time>
      </trkpt>
      <trkpt lat="44.47158" lon="6.21729">
        <ele>922.5222168</ele>
        <time>2014-08-12T12:32:13Z</time>
      </trkpt>
      <trkpt lat="44.47158" lon="6.2172">
        <ele>922.0415039</ele>
        <time>2014-08-12T12:32:15Z</time>
      </trkpt>
      <trkpt lat="44.47166" lon="6.21676">
        <ele>919.1577148</ele>
        <time>2014-08-12T12:32:20Z</time>
      </trkpt>
      <trkpt lat="44.47168" lon="6.21655">
        <ele>917.7155762</ele>
        <time>2014-08-12T12:32:22Z</time>
      </trkpt>
      <trkpt lat="44.47167" lon="6.21624">
        <ele>915.7932129</ele>
        <time>2014-08-12T12:32:25Z</time>
      </trkpt>
      <trkpt lat="44.47171" lon="6.21597">
        <ele>912.9091797</ele>
        <time>2014-08-12T12:32:29Z</time>
      </trkpt>
      <trkpt lat="44.47157" lon="6.21607">
        <ele>910.5058594</ele>
        <time>2014-08-12T12:32:36Z</time>
      </trkpt>
      <trkpt lat="44.47156" lon="6.21614">
        <ele>909.5446777</ele>
        <time>2014-08-12T12:32:37Z</time>
      </trkpt>
      <trkpt lat="44.47145" lon="6.21649">
        <ele>908.1027832</ele>
        <time>2014-08-12T12:32:42Z</time>
      </trkpt>
      <trkpt lat="44.47136" lon="6.21667">
        <ele>906.1796875</ele>
        <time>2014-08-12T12:32:45Z</time>
      </trkpt>
      <trkpt lat="44.47129" lon="6.21678">
        <ele>904.737793</ele>
        <time>2014-08-12T12:32:47Z</time>
      </trkpt>
      <trkpt lat="44.47119" lon="6.21702">
        <ele>902.8151855</ele>
        <time>2014-08-12T12:32:51Z</time>
      </trkpt>
      <trkpt lat="44.47115" lon="6.21726">
        <ele>900.8925781</ele>
        <time>2014-08-12T12:32:54Z</time>
      </trkpt>
      <trkpt lat="44.47103" lon="6.21766">
        <ele>898.0087891</ele>
        <time>2014-08-12T12:32:59Z</time>
      </trkpt>
      <trkpt lat="44.47097" lon="6.21784">
        <ele>896.5668945</ele>
        <time>2014-08-12T12:33:01Z</time>
      </trkpt>
      <trkpt lat="44.47094" lon="6.21798">
        <ele>895.1247559</ele>
        <time>2014-08-12T12:33:03Z</time>
      </trkpt>
      <trkpt lat="44.47093" lon="6.21813">
        <ele>893.2021484</ele>
        <time>2014-08-12T12:33:06Z</time>
      </trkpt>
      <trkpt lat="44.47093" lon="6.21819">
        <ele>892.2409668</ele>
        <time>2014-08-12T12:33:07Z</time>
      </trkpt>
      <trkpt lat="44.47087" lon="6.21825">
        <ele>891.2792969</ele>
        <time>2014-08-12T12:33:11Z</time>
      </trkpt>
      <trkpt lat="44.47084" lon="6.21825">
        <ele>890.3181152</ele>
        <time>2014-08-12T12:33:31Z</time>
      </trkpt>
      <trkpt lat="44.47089" lon="6.21763">
        <ele>887.434082</ele>
        <time>2014-08-12T12:33:41Z</time>
      </trkpt>
      <trkpt lat="44.4709" lon="6.21755">
        <ele>887.434082</ele>
        <time>2014-08-12T12:33:42Z</time>
      </trkpt>
      <trkpt lat="44.47091" lon="6.2174">
        <ele>885.9921875</ele>
        <time>2014-08-12T12:33:44Z</time>
      </trkpt>
      <trkpt lat="44.47092" lon="6.21732">
        <ele>885.0310059</ele>
        <time>2014-08-12T12:33:45Z</time>
      </trkpt>
      <trkpt lat="44.4709" lon="6.21704">
        <ele>883.5888672</ele>
        <time>2014-08-12T12:33:49Z</time>
      </trkpt>
      <trkpt lat="44.47087" lon="6.21671">
        <ele>880.2243652</ele>
        <time>2014-08-12T12:33:54Z</time>
      </trkpt>
      <trkpt lat="44.47088" lon="6.21662">
        <ele>879.2629395</ele>
        <time>2014-08-12T12:33:56Z</time>
      </trkpt>
      <trkpt lat="44.47092" lon="6.21648">
        <ele>878.3017578</ele>
        <time>2014-08-12T12:33:58Z</time>
      </trkpt>
      <trkpt lat="44.47099" lon="6.21631">
        <ele>877.3405762</ele>
        <time>2014-08-12T12:34:00Z</time>
      </trkpt>
      <trkpt lat="44.47104" lon="6.21597">
        <ele>873.9755859</ele>
        <time>2014-08-12T12:34:04Z</time>
      </trkpt>
      <trkpt lat="44.47105" lon="6.21539">
        <ele>871.5722656</ele>
        <time>2014-08-12T12:34:09Z</time>
      </trkpt>
      <trkpt lat="44.47106" lon="6.21517">
        <ele>867.7270508</ele>
        <time>2014-08-12T12:34:11Z</time>
      </trkpt>
      <trkpt lat="44.47105" lon="6.21508">
        <ele>867.7270508</ele>
        <time>2014-08-12T12:34:12Z</time>
      </trkpt>
      <trkpt lat="44.47105" lon="6.2149">
        <ele>866.2851563</ele>
        <time>2014-08-12T12:34:14Z</time>
      </trkpt>
      <trkpt lat="44.47103" lon="6.21473">
        <ele>864.8432617</ele>
        <time>2014-08-12T12:34:16Z</time>
      </trkpt>
      <trkpt lat="44.47104" lon="6.21451">
        <ele>862.4399414</ele>
        <time>2014-08-12T12:34:19Z</time>
      </trkpt>
      <trkpt lat="44.47107" lon="6.21431">
        <ele>861.9594727</ele>
        <time>2014-08-12T12:34:23Z</time>
      </trkpt>
      <trkpt lat="44.47102" lon="6.21426">
        <ele>859.5559082</ele>
        <time>2014-08-12T12:34:26Z</time>
      </trkpt>
      <trkpt lat="44.4709" lon="6.21445">
        <ele>857.1525879</ele>
        <time>2014-08-12T12:34:31Z</time>
      </trkpt>
      <trkpt lat="44.47084" lon="6.21461">
        <ele>856.1911621</ele>
        <time>2014-08-12T12:34:33Z</time>
      </trkpt>
      <trkpt lat="44.47078" lon="6.21479">
        <ele>855.2299805</ele>
        <time>2014-08-12T12:34:35Z</time>
      </trkpt>
      <trkpt lat="44.47068" lon="6.21511">
        <ele>851.3847656</ele>
        <time>2014-08-12T12:34:39Z</time>
      </trkpt>
      <trkpt lat="44.47065" lon="6.21518">
        <ele>851.3847656</ele>
        <time>2014-08-12T12:34:40Z</time>
      </trkpt>
      <trkpt lat="44.47061" lon="6.21532">
        <ele>849.9428711</ele>
        <time>2014-08-12T12:34:42Z</time>
      </trkpt>
      <trkpt lat="44.47058" lon="6.21539">
        <ele>849.4621582</ele>
        <time>2014-08-12T12:34:43Z</time>
      </trkpt>
      <trkpt lat="44.47055" lon="6.21556">
        <ele>848.0202637</ele>
        <time>2014-08-12T12:34:46Z</time>
      </trkpt>
      <trkpt lat="44.47053" lon="6.21571">
        <ele>846.5783691</ele>
        <time>2014-08-12T12:34:49Z</time>
      </trkpt>
      <trkpt lat="44.4705" lon="6.21582">
        <ele>846.0976563</ele>
        <time>2014-08-12T12:34:51Z</time>
      </trkpt>
      <trkpt lat="44.47047" lon="6.21596">
        <ele>846.0976563</ele>
        <time>2014-08-12T12:34:53Z</time>
      </trkpt>
      <trkpt lat="44.47026" lon="6.21656">
        <ele>841.2907715</ele>
        <time>2014-08-12T12:35:01Z</time>
      </trkpt>
      <trkpt lat="44.47021" lon="6.21669">
        <ele>839.848877</ele>
        <time>2014-08-12T12:35:03Z</time>
      </trkpt>
      <trkpt lat="44.47007" lon="6.21702">
        <ele>836.484375</ele>
        <time>2014-08-12T12:35:08Z</time>
      </trkpt>
      <trkpt lat="44.47001" lon="6.21716">
        <ele>835.5229492</ele>
        <time>2014-08-12T12:35:10Z</time>
      </trkpt>
      <trkpt lat="44.46984" lon="6.21771">
        <ele>831.1972656</ele>
        <time>2014-08-12T12:35:16Z</time>
      </trkpt>
      <trkpt lat="44.46981" lon="6.21778">
        <ele>831.1972656</ele>
        <time>2014-08-12T12:35:17Z</time>
      </trkpt>
      <trkpt lat="44.46978" lon="6.2179">
        <ele>828.7939453</ele>
        <time>2014-08-12T12:35:19Z</time>
      </trkpt>
      <trkpt lat="44.46978" lon="6.21802">
        <ele>827.8322754</ele>
        <time>2014-08-12T12:35:22Z</time>
      </trkpt>
      <trkpt lat="44.46968" lon="6.21798">
        <ele>826.3903809</ele>
        <time>2014-08-12T12:35:28Z</time>
      </trkpt>
      <trkpt lat="44.46963" lon="6.21782">
        <ele>823.9870605</ele>
        <time>2014-08-12T12:35:31Z</time>
      </trkpt>
      <trkpt lat="44.46959" lon="6.2177">
        <ele>823.0258789</ele>
        <time>2014-08-12T12:35:33Z</time>
      </trkpt>
      <trkpt lat="44.46948" lon="6.21754">
        <ele>821.1032715</ele>
        <time>2014-08-12T12:35:36Z</time>
      </trkpt>
      <trkpt lat="44.46932" lon="6.21736">
        <ele>819.1806641</ele>
        <time>2014-08-12T12:35:40Z</time>
      </trkpt>
      <trkpt lat="44.46925" lon="6.21711">
        <ele>816.2966309</ele>
        <time>2014-08-12T12:35:44Z</time>
      </trkpt>
      <trkpt lat="44.46927" lon="6.21703">
        <ele>816.7773438</ele>
        <time>2014-08-12T12:35:45Z</time>
      </trkpt>
      <trkpt lat="44.4693" lon="6.21687">
        <ele>815.3354492</ele>
        <time>2014-08-12T12:35:47Z</time>
      </trkpt>
      <trkpt lat="44.46929" lon="6.2167">
        <ele>813.8933105</ele>
        <time>2014-08-12T12:35:49Z</time>
      </trkpt>
      <trkpt lat="44.46921" lon="6.21635">
        <ele>810.5285645</ele>
        <time>2014-08-12T12:35:53Z</time>
      </trkpt>
      <trkpt lat="44.4692" lon="6.21627">
        <ele>810.5285645</ele>
        <time>2014-08-12T12:35:54Z</time>
      </trkpt>
      <trkpt lat="44.46921" lon="6.21592">
        <ele>808.1254883</ele>
        <time>2014-08-12T12:35:58Z</time>
      </trkpt>
      <trkpt lat="44.46922" lon="6.21583">
        <ele>807.1640625</ele>
        <time>2014-08-12T12:35:59Z</time>
      </trkpt>
      <trkpt lat="44.46926" lon="6.21567">
        <ele>805.722168</ele>
        <time>2014-08-12T12:36:01Z</time>
      </trkpt>
      <trkpt lat="44.46926" lon="6.21549">
        <ele>804.2802734</ele>
        <time>2014-08-12T12:36:03Z</time>
      </trkpt>
      <trkpt lat="44.46924" lon="6.21531">
        <ele>802.8381348</ele>
        <time>2014-08-12T12:36:05Z</time>
      </trkpt>
      <trkpt lat="44.46924" lon="6.21522">
        <ele>802.3574219</ele>
        <time>2014-08-12T12:36:06Z</time>
      </trkpt>
      <trkpt lat="44.46931" lon="6.2148">
        <ele>798.9929199</ele>
        <time>2014-08-12T12:36:11Z</time>
      </trkpt>
      <trkpt lat="44.46943" lon="6.2145">
        <ele>796.1091309</ele>
        <time>2014-08-12T12:36:15Z</time>
      </trkpt>
      <trkpt lat="44.46945" lon="6.21434">
        <ele>795.1474609</ele>
        <time>2014-08-12T12:36:17Z</time>
      </trkpt>
      <trkpt lat="44.46945" lon="6.21426">
        <ele>794.1862793</ele>
        <time>2014-08-12T12:36:18Z</time>
      </trkpt>
      <trkpt lat="44.4695" lon="6.21407">
        <ele>792.7443848</ele>
        <time>2014-08-12T12:36:21Z</time>
      </trkpt>
      <trkpt lat="44.46961" lon="6.21392">
        <ele>791.3022461</ele>
        <time>2014-08-12T12:36:24Z</time>
      </trkpt>
      <trkpt lat="44.46972" lon="6.21384">
        <ele>789.3796387</ele>
        <time>2014-08-12T12:36:26Z</time>
      </trkpt>
      <trkpt lat="44.46982" lon="6.21373">
        <ele>787.9377441</ele>
        <time>2014-08-12T12:36:28Z</time>
      </trkpt>
      <trkpt lat="44.46991" lon="6.21361">
        <ele>785.5344238</ele>
        <time>2014-08-12T12:36:30Z</time>
      </trkpt>
      <trkpt lat="44.47" lon="6.21339">
        <ele>784.0925293</ele>
        <time>2014-08-12T12:36:33Z</time>
      </trkpt>
      <trkpt lat="44.47008" lon="6.21323">
        <ele>783.1311035</ele>
        <time>2014-08-12T12:36:35Z</time>
      </trkpt>
      <trkpt lat="44.47015" lon="6.2131">
        <ele>780.7280273</ele>
        <time>2014-08-12T12:36:37Z</time>
      </trkpt>
      <trkpt lat="44.47027" lon="6.21297">
        <ele>778.8051758</ele>
        <time>2014-08-12T12:36:40Z</time>
      </trkpt>
      <trkpt lat="44.47031" lon="6.21295">
        <ele>778.3244629</ele>
        <time>2014-08-12T12:36:41Z</time>
      </trkpt>
      <trkpt lat="44.47048" lon="6.21285">
        <ele>776.4018555</ele>
        <time>2014-08-12T12:36:45Z</time>
      </trkpt>
      <trkpt lat="44.47051" lon="6.21283">
        <ele>775.4404297</ele>
        <time>2014-08-12T12:36:46Z</time>
      </trkpt>
      <trkpt lat="44.47036" lon="6.21254">
        <ele>773.0373535</ele>
        <time>2014-08-12T12:36:53Z</time>
      </trkpt>
      <trkpt lat="44.47012" lon="6.21243">
        <ele>772.5566406</ele>
        <time>2014-08-12T12:36:56Z</time>
      </trkpt>
      <trkpt lat="44.46968" lon="6.21238">
        <ele>768.2307129</ele>
        <time>2014-08-12T12:37:00Z</time>
      </trkpt>
      <trkpt lat="44.46957" lon="6.21238">
        <ele>768.2307129</ele>
        <time>2014-08-12T12:37:01Z</time>
      </trkpt>
      <trkpt lat="44.46937" lon="6.2124">
        <ele>765.3469238</ele>
        <time>2014-08-12T12:37:03Z</time>
      </trkpt>
      <trkpt lat="44.46928" lon="6.21241">
        <ele>761.9821777</ele>
        <time>2014-08-12T12:37:04Z</time>
      </trkpt>
      <trkpt lat="44.46918" lon="6.21241">
        <ele>761.9821777</ele>
        <time>2014-08-12T12:37:05Z</time>
      </trkpt>
      <trkpt lat="44.469" lon="6.21247">
        <ele>758.1369629</ele>
        <time>2014-08-12T12:37:08Z</time>
      </trkpt>
      <trkpt lat="44.46892" lon="6.21255">
        <ele>756.6948242</ele>
        <time>2014-08-12T12:37:10Z</time>
      </trkpt>
      <trkpt lat="44.46887" lon="6.21263">
        <ele>756.2141113</ele>
        <time>2014-08-12T12:37:11Z</time>
      </trkpt>
      <trkpt lat="44.46866" lon="6.21288">
        <ele>753.8110352</ele>
        <time>2014-08-12T12:37:15Z</time>
      </trkpt>
      <trkpt lat="44.4685" lon="6.21295">
        <ele>752.8496094</ele>
        <time>2014-08-12T12:37:17Z</time>
      </trkpt>
      <trkpt lat="44.46808" lon="6.21316">
        <ele>748.0432129</ele>
        <time>2014-08-12T12:37:21Z</time>
      </trkpt>
      <trkpt lat="44.46797" lon="6.21322">
        <ele>748.0432129</ele>
        <time>2014-08-12T12:37:22Z</time>
      </trkpt>
      <trkpt lat="44.46778" lon="6.21334">
        <ele>745.1589355</ele>
        <time>2014-08-12T12:37:24Z</time>
      </trkpt>
      <trkpt lat="44.46759" lon="6.21349">
        <ele>743.2363281</ele>
        <time>2014-08-12T12:37:26Z</time>
      </trkpt>
      <trkpt lat="44.46738" lon="6.21364">
        <ele>741.7944336</ele>
        <time>2014-08-12T12:37:28Z</time>
      </trkpt>
      <trkpt lat="44.46719" lon="6.21377">
        <ele>737.9492188</ele>
        <time>2014-08-12T12:37:30Z</time>
      </trkpt>
      <trkpt lat="44.46709" lon="6.21382">
        <ele>737.9492188</ele>
        <time>2014-08-12T12:37:31Z</time>
      </trkpt>
      <trkpt lat="44.46692" lon="6.21394">
        <ele>736.0266113</ele>
        <time>2014-08-12T12:37:33Z</time>
      </trkpt>
      <trkpt lat="44.46677" lon="6.21405">
        <ele>733.623291</ele>
        <time>2014-08-12T12:37:35Z</time>
      </trkpt>
      <trkpt lat="44.46661" lon="6.21413">
        <ele>730.7392578</ele>
        <time>2014-08-12T12:37:38Z</time>
      </trkpt>
      <trkpt lat="44.46653" lon="6.21416">
        <ele>728.8166504</ele>
        <time>2014-08-12T12:37:40Z</time>
      </trkpt>
      <trkpt lat="44.46651" lon="6.21418">
        <ele>727.8552246</ele>
        <time>2014-08-12T12:37:41Z</time>
      </trkpt>
      <trkpt lat="44.46649" lon="6.21439">
        <ele>725.9326172</ele>
        <time>2014-08-12T12:37:45Z</time>
      </trkpt>
      <trkpt lat="44.46653" lon="6.21446">
        <ele>724.9714355</ele>
        <time>2014-08-12T12:37:46Z</time>
      </trkpt>
      <trkpt lat="44.46673" lon="6.21491">
        <ele>722.5681152</ele>
        <time>2014-08-12T12:37:52Z</time>
      </trkpt>
      <trkpt lat="44.46676" lon="6.21498">
        <ele>721.1262207</ele>
        <time>2014-08-12T12:37:54Z</time>
      </trkpt>
      <trkpt lat="44.46681" lon="6.21518">
        <ele>719.6843262</ele>
        <time>2014-08-12T12:38:00Z</time>
      </trkpt>
      <trkpt lat="44.46682" lon="6.21571">
        <ele>717.2810059</ele>
        <time>2014-08-12T12:38:06Z</time>
      </trkpt>
      <trkpt lat="44.46683" lon="6.21593">
        <ele>715.8388672</ele>
        <time>2014-08-12T12:38:08Z</time>
      </trkpt>
      <trkpt lat="44.46686" lon="6.21615">
        <ele>713.9160156</ele>
        <time>2014-08-12T12:38:10Z</time>
      </trkpt>
      <trkpt lat="44.46688" lon="6.21635">
        <ele>712.4741211</ele>
        <time>2014-08-12T12:38:12Z</time>
      </trkpt>
      <trkpt lat="44.46692" lon="6.21659">
        <ele>710.0708008</ele>
        <time>2014-08-12T12:38:15Z</time>
      </trkpt>
      <trkpt lat="44.46694" lon="6.2168">
        <ele>708.6289063</ele>
        <time>2014-08-12T12:38:19Z</time>
      </trkpt>
      <trkpt lat="44.46717" lon="6.21744">
        <ele>706.7062988</ele>
        <time>2014-08-12T12:38:29Z</time>
      </trkpt>
      <trkpt lat="44.46737" lon="6.21779">
        <ele>706.2255859</ele>
        <time>2014-08-12T12:38:35Z</time>
      </trkpt>
      <trkpt lat="44.46751" lon="6.21797">
        <ele>706.7062988</ele>
        <time>2014-08-12T12:38:39Z</time>
      </trkpt>
      <trkpt lat="44.46762" lon="6.21821">
        <ele>706.7062988</ele>
        <time>2014-08-12T12:38:44Z</time>
      </trkpt>
      <trkpt lat="44.46765" lon="6.21837">
        <ele>706.7062988</ele>
        <time>2014-08-12T12:38:47Z</time>
      </trkpt>
      <trkpt lat="44.46765" lon="6.21849">
        <ele>707.1870117</ele>
        <time>2014-08-12T12:38:49Z</time>
      </trkpt>
      <trkpt lat="44.46761" lon="6.21874">
        <ele>706.7062988</ele>
        <time>2014-08-12T12:38:53Z</time>
      </trkpt>
      <trkpt lat="44.46759" lon="6.21928">
        <ele>705.7451172</ele>
        <time>2014-08-12T12:39:01Z</time>
      </trkpt>
      <trkpt lat="44.46759" lon="6.21944">
        <ele>704.3032227</ele>
        <time>2014-08-12T12:39:03Z</time>
      </trkpt>
      <trkpt lat="44.4676" lon="6.21971">
        <ele>704.3032227</ele>
        <time>2014-08-12T12:39:06Z</time>
      </trkpt>
      <trkpt lat="44.46779" lon="6.22035">
        <ele>705.2644043</ele>
        <time>2014-08-12T12:39:17Z</time>
      </trkpt>
      <trkpt lat="44.46781" lon="6.22067">
        <ele>708.1484375</ele>
        <time>2014-08-12T12:39:26Z</time>
      </trkpt>
      <trkpt lat="44.46788" lon="6.22071">
        <ele>708.6289063</ele>
        <time>2014-08-12T12:39:31Z</time>
      </trkpt>
      <trkpt lat="44.46786" lon="6.22084">
        <ele>709.1096191</ele>
        <time>2014-08-12T12:39:34Z</time>
      </trkpt>
      <trkpt lat="44.46786" lon="6.22144">
        <ele>709.590332</ele>
        <time>2014-08-12T12:39:48Z</time>
      </trkpt>
      <trkpt lat="44.46771" lon="6.22201">
        <ele>708.1484375</ele>
        <time>2014-08-12T12:39:58Z</time>
      </trkpt>
      <trkpt lat="44.46767" lon="6.22218">
        <ele>707.6677246</ele>
        <time>2014-08-12T12:40:00Z</time>
      </trkpt>
      <trkpt lat="44.46751" lon="6.22284">
        <ele>705.7451172</ele>
        <time>2014-08-12T12:40:07Z</time>
      </trkpt>
      <trkpt lat="44.46691" lon="6.22398">
        <ele>703.8225098</ele>
        <time>2014-08-12T12:40:20Z</time>
      </trkpt>
      <trkpt lat="44.46652" lon="6.22555">
        <ele>700.4580078</ele>
        <time>2014-08-12T12:40:36Z</time>
      </trkpt>
      <trkpt lat="44.46639" lon="6.22606">
        <ele>700.9384766</ele>
        <time>2014-08-12T12:40:43Z</time>
      </trkpt>
      <trkpt lat="44.46634" lon="6.22624">
        <ele>700.9384766</ele>
        <time>2014-08-12T12:40:46Z</time>
      </trkpt>
      <trkpt lat="44.4663" lon="6.22643">
        <ele>701.4191895</ele>
        <time>2014-08-12T12:40:49Z</time>
      </trkpt>
      <trkpt lat="44.46611" lon="6.22693">
        <ele>701.8999023</ele>
        <time>2014-08-12T12:40:59Z</time>
      </trkpt>
      <trkpt lat="44.46575" lon="6.22761">
        <ele>701.4191895</ele>
        <time>2014-08-12T12:41:12Z</time>
      </trkpt>
      <trkpt lat="44.46563" lon="6.22793">
        <ele>701.4191895</ele>
        <time>2014-08-12T12:41:17Z</time>
      </trkpt>
      <trkpt lat="44.46553" lon="6.22818">
        <ele>701.4191895</ele>
        <time>2014-08-12T12:41:21Z</time>
      </trkpt>
      <trkpt lat="44.46524" lon="6.22922">
        <ele>699.9770508</ele>
        <time>2014-08-12T12:41:35Z</time>
      </trkpt>
      <trkpt lat="44.46507" lon="6.22977">
        <ele>698.5349121</ele>
        <time>2014-08-12T12:41:42Z</time>
      </trkpt>
      <trkpt lat="44.46498" lon="6.23011">
        <ele>696.6125488</ele>
        <time>2014-08-12T12:41:49Z</time>
      </trkpt>
      <trkpt lat="44.46495" lon="6.23017">
        <ele>696.6125488</ele>
        <time>2014-08-12T12:41:51Z</time>
      </trkpt>
      <trkpt lat="44.46494" lon="6.23071">
        <ele>696.6125488</ele>
        <time>2014-08-12T12:42:05Z</time>
      </trkpt>
      <trkpt lat="44.46494" lon="6.23072">
        <ele>696.1318359</ele>
        <time>2014-08-12T12:42:21Z</time>
      </trkpt>
      <trkpt lat="44.46494" lon="6.23071">
        <ele>695.1704102</ele>
        <time>2014-08-12T12:42:29Z</time>
      </trkpt>
      <trkpt lat="44.46494" lon="6.23069">
        <ele>696.1318359</ele>
        <time>2014-08-12T12:42:58Z</time>
      </trkpt>
      <trkpt lat="44.46494" lon="6.23069">
        <ele>697.0930176</ele>
        <time>2014-08-12T12:43:04Z</time>
      </trkpt>
    </trkseg>
  </trk>
</gpx>